GFSWCAN_500_spd_000.txt.gz
Wind_Speed
53 65 54 55 50 45 45 45 44 43 41 41 40 38 38 38 37 36 37 37 36 36 37 37 38 38 42 45 46 47 51 50 50 48 46 42 41 39 39 38 37 38 41 42 47 52 53 52 52 52 58 61 62 62
52 66 61 61 58 50 48 45 45 45 45 43 42 40 39 40 40 39 39 41 43 42 42 42 42 44 48 47 50 54 51 50 49 46 41 42 41 43 42 44 38 43 41 47 47 53 48 49 54 58 59 62 64 63
58 60 57 55 62 58 51 54 52 46 46 46 45 43 41 42 43 45 47 47 48 49 51 49 48 50 49 52 54 53 51 48 42 40 40 40 44 42 44 47 49 49 48 48 55 49 54 57 57 58 61 63 63 65
66 61 53 56 53 49 58 60 53 52 55 54 52 52 52 51 50 54 51 55 56 56 57 52 52 51 50 49 49 49 43 42 41 40 39 40 44 48 49 50 54 51 53 56 59 55 62 60 62 64 64 65 68 69
69 63 60 60 50 51 52 53 52 49 57 60 60 56 58 61 62 53 53 52 51 53 56 54 51 46 45 46 45 41 42 38 37 39 41 41 44 47 49 53 56 52 57 58 59 57 65 64 68 65 67 69 66 69
69 71 70 67 57 55 57 54 52 48 43 43 46 50 52 45 46 49 50 51 49 46 50 53 49 42 39 38 42 44 43 41 41 41 43 45 47 52 56 57 55 51 56 60 62 63 65 68 65 69 70 69 71 71
65 67 71 73 66 59 55 51 53 51 48 45 42 41 42 42 43 44 44 41 39 44 45 44 43 39 39 41 43 45 45 45 47 48 48 50 52 56 59 60 49 57 58 60 62 67 67 67 69 70 68 67 69 73
58 62 66 63 66 63 57 56 55 54 53 50 49 48 47 45 45 46 45 47 46 45 46 48 47 51 49 47 45 45 48 51 53 53 55 55 57 59 61 53 59 59 60 62 65 67 68 69 69 70 70 69 62 61
48 57 60 60 61 61 62 59 58 60 57 56 53 51 51 50 49 49 49 51 52 48 45 47 46 53 54 56 56 54 52 53 57 58 56 59 60 62 57 60 59 60 63 65 67 68 68 69 69 69 71 70 62 66
46 47 53 61 60 62 60 61 62 61 60 60 59 57 56 53 50 51 53 52 53 56 54 59 59 59 58 62 63 66 66 66 68 67 66 64 61 56 60 62 63 63 64 67 66 67 67 67 69 68 67 66 67 69
49 48 46 48 54 58 61 63 63 63 64 62 62 61 59 58 55 53 52 55 58 60 60 59 62 64 62 60 59 63 66 68 70 68 67 66 63 63 64 64 65 66 66 66 66 64 62 63 65 66 66 66 70 72
51 46 45 44 44 48 54 56 59 61 63 61 59 58 57 59 57 57 58 59 60 63 64 62 58 58 60 61 61 62 61 62 62 63 65 67 65 64 65 65 65 68 68 67 66 65 65 66 68 70 71 71 70 69
50 49 48 47 47 48 47 45 47 49 49 52 54 54 55 55 56 58 57 58 57 55 55 54 54 55 56 56 56 57 59 60 61 62 62 63 59 61 65 67 67 66 64 64 64 63 63 67 69 71 70 69 67 63
53 51 50 47 46 46 48 48 47 45 45 44 45 46 46 48 51 52 50 48 47 47 47 49 49 50 51 53 54 56 60 61 62 62 60 58 59 61 63 62 62 60 60 61 63 66 68 69 69 69 67 66 66 64
48 48 50 48 48 47 45 44 43 43 43 43 43 45 45 45 45 44 44 45 46 47 48 51 53 54 55 56 56 58 60 64 61 55 56 59 61 61 61 59 60 61 63 64 65 67 68 69 67 64 63 65 66 64
44 45 47 48 49 49 48 45 44 45 45 45 45 44 43 45 47 48 49 50 50 51 51 52 51 53 53 55 57 57 58 53 50 53 56 58 59 59 59 59 61 64 66 67 67 67 66 63 64 66 65 61 58 52
40 40 39 40 42 43 46 48 48 48 50 47 45 47 47 47 47 47 48 49 50 50 50 51 51 52 56 58 57 49 45 47 51 54 55 56 58 58 59 63 64 64 65 64 63 61 62 63 64 59 54 48 42 36
35 35 36 38 39 38 39 41 44 45 46 44 42 41 41 44 45 46 48 47 47 46 46 47 51 52 52 49 42 42 47 50 52 54 54 55 58 60 61 62 61 59 58 58 60 62 61 57 50 44 39 30 24 18
34 35 35 34 34 35 37 37 38 38 37 36 37 39 40 41 43 44 43 43 41 41 43 46 49 45 37 40 43 44 48 52 54 55 55 56 57 58 57 55 55 56 58 57 57 53 46 40 36 32 26 23 20 19
29 29 30 30 31 32 32 33 33 35 35 34 36 36 36 36 38 37 38 40 41 43 44 43 37 40 44 43 48 50 51 53 55 55 52 50 49 50 51 53 53 52 52 49 42 36 33 32 30 29 26 23 20 18
23 23 24 27 28 29 30 30 30 31 32 33 34 35 35 36 37 39 41 42 42 40 38 39 41 43 46 45 46 48 48 47 46 48 48 47 46 48 50 47 49 46 41 35 31 26 30 31 28 25 22 22 22 19
27 27 28 29 29 30 31 31 31 31 31 31 32 34 34 35 36 36 39 39 39 38 40 41 44 45 45 45 43 43 43 44 45 46 46 44 43 44 42 42 39 35 33 30 27 29 32 33 29 26 25 24 23 21
20 21 24 26 28 29 29 30 29 30 30 30 31 32 32 33 35 38 39 39 39 40 41 44 44 44 40 38 39 40 42 42 41 39 37 38 38 39 38 34 36 36 33 24 26 30 30 28 27 24 23 22 20 20
21 21 22 23 23 23 22 22 24 26 27 27 29 31 33 35 38 40 40 41 39 38 39 40 40 38 38 36 36 35 34 35 33 32 32 34 34 34 34 32 32 33 28 22 24 25 25 24 24 22 22 21 18 17
20 20 20 19 20 21 20 18 19 21 24 28 30 32 35 39 41 41 38 33 35 37 36 37 37 36 33 29 28 29 30 29 29 28 30 34 35 34 32 29 27 28 28 25 26 27 27 27 25 24 22 20 18 19
19 17 13 11 12 14 18 21 22 25 27 31 31 33 35 37 38 36 30 32 34 35 34 31 29 28 28 28 27 25 27 30 32 31 31 33 34 36 34 28 24 23 26 26 26 28 29 28 27 25 24 22 21 20
20 15 14 14 17 20 22 25 28 30 31 32 34 36 38 39 36 30 31 34 33 27 23 24 25 27 29 29 32 34 34 34 35 36 36 34 35 36 36 33 28 26 25 26 26 26 25 26 28 27 26 24 23 25
16 16 17 21 24 28 31 32 34 35 37 39 40 39 39 38 34 32 29 26 25 22 21 19 20 23 27 30 32 35 35 34 33 32 32 33 36 35 36 35 32 29 27 26 27 27 27 26 27 27 26 25 25 26
23 23 25 27 30 35 39 38 39 41 40 43 43 40 37 34 29 26 27 28 26 25 24 24 24 28 29 29 29 28 30 31 29 28 29 30 30 35 35 32 30 29 29 28 27 28 27 24 24 24 24 26 28 31
27 30 35 38 41 42 42 46 50 49 49 48 45 40 36 29 24 26 23 21 21 24 26 27 28 27 26 27 28 29 28 28 28 28 28 28 30 30 29 29 29 30 30 29 28 27 27 28 29 29 30 31 33 36
37 39 42 44 48 50 52 50 48 45 41 37 34 33 29 27 25 26 28 27 26 26 27 29 30 29 29 29 29 30 29 28 27 28 29 30 31 32 32 33 34 35 35 35 35 35 35 35 36 36 37 38 39 40
44 46 46 43 40 39 39 39 38 37 35 33 27 25 27 31 33 31 28 29 32 35 36 35 34 32 31 31 31 32 34 36 37 38 38 39 40 40 41 40 40 39 39 38 38 38 39 39 39 39 39 39 40 40
32 35 38 40 40 41 41 43 42 41 38 37 34 32 32 33 35 36 36 37 37 37 37 36 35 34 34 35 36 37 38 39 40 41 43 44 45 43 40 39 38 38 37 37 38 39 40 41 42 41 41 41 41 42

GFSWCAN_500_spd_003.txt.gz
Wind_Speed
53 55 52 54 50 49 46 45 44 42 39 38 38 37 36 35 34 34 35 35 35 35 34 34 35 36 37 38 39 40 44 46 50 49 49 50 53 50 45 41 37 36 38 36 42 43 43 46 53 55 58 60 60 59
55 57 54 54 53 50 49 46 45 43 42 39 39 39 39 39 37 37 37 37 37 37 37 37 36 37 40 43 44 46 51 52 55 50 47 50 50 47 44 42 32 38 36 39 43 44 44 48 56 58 60 61 59 62
54 56 58 58 56 51 48 48 45 43 43 42 41 41 41 41 40 39 37 37 38 39 39 37 37 42 46 47 50 51 53 56 50 47 48 46 47 43 40 42 42 41 34 42 46 42 47 54 54 58 61 62 63 67
61 61 55 51 50 60 53 48 47 44 45 45 45 45 44 43 42 41 41 41 41 41 41 40 44 49 53 55 55 56 55 52 44 46 42 45 44 40 41 42 45 42 44 45 53 55 57 55 56 60 64 67 67 69
57 59 62 58 53 55 58 56 53 48 47 47 46 47 49 47 47 45 44 46 46 50 54 50 52 57 56 52 52 52 49 49 42 41 40 42 44 45 45 47 49 44 49 55 60 59 61 63 65 56 66 69 73 74
63 61 60 61 52 51 64 62 61 63 59 54 51 53 52 48 48 48 55 56 57 57 59 63 60 53 51 48 48 49 46 42 42 43 44 45 45 50 53 54 49 50 56 61 63 64 65 65 65 69 71 73 76 77
68 67 62 62 56 57 54 56 58 55 60 63 60 56 54 53 60 62 61 58 57 60 55 53 52 44 38 40 43 44 43 43 46 49 49 49 50 54 57 58 52 59 63 65 66 67 69 70 70 72 74 75 76 76
64 67 66 64 63 65 60 55 52 52 48 48 50 53 58 53 52 53 52 51 49 47 46 48 46 43 42 45 41 41 41 42 46 48 50 53 57 59 60 53 60 64 67 68 68 68 69 72 74 74 76 76 74 73
48 62 65 64 67 65 60 63 59 60 55 55 54 55 56 52 50 48 47 51 48 48 50 47 47 49 49 46 45 42 44 47 49 52 53 57 60 61 60 66 67 68 68 69 69 72 75 74 74 74 74 74 70 67
48 43 52 64 65 63 63 63 65 62 61 56 55 54 53 54 54 54 51 53 53 54 55 54 53 52 50 49 51 53 54 56 58 58 60 61 61 61 65 65 65 64 67 71 71 71 71 70 70 69 67 66 69 73
49 51 44 45 52 58 61 60 58 58 63 64 62 56 55 56 56 56 59 59 56 56 57 56 56 55 51 51 55 59 61 63 66 67 68 68 67 64 64 65 67 69 70 70 69 68 70 69 70 74 74 71 70 71
50 49 51 47 43 48 52 56 58 59 60 58 60 61 60 59 60 62 61 62 62 62 59 53 48 48 51 55 59 63 65 68 68 67 66 67 65 64 65 66 69 70 70 71 72 72 73 71 68 68 69 71 73 74
53 48 46 47 48 43 45 49 53 57 58 58 58 60 61 61 61 62 60 61 59 54 53 50 49 52 54 56 58 59 61 62 64 64 63 61 60 62 64 65 69 71 70 70 69 68 65 65 66 69 72 72 73 73
49 49 47 46 46 45 42 43 44 45 47 50 53 55 57 57 60 59 55 53 53 52 52 50 51 52 53 53 54 56 58 60 62 61 59 61 63 64 66 69 71 69 66 64 63 63 64 66 69 69 70 72 71 70
42 45 47 48 47 47 46 44 43 42 42 43 45 48 49 51 52 51 49 46 44 44 44 46 48 49 48 51 52 56 58 61 60 56 60 64 66 68 70 68 63 59 60 62 62 63 66 69 70 70 67 67 70 70
39 44 45 46 47 46 47 46 45 47 48 47 48 47 47 47 47 48 47 47 47 47 48 49 49 51 53 55 56 56 57 54 55 62 65 67 68 65 61 57 58 60 61 63 65 67 67 66 65 65 65 66 62 53
38 39 43 43 44 46 47 45 47 48 49 47 46 46 47 46 46 46 47 48 48 49 49 50 50 51 53 55 56 52 52 56 61 65 65 61 58 56 56 58 60 63 64 64 64 62 61 63 65 64 60 50 41 36
39 36 35 37 40 42 42 42 46 49 48 48 48 47 47 47 49 49 49 49 50 51 52 52 51 52 53 52 49 52 59 61 58 55 55 54 55 57 61 62 62 61 58 57 59 61 63 63 60 54 42 34 30 29
34 31 30 32 35 36 37 40 42 42 43 43 45 46 45 45 47 47 47 48 48 48 48 48 51 51 45 47 53 53 51 51 51 50 51 54 58 59 60 59 56 56 57 58 59 60 58 54 46 35 30 29 27 26
37 35 35 35 34 35 35 36 37 39 39 38 39 40 41 42 43 43 44 44 43 44 46 47 42 40 47 49 48 48 48 50 53 53 52 52 55 55 53 55 55 55 53 53 52 51 43 35 30 30 32 31 27 25
31 33 33 29 30 31 32 31 30 31 33 35 36 38 38 39 39 38 38 39 42 43 43 39 42 45 46 44 46 49 50 52 53 54 54 49 46 48 49 50 49 49 48 46 44 41 35 29 27 30 30 28 26 25
24 25 25 23 22 23 26 26 28 30 32 34 35 35 35 35 36 37 39 42 41 38 40 40 41 44 45 46 48 50 50 49 48 47 46 46 44 44 43 43 43 42 39 38 37 35 24 21 24 25 25 24 23 23
22 23 23 24 24 24 25 27 28 30 32 32 34 35 35 35 36 37 37 35 36 37 39 41 43 45 46 47 48 46 45 44 44 44 43 41 39 37 36 35 36 35 34 32 32 30 24 21 22 24 24 24 23 23
24 24 25 24 24 24 25 27 29 30 31 31 31 31 31 33 34 36 35 35 38 41 43 44 46 46 46 45 43 42 43 44 42 38 37 36 34 32 33 34 35 35 36 34 32 29 27 26 27 26 26 24 23 22
25 24 24 23 24 23 23 24 25 26 26 26 26 27 28 32 35 36 35 35 38 39 40 41 42 41 40 40 42 42 41 38 34 32 32 32 33 35 35 35 35 36 37 36 34 32 30 28 26 24 24 24 25 24
20 20 18 15 16 17 19 19 19 20 21 24 25 27 29 32 33 34 33 36 40 41 41 40 40 40 40 39 37 34 34 36 37 36 36 37 39 41 38 33 33 34 36 37 34 32 31 30 28 27 26 26 26 25
19 16 15 14 14 16 19 21 22 24 26 27 29 31 33 34 34 34 36 39 39 38 38 39 36 32 27 28 31 33 36 37 37 38 38 38 38 40 37 35 34 32 32 33 30 30 29 29 28 27 28 27 25 25
15 14 14 16 18 22 25 27 29 31 32 35 36 37 39 40 41 38 36 37 38 36 31 26 25 27 29 29 27 28 28 29 27 25 26 31 33 32 31 29 28 30 30 28 28 28 28 27 26 26 26 25 24 24
20 20 21 22 26 29 32 33 34 36 39 42 45 46 47 51 45 35 35 36 32 29 27 27 26 28 27 27 29 28 25 25 25 25 26 25 26 27 26 26 27 29 30 30 31 32 32 31 30 30 29 29 29 30
22 27 29 31 33 35 36 41 42 43 45 48 52 53 46 38 33 33 31 28 28 24 22 22 23 25 25 26 26 28 29 29 30 30 28 26 26 28 30 32 34 36 38 39 40 39 38 37 37 36 36 35 35 36
30 33 36 38 40 39 42 46 50 52 50 46 43 41 36 33 31 30 28 26 26 25 26 28 28 26 28 29 30 30 31 32 34 34 34 34 34 36 37 39 41 42 44 44 42 40 38 38 38 38 37 38 38 39
35 39 43 44 43 41 40 41 42 44 45 48 47 46 44 42 39 35 28 27 28 29 29 30 31 33 34 34 34 34 35 35 36 37 38 38 39 41 43 44 46 46 46 43 41 40 39 38 38 38 39 40 41 41
30 32 34 36 38 40 42 44 44 44 43 44 52 53 50 46 42 37 34 32 31 32 33 35 37 37 37 37 35 35 35 35 36 37 39 41 43 45 46 46 46 44 43 41 39 37 37 38 39 39 40 40 39 39

GFSWCAN_500_spd_006.txt.gz
Wind_Speed
48 52 52 47 49 49 47 47 45 44 41 39 39 38 37 35 35 36 35 35 34 34 33 33 32 33 33 34 34 35 35 36 41 44 46 50 54 52 46 41 40 40 40 36 40 40 38 41 44 48 51 55 59 62
48 46 47 53 50 49 49 47 46 46 45 43 41 40 38 37 35 35 35 35 35 35 35 35 36 36 36 37 38 37 36 42 47 48 52 57 54 47 41 40 34 35 32 39 41 42 40 46 49 54 57 60 62 64
56 52 48 52 52 50 49 48 48 47 44 43 43 42 39 38 37 36 36 35 36 36 36 37 37 37 38 38 37 37 40 47 50 54 54 53 50 46 40 39 39 36 35 40 47 43 47 50 52 57 57 62 67 69
57 54 48 55 52 48 49 50 48 47 46 44 43 42 40 40 39 39 38 38 38 38 38 39 39 40 40 40 39 45 52 53 57 58 56 53 50 47 41 41 42 38 45 48 52 51 55 58 60 61 66 69 71 70
58 62 56 55 58 51 56 51 50 49 47 45 46 45 44 43 42 41 41 40 39 40 42 40 41 42 43 43 46 51 55 60 59 55 53 48 42 41 44 47 43 43 47 53 55 58 59 64 67 70 74 76 73 72
56 57 60 62 53 51 56 55 53 51 50 45 48 45 45 45 44 44 43 43 43 44 46 45 43 47 49 50 52 55 58 54 50 46 47 45 41 45 47 48 46 48 54 56 58 60 64 68 72 76 77 75 73 75
55 58 58 60 58 51 57 57 54 51 52 47 49 49 47 46 45 44 45 45 47 48 49 50 51 53 53 57 55 54 50 47 45 46 46 44 41 46 49 50 48 54 57 61 63 66 69 72 74 75 74 75 78 77
58 58 59 57 61 57 53 51 50 51 44 57 55 50 50 49 49 50 50 50 50 51 52 57 60 57 56 54 50 48 47 48 49 50 50 47 49 52 54 51 54 58 62 66 69 71 72 72 72 74 77 76 74 76
60 62 64 62 58 59 55 59 56 51 44 48 56 55 57 60 60 59 57 58 61 60 59 61 56 50 49 48 50 47 48 49 51 51 52 53 55 58 58 57 59 64 68 70 69 71 72 73 73 74 74 75 76 75
61 59 60 66 65 62 61 58 56 54 48 48 46 53 56 55 44 46 46 48 51 52 53 54 53 53 53 52 53 55 56 55 56 56 56 55 56 58 60 62 67 69 69 70 71 71 71 72 72 74 74 73 74 74
57 59 53 58 62 59 59 60 58 58 53 53 53 52 51 53 53 52 51 51 52 56 58 56 55 53 54 55 54 58 61 62 62 60 60 60 61 61 64 66 68 68 68 68 70 72 72 72 73 76 77 74 72 73
51 56 54 47 52 59 59 57 57 57 52 48 52 57 57 56 54 54 54 53 54 55 55 50 50 53 56 57 58 61 61 61 61 61 62 63 62 64 65 66 67 68 69 71 72 71 73 75 76 74 72 73 73 73
47 46 50 51 46 43 49 58 60 60 61 63 63 59 57 62 63 62 58 57 57 55 53 54 55 55 56 57 57 57 59 60 61 62 62 60 60 62 64 65 68 69 69 69 71 73 74 72 69 69 70 71 73 72
49 49 43 47 49 49 44 43 45 50 52 54 56 58 62 63 65 65 63 59 57 56 56 56 57 57 55 55 56 56 57 59 60 59 56 59 62 64 65 66 66 66 67 70 70 69 67 66 67 68 69 69 69 66
51 51 45 40 42 45 47 48 45 41 42 47 50 55 56 55 54 53 53 52 51 52 51 51 53 54 53 54 53 54 57 58 57 57 60 62 64 64 63 63 65 68 69 67 64 63 64 66 67 65 64 64 66 67
42 48 49 47 40 38 40 42 44 45 45 43 41 39 39 40 41 42 44 44 45 47 48 49 50 52 54 53 54 55 56 55 57 60 62 64 62 61 62 64 65 65 62 61 61 63 64 64 63 62 63 65 65 61
37 39 41 43 46 44 41 40 41 43 45 42 40 40 40 42 43 44 45 46 47 48 49 50 52 51 53 55 56 55 54 57 61 64 62 60 60 60 61 61 60 58 59 61 62 62 60 60 62 64 64 60 54 43
31 30 36 39 42 42 41 42 41 40 41 42 44 45 46 47 47 48 48 49 50 50 50 49 51 52 53 54 51 52 57 64 64 59 60 59 58 58 57 57 59 60 60 59 59 58 59 60 60 59 54 51 41 32
33 37 36 31 31 36 41 42 42 41 41 43 44 46 47 47 48 48 49 48 48 49 50 50 52 52 48 48 49 57 63 58 56 57 55 53 53 55 57 59 59 57 55 55 56 55 54 53 52 51 49 43 33 32
36 35 35 36 33 32 35 37 38 42 42 42 43 44 46 47 47 48 48 48 49 50 52 50 47 45 43 51 57 55 53 54 55 51 47 48 53 56 57 55 52 52 52 51 49 49 48 47 44 44 40 32 31 30
28 28 29 31 32 30 32 33 34 36 39 41 41 42 43 44 44 44 44 43 45 45 44 42 44 47 50 49 50 50 48 49 48 50 51 51 52 52 50 51 50 50 47 44 42 41 41 39 35 37 29 26 26 26
27 27 28 30 33 33 33 33 33 33 36 37 37 36 35 34 34 35 36 40 41 38 40 42 44 45 44 43 44 46 47 49 51 52 53 52 49 48 47 48 45 42 41 40 40 37 37 35 32 31 29 28 27 26
26 29 31 34 35 34 33 32 29 25 25 26 28 29 30 31 34 35 38 36 36 37 38 39 39 40 41 43 45 48 51 53 52 51 50 49 47 47 45 41 41 38 37 36 38 37 37 36 35 32 30 29 29 30
21 22 24 26 24 21 20 24 26 26 27 27 28 29 30 32 33 34 34 32 32 34 36 39 42 43 46 48 48 49 49 49 48 47 47 46 46 43 41 39 38 40 42 41 38 38 38 35 35 34 32 29 28 26
20 21 21 22 23 23 24 25 26 27 28 28 28 28 29 30 31 30 28 29 33 37 38 41 43 45 46 46 47 48 50 49 47 46 44 43 41 40 40 41 42 44 45 43 40 38 37 35 34 33 32 31 29 28
22 21 22 21 22 24 25 26 26 26 26 25 25 25 27 29 31 32 31 32 34 36 39 43 45 46 46 46 44 44 42 42 42 41 36 38 39 41 40 39 38 36 40 39 38 35 34 34 30 30 30 31 30 29
21 21 21 21 21 21 21 21 21 21 23 25 26 28 31 33 33 33 35 38 39 42 47 49 47 45 42 39 38 38 38 37 38 36 33 32 33 33 32 32 32 31 29 29 30 29 28 29 30 31 32 32 31 30
16 14 16 19 21 23 24 25 25 26 28 31 33 34 36 36 36 39 41 42 44 50 54 51 48 45 40 35 34 34 34 36 35 34 34 32 30 31 32 31 31 30 27 27 29 31 33 35 36 37 38 37 35 35
16 17 20 22 25 28 28 28 29 30 34 36 38 39 41 44 44 45 48 50 49 47 46 46 43 40 36 34 33 30 30 30 30 31 33 34 35 35 35 33 31 32 33 35 37 39 40 42 44 44 41 38 37 38
16 20 22 23 25 27 30 35 35 36 39 42 44 45 46 49 51 48 44 41 40 39 39 39 39 36 33 30 29 30 29 29 30 32 33 35 37 38 39 38 38 39 39 39 41 43 46 47 46 44 42 40 38 37
24 27 29 30 31 33 37 39 40 42 44 44 43 44 44 47 49 50 49 46 42 39 36 35 36 35 33 32 31 31 32 33 36 37 37 38 39 40 40 41 41 42 43 45 46 46 46 46 45 43 41 39 38 38
34 35 35 36 35 36 36 36 34 35 37 39 40 43 43 46 47 52 56 54 51 46 38 35 34 35 35 35 35 35 36 37 38 39 39 39 39 39 39 40 42 43 45 46 46 46 46 44 41 40 40 41 42 43
31 32 33 34 33 33 35 37 36 36 35 37 38 39 40 41 43 38 24 19 24 30 36 36 34 35 36 37 37 37 38 39 39 38 37 37 39 41 44 45 45 44 44 43 42 42 41 41 43 44 45 45 44 42

GFSWCAN_500_spd_009.txt.gz
Wind_Speed
46 51 54 52 46 46 45 42 43 42 39 36 35 34 34 34 33 32 33 32 32 31 31 31 32 31 31 31 32 32 33 33 34 34 34 37 39 42 47 48 43 39 43 38 38 35 36 38 41 44 46 49 53 56
46 48 49 50 45 46 46 44 44 44 43 40 38 36 35 34 34 35 34 34 34 34 34 35 35 34 35 35 35 35 34 35 36 37 39 44 47 50 53 54 44 39 36 39 40 37 40 42 45 48 50 55 57 61
47 47 53 53 48 43 44 46 43 45 45 44 41 39 38 36 36 36 36 36 35 35 36 36 36 36 36 37 37 36 36 36 38 40 42 47 52 56 55 50 45 35 33 39 44 39 44 46 48 51 54 58 61 66
50 48 45 48 52 48 46 46 45 45 45 45 43 42 42 40 38 37 37 37 36 37 38 37 37 38 38 37 37 37 36 38 41 43 49 54 58 56 50 44 42 36 40 42 44 43 48 48 52 57 63 63 65 71
57 55 49 45 43 47 48 48 46 47 46 45 43 42 42 42 40 39 39 39 39 40 39 38 39 38 38 39 38 38 39 42 43 48 53 58 57 50 46 45 43 42 42 46 50 51 53 56 59 63 67 71 74 75
59 56 56 53 48 44 43 48 47 46 46 44 45 43 43 42 42 41 40 41 41 41 41 40 40 41 42 41 40 41 42 44 47 53 58 58 53 51 50 50 47 44 47 52 55 57 58 61 64 68 72 74 75 74
53 55 56 52 50 49 45 47 47 42 45 47 46 45 46 46 45 44 44 43 44 44 43 43 43 41 41 43 44 44 44 48 55 59 57 52 50 51 52 53 50 51 53 56 59 60 63 67 70 73 74 73 73 74
49 52 54 55 51 52 49 46 48 49 45 48 48 48 46 46 46 46 44 45 44 46 46 47 45 45 42 43 44 46 50 54 57 50 47 49 53 54 55 54 54 56 57 59 61 64 68 71 72 73 71 71 73 74
48 47 50 51 52 53 53 53 48 47 48 51 51 52 51 47 47 46 46 46 45 45 47 47 47 48 51 53 54 56 57 55 50 49 51 53 54 57 58 59 61 61 61 62 65 68 69 69 68 67 71 73 74 74
51 48 49 52 53 54 52 51 52 52 45 53 49 50 51 47 44 52 51 49 50 51 53 55 56 57 55 50 49 50 52 52 53 54 55 56 57 59 59 58 58 59 61 63 66 66 65 64 67 70 72 73 74 75
58 53 50 54 57 58 57 53 51 51 48 51 53 49 44 43 41 41 47 47 52 57 58 55 49 46 46 48 48 51 53 55 57 58 58 60 60 56 56 57 59 60 62 62 63 63 66 69 71 71 72 74 76 73
48 55 52 47 54 54 56 58 54 58 53 52 53 53 46 47 45 46 48 47 51 51 49 49 49 49 49 49 50 52 54 57 59 59 60 61 59 59 59 60 61 62 61 63 65 68 70 71 73 74 76 75 73 72
38 47 53 52 48 54 53 51 57 58 59 55 55 55 54 56 57 54 52 51 51 52 51 49 49 50 50 51 54 57 58 58 59 59 59 56 56 58 59 61 61 61 64 66 67 69 71 72 73 73 71 71 73 71
40 43 47 51 50 50 53 54 52 52 49 50 52 55 53 56 57 53 53 57 58 57 56 56 57 55 54 55 56 57 57 58 58 56 53 53 56 59 60 59 60 62 64 66 69 70 72 73 71 69 70 70 68 65
41 42 43 40 46 48 49 46 51 55 59 58 56 56 57 57 57 57 58 57 55 58 61 60 59 57 54 54 54 54 53 54 52 51 53 55 57 58 56 58 62 64 66 67 68 69 67 66 67 65 65 64 63 62
33 36 41 41 34 40 45 52 49 46 51 61 61 58 57 60 63 64 64 62 60 60 59 59 56 52 49 49 49 49 50 50 50 53 55 57 57 57 59 62 64 64 65 66 64 63 64 64 63 61 60 60 61 59
35 36 40 40 36 31 35 39 44 48 47 47 44 44 44 45 48 50 52 52 50 48 46 45 44 46 48 49 49 49 50 52 55 57 59 59 58 59 61 62 63 64 62 59 59 61 61 60 58 58 58 57 53 50
36 30 32 37 41 40 33 32 33 37 41 41 43 43 43 45 45 44 45 44 42 44 45 45 46 47 48 49 48 51 54 57 60 60 58 57 57 58 60 60 60 57 56 58 59 58 56 55 54 54 51 49 45 45
30 23 26 30 35 36 37 40 38 36 34 34 35 38 41 43 45 46 45 46 46 47 48 47 49 48 46 50 53 57 60 60 56 53 53 54 56 57 57 55 54 55 56 57 56 54 52 49 47 47 46 45 42 39
33 25 26 28 28 28 33 34 34 37 39 38 40 41 41 43 44 45 46 46 46 47 48 48 46 47 50 54 55 54 52 52 52 51 52 52 52 51 51 53 55 55 55 54 52 51 46 41 42 43 43 42 40 36
36 35 37 39 32 28 29 25 26 29 31 34 36 38 39 41 43 44 44 45 45 45 45 44 47 50 49 47 47 47 47 49 50 51 49 45 46 49 52 55 55 54 52 49 48 43 39 39 41 43 42 41 39 36
30 30 31 29 31 32 32 31 30 30 31 33 35 37 39 40 40 41 41 41 41 38 42 45 43 42 43 43 44 46 47 47 46 46 47 49 50 51 51 53 52 48 48 47 43 38 37 41 43 44 41 39 39 36
21 19 21 22 22 24 24 25 27 30 32 33 35 36 36 37 35 34 34 33 32 36 38 37 38 39 39 39 40 43 45 45 47 49 51 52 51 52 52 51 49 46 44 41 40 39 40 43 43 41 39 38 38 35
19 21 22 23 24 25 26 31 33 31 30 30 29 26 26 27 28 29 28 29 31 33 34 34 34 35 38 40 43 45 47 49 49 49 51 52 52 51 49 44 42 41 41 41 41 40 40 40 39 38 37 36 35 32
18 17 17 17 18 18 17 20 21 21 22 25 27 28 29 30 29 27 25 26 28 29 31 33 35 37 40 43 46 48 50 51 50 49 48 52 50 46 41 38 36 35 36 36 34 34 35 34 31 30 30 29 29 30
14 15 19 20 21 21 22 24 26 27 28 29 30 30 30 30 29 28 25 27 29 30 33 35 37 41 44 48 50 53 55 55 52 49 46 46 44 40 35 32 32 33 34 35 35 33 32 30 26 27 29 32 34 36
16 18 20 23 24 25 26 27 28 29 29 28 26 26 27 28 28 28 31 33 35 37 39 43 46 49 49 50 54 56 56 52 48 45 43 40 39 38 36 35 35 34 34 34 34 33 30 29 32 34 36 37 40 41
21 22 23 24 24 24 24 25 25 26 27 28 29 29 31 32 34 37 39 41 43 46 49 50 52 54 54 52 48 44 43 43 42 41 39 38 38 36 35 35 36 37 38 38 37 37 38 39 41 41 42 42 44 44
21 21 21 23 24 23 22 24 25 28 30 31 32 32 36 40 42 44 47 49 51 52 51 50 49 49 49 48 46 43 41 40 38 37 34 32 33 34 33 34 36 38 38 39 40 41 42 43 44 44 46 46 45 44
18 19 19 19 20 21 24 28 28 31 32 35 37 40 42 46 49 48 45 45 47 49 50 51 51 50 48 46 43 42 39 38 35 32 32 33 34 35 37 40 42 41 42 42 41 42 43 44 45 46 46 46 45 43
20 21 23 24 25 29 33 34 35 36 37 38 40 41 40 41 42 41 41 42 43 45 47 53 55 49 45 40 36 36 36 34 34 35 37 37 38 39 41 42 42 41 40 39 40 42 44 44 44 44 43 42 42 42
29 30 31 32 32 33 33 32 32 31 32 35 37 37 37 38 38 38 39 41 42 43 46 45 40 31 26 30 33 33 34 34 34 36 38 40 42 42 43 42 40 40 40 40 43 42 41 42 44 45 45 44 44 45
32 34 35 35 35 32 31 31 31 30 30 31 32 34 36 38 39 40 41 41 41 40 41 40 36 32 29 27 28 31 33 35 37 38 40 41 42 42 43 43 44 44 45 45 43 42 45 47 45 43 43 44 46 46

GFSWCAN_500_spd_015.txt.gz
Wind_Speed
36 36 43 36 39 43 43 42 41 37 34 33 34 33 32 32 33 34 33 34 35 33 33 34 34 33 32 31 31 30 31 30 30 31 31 31 32 33 35 36 37 38 39 41 46 47 48 43 41 40 39 41 47 49
37 32 35 43 37 38 42 41 40 38 37 34 34 34 34 35 35 35 35 34 34 35 34 34 34 33 33 33 32 34 33 33 34 34 35 36 36 37 38 38 38 37 39 42 49 46 42 45 44 46 46 48 51 56
41 31 30 38 41 38 38 39 41 38 37 37 35 35 34 36 36 37 37 37 36 36 37 37 36 35 35 35 36 36 36 37 38 39 40 40 41 39 40 41 41 37 41 46 50 42 43 41 45 47 48 52 55 58
40 36 36 34 40 43 38 38 39 39 39 36 37 36 35 35 37 38 38 37 38 39 40 39 39 39 39 39 39 40 40 41 41 42 42 43 42 43 42 43 44 37 43 50 53 48 48 44 47 51 54 57 58 60
47 42 42 37 35 35 37 40 43 40 39 39 37 38 38 36 36 37 38 38 39 40 41 40 40 40 41 41 41 41 41 42 42 42 43 43 45 44 46 48 44 40 44 53 56 51 48 50 53 54 56 59 61 63
53 48 45 42 37 35 33 35 42 41 39 41 40 40 39 40 38 37 39 39 39 40 40 42 41 41 41 41 42 43 43 42 43 43 44 45 45 45 51 49 43 43 50 55 53 51 51 53 55 57 58 60 63 66
48 50 50 46 44 39 39 37 39 40 39 41 39 41 40 41 42 42 41 38 38 39 40 41 41 41 39 40 40 42 42 42 43 45 47 45 45 49 52 48 46 51 52 52 51 52 54 56 56 59 62 64 66 67
46 50 53 51 47 45 43 40 40 43 41 40 40 40 42 42 43 45 44 43 43 43 43 46 46 42 39 40 43 44 44 45 46 46 47 46 48 49 53 49 52 51 51 51 52 53 55 58 60 63 65 65 67 69
56 49 52 54 53 52 47 46 42 42 41 40 40 39 41 43 44 45 45 46 45 46 47 49 46 44 44 43 44 45 46 47 49 49 48 48 51 51 48 49 50 49 50 52 54 58 59 61 63 64 64 65 67 68
54 59 51 53 56 57 53 49 46 43 44 46 47 47 46 43 44 47 48 48 47 47 48 47 45 46 46 47 46 46 47 48 50 50 51 54 54 53 49 50 50 50 53 56 59 61 62 62 63 63 64 65 66 68
46 52 56 47 51 56 56 51 47 45 44 41 41 45 41 41 46 51 51 50 46 44 44 42 44 47 46 46 47 49 50 52 52 54 56 57 54 47 49 51 52 55 58 60 62 61 62 62 61 63 64 66 68 70
51 50 47 49 48 46 52 58 54 52 49 46 44 44 44 46 47 48 50 49 46 44 41 39 39 44 48 50 54 54 49 52 53 53 53 54 49 50 53 54 57 59 61 62 63 63 61 61 63 64 65 67 69 70
35 47 52 50 48 46 43 43 53 57 54 46 42 45 50 53 54 59 58 54 50 47 46 41 45 49 49 48 49 47 51 52 53 54 55 55 54 58 59 60 62 63 64 64 63 61 60 61 63 65 66 67 68 67
20 24 33 45 51 51 48 46 45 46 47 50 47 52 59 57 60 62 57 52 52 49 50 51 53 54 52 52 53 54 55 56 57 57 56 60 62 62 63 63 65 63 61 61 60 60 61 62 64 66 67 67 65 63
23 23 23 27 34 46 54 54 50 47 49 51 52 55 57 61 62 61 60 58 57 57 56 56 56 55 54 55 55 57 60 63 63 62 61 62 63 63 64 62 59 60 61 60 59 61 62 63 64 64 64 62 62 62
24 25 27 27 25 27 36 49 54 54 51 53 56 54 54 54 53 55 60 56 56 59 55 53 56 60 63 60 58 60 62 63 61 60 61 61 60 57 54 54 56 58 58 59 60 62 62 63 63 61 60 59 60 60
26 28 28 29 30 30 30 33 44 53 56 54 52 55 53 50 50 50 51 52 55 55 54 53 53 52 53 54 54 53 53 54 56 56 54 50 49 51 54 57 57 57 58 60 61 61 61 61 60 57 56 57 57 56
31 32 32 32 32 32 34 35 36 43 49 52 52 51 50 49 48 48 47 46 46 47 47 46 47 49 50 50 49 50 49 48 47 46 48 50 53 56 55 55 56 57 58 59 59 58 57 56 55 56 56 55 54 52
36 36 36 34 33 34 35 36 37 38 39 45 48 50 52 51 49 46 44 44 44 43 44 46 48 47 47 49 49 50 48 47 47 49 51 53 54 55 56 57 57 57 57 57 56 54 54 55 55 55 55 54 52 50
37 37 35 32 31 32 32 31 28 32 36 34 36 40 43 46 45 43 42 40 38 37 37 38 40 44 46 44 43 43 44 46 48 49 52 53 55 56 56 56 55 55 55 54 53 53 53 53 53 53 52 50 48 46
35 35 32 30 28 28 27 29 31 27 26 26 27 28 29 30 31 32 33 34 35 35 36 37 39 39 38 39 41 42 45 47 48 50 52 53 54 54 53 52 53 52 51 51 51 51 52 52 50 49 45 42 41 40
35 36 29 29 28 25 24 24 28 32 33 30 31 32 32 32 31 30 30 32 32 33 35 37 40 42 43 44 45 45 46 47 48 49 50 50 50 49 49 50 51 51 52 52 54 52 50 47 44 42 39 36 34 35
36 33 28 34 29 24 23 24 22 23 20 17 17 18 20 22 24 26 28 31 37 40 42 45 46 47 48 47 44 43 44 45 45 46 46 47 48 49 50 51 53 55 54 54 54 49 42 38 38 37 35 34 32 32
36 33 32 31 30 27 22 23 25 26 28 28 25 26 25 26 29 33 37 42 44 44 42 40 39 38 38 40 41 42 42 43 44 45 46 48 50 52 54 56 58 57 57 54 49 45 38 34 34 35 34 34 33 34
26 32 37 31 30 32 31 30 28 27 22 21 23 25 29 33 36 38 33 32 31 32 34 35 37 38 39 40 40 40 42 44 47 49 50 53 56 59 60 61 60 58 54 50 47 44 36 33 34 34 34 34 34 35
37 34 33 28 23 20 16 13 14 17 21 25 28 31 34 34 33 31 32 36 37 37 37 36 35 35 37 39 41 44 47 49 51 53 55 58 59 61 61 60 57 52 50 48 45 42 36 33 32 31 31 33 36 39
14 11 10 9 10 11 15 19 22 24 24 25 26 29 31 34 34 34 35 37 37 37 37 38 40 41 42 44 46 48 50 51 52 52 53 55 57 59 62 65 59 51 47 46 43 40 35 32 32 33 34 37 39 40
14 13 13 13 14 17 19 21 22 24 26 29 31 33 35 34 33 34 36 38 39 39 40 40 41 43 45 47 46 45 46 47 49 50 50 52 55 57 60 52 45 41 40 39 39 37 34 33 34 35 37 38 40 42
17 17 18 18 19 21 23 26 28 31 33 34 34 35 35 35 35 35 35 36 37 39 42 45 48 48 45 45 46 46 47 48 48 48 49 50 50 49 41 32 30 32 33 34 35 35 35 36 37 38 39 41 43 44
20 20 21 22 25 26 29 31 32 33 33 32 33 34 35 36 37 39 40 42 42 43 45 45 45 46 46 45 46 47 47 48 48 49 49 49 47 44 37 32 31 31 32 33 33 35 37 40 41 42 43 44 45 46
21 23 25 27 28 29 31 32 34 35 36 37 38 39 41 42 40 39 41 42 43 44 45 45 45 45 45 46 46 47 48 49 50 50 49 47 46 44 40 36 36 36 36 36 36 36 37 40 42 44 45 47 48 49
26 28 29 31 31 33 34 35 35 37 39 41 42 43 43 43 41 40 40 42 43 45 45 44 44 45 46 48 49 50 51 51 51 51 51 50 47 44 42 40 39 39 38 37 38 39 38 40 43 46 48 50 51 53
25 26 28 32 34 36 37 38 36 35 34 34 35 37 38 38 38 40 42 42 42 43 44 45 46 48 50 51 52 53 54 55 54 53 52 51 50 48 46 44 43 42 42 40 39 41 43 45 47 49 52 52 53 52

GFSWCAN_500_spd_018.txt.gz
Wind_Speed
40 45 48 54 45 46 45 43 41 38 36 34 33 31 31 32 33 34 35 36 38 38 37 37 35 36 34 35 32 33 33 33 32 32 31 31 33 33 34 36 36 38 39 40 42 43 46 48 49 50 48 45 47 46
41 39 41 44 47 45 45 45 42 40 36 35 33 33 31 30 32 33 34 35 36 37 37 38 37 38 38 37 35 32 36 33 35 34 33 34 35 36 36 38 41 43 40 43 44 44 46 49 53 53 53 50 49 50
44 39 38 45 39 43 44 45 44 42 38 35 33 32 32 32 31 32 33 35 35 35 37 38 37 36 37 37 36 36 36 37 36 36 37 38 39 39 40 41 42 44 40 44 48 45 46 48 50 54 53 51 52 54
36 40 31 40 44 37 42 43 43 41 39 37 34 33 32 32 32 33 33 35 36 35 37 37 37 37 38 38 38 37 38 39 39 39 41 42 42 43 42 43 45 40 41 42 47 47 51 51 55 56 53 52 55 56
40 35 32 31 42 41 37 40 43 41 40 37 36 34 34 33 33 34 35 36 36 37 37 37 38 38 39 40 40 40 41 42 43 44 44 45 45 45 45 47 44 37 41 44 46 50 51 55 56 55 52 53 54 58
44 42 31 30 32 39 37 33 36 37 38 38 36 34 33 34 35 35 36 37 36 37 38 38 38 39 40 40 41 43 44 44 44 46 46 46 45 46 48 49 42 41 42 45 47 53 56 57 56 53 53 55 59 62
40 39 41 35 33 33 35 39 36 34 33 37 37 37 36 35 36 38 36 33 34 36 38 40 40 40 41 40 40 42 42 42 43 46 44 43 43 49 51 50 41 43 45 49 51 53 55 53 52 53 57 60 63 64
40 42 38 38 38 37 37 35 33 34 36 40 39 38 38 37 38 39 39 39 39 38 37 40 41 38 36 37 38 40 39 41 43 44 46 45 47 50 54 44 44 46 50 52 55 57 54 52 53 57 60 62 63 66
43 41 44 41 39 42 39 37 34 32 30 33 37 39 38 38 39 39 40 40 41 43 43 44 43 42 40 39 40 42 42 43 47 48 47 49 51 52 47 47 49 52 52 56 56 54 53 54 57 60 62 64 66 67
46 43 40 42 47 45 44 39 38 34 34 32 33 37 39 37 38 40 41 42 43 45 46 46 45 46 44 44 43 44 45 46 49 48 49 51 52 49 48 48 51 55 55 52 52 54 57 59 61 64 65 66 66 67
41 45 47 42 40 45 48 45 42 41 39 39 37 35 36 36 39 43 43 43 42 41 41 43 45 46 45 45 44 45 46 48 49 49 53 53 52 48 48 49 50 53 54 55 56 59 61 64 66 66 65 64 64 65
43 41 44 48 47 45 46 48 47 47 47 42 40 40 39 42 45 48 48 47 45 46 43 42 43 44 42 42 46 47 49 47 47 49 52 52 51 49 48 51 53 53 56 60 64 66 67 66 65 63 61 63 65 67
37 45 43 45 49 52 47 46 49 49 49 45 41 41 39 42 46 50 47 44 43 40 38 35 35 37 42 44 47 47 49 50 51 52 52 52 49 51 54 58 60 61 61 62 65 67 66 64 62 61 62 64 67 68
24 34 42 49 46 45 48 50 44 44 47 51 50 46 43 45 47 49 53 51 48 47 45 47 49 50 50 50 48 49 53 55 58 57 54 54 56 58 60 63 63 63 64 64 63 65 62 58 59 62 64 65 66 66
16 17 22 31 43 49 47 45 45 46 42 44 50 51 50 49 49 50 53 54 54 56 54 54 55 55 54 54 53 54 57 57 57 56 58 60 62 63 63 63 63 63 63 63 60 57 57 60 62 63 63 64 64 64
18 19 19 18 20 25 33 43 49 48 47 46 46 48 51 49 49 49 49 51 56 58 57 55 53 55 57 57 59 60 60 60 60 61 62 62 61 59 60 61 61 60 57 56 57 60 61 61 62 62 62 63 63 62
19 19 19 21 23 23 23 24 30 41 52 52 50 51 49 49 51 53 52 50 47 46 46 49 50 48 50 52 55 57 55 56 58 57 56 56 56 56 54 53 52 53 56 58 58 59 60 61 62 62 61 61 61 61
24 23 22 22 23 26 27 28 28 27 29 36 45 49 51 54 51 49 53 48 42 41 41 40 42 43 45 47 48 50 51 52 52 51 51 51 51 52 54 55 55 54 55 56 59 59 60 61 60 59 58 59 60 61
29 29 28 28 28 28 29 30 30 30 30 31 33 36 43 46 48 47 45 44 42 40 40 43 44 45 46 45 44 44 46 48 49 50 50 49 49 50 52 55 56 56 56 57 58 58 57 56 56 57 59 60 60 58
36 35 34 34 33 32 33 33 33 33 32 33 35 36 36 37 39 43 47 49 49 46 47 44 46 45 45 44 43 43 44 45 46 47 49 52 55 56 53 52 52 53 53 54 53 53 53 53 54 56 57 56 53 52
41 39 38 36 35 35 34 33 32 31 30 29 30 30 31 32 31 30 30 31 34 34 36 34 31 30 30 30 33 37 40 42 44 46 48 49 49 48 48 49 50 50 51 51 51 52 54 55 56 55 54 51 50 48
40 37 35 34 34 32 30 29 27 26 28 25 25 24 25 25 26 29 28 28 26 26 26 28 30 32 36 38 40 42 44 46 47 47 46 45 45 45 45 46 47 49 51 53 55 56 57 58 56 55 51 49 48 45
36 34 32 29 26 27 26 23 23 24 26 29 30 29 27 22 19 18 20 21 23 26 29 33 37 40 43 45 45 43 42 41 40 41 43 44 44 45 46 48 51 53 55 56 58 61 61 61 59 54 49 47 44 41
23 22 33 31 27 27 23 23 22 22 22 22 21 20 19 21 22 24 24 26 29 33 38 43 44 43 42 41 41 42 41 43 44 45 45 46 47 48 51 54 55 58 61 62 62 63 63 62 58 51 46 43 41 40
24 26 34 37 35 30 29 24 20 19 21 24 23 25 27 25 23 25 29 33 37 38 38 39 40 40 41 42 45 46 44 43 44 45 47 50 52 54 55 57 58 57 58 59 59 61 65 65 56 48 43 40 39 37
17 27 37 30 34 32 27 28 28 31 32 29 23 19 21 24 28 32 35 35 36 38 40 42 43 44 45 44 44 44 45 47 48 49 50 54 57 58 56 55 54 53 53 55 57 60 59 48 42 40 38 38 37 35
19 23 25 23 26 31 28 24 20 17 15 18 21 24 26 29 31 33 36 38 42 44 43 42 42 43 44 45 47 49 50 49 50 52 53 52 51 51 52 52 51 51 53 54 54 53 46 36 33 34 36 36 36 35
20 22 20 17 12 10 11 13 15 17 20 23 25 28 30 31 34 38 40 41 42 43 43 44 44 45 45 46 46 47 50 50 48 48 49 49 49 50 52 52 52 53 53 52 50 47 41 36 34 34 35 35 36 38
8 8 10 12 13 16 18 19 21 23 25 27 30 33 36 39 41 43 42 41 41 42 42 43 45 46 47 47 49 48 48 48 49 48 49 50 51 53 54 55 55 55 53 50 48 45 43 38 36 37 36 36 37 41
13 15 17 20 21 23 25 27 29 31 33 36 39 41 41 40 41 42 43 43 44 45 47 47 47 48 50 50 49 50 50 51 51 51 51 53 54 54 55 55 55 55 54 52 48 44 42 42 40 40 39 38 39 41
21 23 24 26 27 29 31 34 36 37 37 38 40 41 40 40 42 44 46 47 48 49 49 49 48 48 48 50 51 51 51 52 53 54 55 56 57 57 57 56 55 54 52 51 49 48 44 42 42 40 40 40 40 42
22 24 26 28 30 32 34 34 34 34 35 37 39 42 44 45 43 42 42 43 44 45 45 45 46 48 49 50 50 51 52 53 53 54 55 55 56 57 58 58 58 57 55 53 50 48 46 43 40 38 40 41 42 44
25 26 28 29 30 32 35 37 38 38 37 37 37 38 40 42 42 42 43 43 44 45 46 46 47 48 49 50 50 50 51 51 50 50 52 53 55 57 58 59 59 58 55 53 51 48 46 45 43 43 44 43 45 47

GFSWCAN_500_spd_021.txt.gz
Wind_Speed
44 45 53 49 49 48 47 43 41 38 35 33 31 31 32 33 38 40 42 42 41 40 40 41 39 38 36 35 31 30 31 30 31 32 32 31 33 33 34 33 32 35 36 36 39 41 42 44 47 46 44 46 47 49
43 41 49 53 47 47 46 44 42 39 36 34 33 30 30 31 33 35 38 41 42 41 41 42 41 41 38 38 35 34 35 33 36 34 33 35 36 35 34 36 36 38 39 40 41 42 42 48 50 49 48 49 49 53
37 38 44 51 46 46 45 45 43 41 37 35 32 33 29 30 31 33 35 36 38 39 41 42 40 40 41 41 38 37 37 37 36 34 36 38 38 37 37 37 40 41 42 43 44 45 46 51 51 50 50 51 53 55
38 42 40 47 50 43 46 46 44 42 39 36 35 33 33 32 29 30 32 34 34 35 37 38 38 39 40 40 39 38 38 38 38 38 39 39 39 40 40 41 43 39 43 42 45 45 49 51 51 53 51 52 55 54
33 34 36 39 41 52 43 45 44 43 41 39 37 34 34 33 33 31 30 31 33 34 35 33 35 36 37 38 38 37 37 39 39 38 38 39 41 41 43 44 43 37 40 40 45 47 46 49 52 50 52 56 57 53
30 33 34 32 37 39 46 40 43 43 42 40 39 37 35 33 33 33 34 33 30 31 33 32 32 33 36 37 37 37 37 37 37 39 41 43 41 43 46 46 41 37 37 41 46 46 49 52 52 53 56 57 54 54
36 31 32 32 29 40 34 39 41 40 40 40 39 37 37 35 34 34 33 31 31 31 32 34 34 35 36 36 35 36 36 37 39 41 42 41 40 43 45 45 38 39 43 47 46 48 50 51 52 55 57 54 54 58
42 42 34 27 27 31 38 37 33 36 39 39 39 37 36 35 33 33 32 32 32 33 34 36 35 33 32 33 35 35 35 36 38 39 41 39 40 43 47 40 41 43 46 48 48 51 52 53 55 55 55 55 58 63
43 41 39 36 31 29 33 38 40 32 32 34 33 32 35 36 35 34 33 32 33 34 35 36 36 35 33 33 34 35 36 37 40 40 41 44 46 47 43 44 45 46 46 47 51 53 53 52 54 56 59 62 66 69
43 45 42 39 38 35 33 36 35 35 36 34 34 35 36 36 35 36 36 35 34 36 39 38 37 38 37 37 38 39 40 41 44 44 46 48 49 46 43 46 46 48 51 54 53 52 51 52 55 58 61 64 67 70
30 40 43 41 40 37 36 36 35 37 35 33 31 29 26 28 33 34 36 35 36 38 40 37 35 35 37 39 39 40 43 45 47 47 48 49 47 41 40 42 45 48 48 47 49 53 56 59 62 64 65 68 68 69
31 34 38 40 42 41 38 38 40 40 38 37 34 31 31 31 32 35 35 35 35 34 35 33 33 35 37 38 42 44 44 45 47 45 46 46 44 43 44 47 50 50 49 51 54 56 60 62 63 65 67 67 67 65
34 35 35 36 40 41 40 42 44 43 42 40 38 37 36 36 37 38 37 36 35 35 35 36 36 36 35 36 38 38 41 43 44 48 50 49 48 48 51 54 54 54 53 56 59 63 64 65 64 66 66 65 62 63
28 33 38 39 40 41 44 41 41 41 41 43 43 44 42 42 43 42 41 39 40 39 40 40 39 41 40 41 44 46 47 47 50 52 52 52 52 54 56 58 58 59 60 62 63 64 63 63 65 62 59 60 62 64
17 21 26 34 39 42 43 43 47 46 45 44 42 42 45 45 45 45 43 43 43 44 44 45 46 47 48 48 48 50 53 54 53 54 56 59 60 59 59 60 60 60 61 62 61 62 63 62 58 58 60 62 65 67
12 12 14 18 26 35 41 44 44 43 44 46 47 46 44 44 46 48 47 45 45 46 47 48 50 52 53 55 57 54 53 53 54 56 57 58 60 59 58 58 59 59 58 60 61 60 58 58 59 60 63 66 66 65
13 14 14 15 16 18 21 27 35 42 46 46 44 44 47 48 46 45 46 50 52 49 47 45 44 44 46 47 47 48 48 51 52 53 51 48 48 50 52 54 56 56 54 53 55 56 58 61 63 62 62 61 61 60
17 17 17 16 16 17 18 19 20 21 23 27 34 43 49 49 48 48 47 47 48 49 49 50 49 47 43 41 42 44 45 47 48 48 49 50 50 51 51 51 52 52 53 56 59 61 60 59 58 58 58 56 56 57
22 22 21 21 21 20 20 20 20 21 23 25 26 26 28 31 37 41 44 45 44 43 45 40 38 38 39 40 41 42 43 45 46 47 48 49 51 51 52 53 56 58 57 56 56 56 55 54 53 53 54 56 56 56
28 28 27 27 26 26 26 25 25 25 26 27 27 28 28 28 29 30 31 31 32 35 37 41 44 43 43 44 45 45 45 46 47 47 46 47 45 44 47 49 51 52 52 51 51 51 51 50 51 54 56 57 57 56
35 34 34 34 33 33 33 31 32 31 31 30 30 30 30 31 30 29 29 28 28 27 29 29 27 28 27 28 30 29 32 35 37 37 39 43 45 47 48 48 48 48 48 49 50 50 51 54 55 55 56 56 56 57
41 41 40 40 40 39 38 36 34 33 32 31 30 30 28 26 23 22 22 23 25 26 25 23 23 24 26 28 32 34 36 39 44 45 44 42 42 43 44 46 48 48 48 49 51 54 55 54 55 55 57 57 58 60
48 46 45 43 40 40 37 34 33 31 30 28 27 26 27 25 25 26 25 21 18 17 20 21 25 30 33 36 40 42 41 40 41 42 42 43 44 45 45 46 48 51 52 53 56 56 57 57 57 58 57 57 58 62
47 44 41 39 37 34 31 29 27 25 21 20 20 20 21 22 21 18 18 20 22 23 25 28 32 36 39 40 39 39 41 42 44 45 46 45 45 46 48 50 53 56 57 57 58 58 56 56 56 55 54 55 56 55
34 29 30 30 31 30 29 24 19 23 18 19 18 18 19 20 22 24 25 24 25 28 31 33 36 39 40 41 43 43 45 46 45 46 48 50 51 51 53 54 56 57 60 60 57 55 54 53 52 52 52 52 51 47
30 19 25 27 23 30 27 25 23 21 25 23 21 21 25 29 29 27 23 27 29 31 35 37 39 41 42 45 47 46 46 47 49 51 52 53 53 54 55 57 57 56 56 55 53 52 52 52 52 52 51 50 47 42
8 12 17 17 19 23 20 25 25 24 25 29 30 26 23 19 20 25 28 30 34 36 39 41 43 45 45 46 48 49 49 49 49 51 54 54 53 55 54 53 53 52 52 52 53 53 54 54 54 53 51 49 46 42
9 5 7 10 15 20 19 22 26 27 21 15 16 19 22 25 28 31 34 36 39 41 42 43 45 47 47 49 49 48 49 51 51 52 55 55 53 52 53 54 54 53 54 55 56 57 58 57 56 53 52 50 46 42
13 15 17 16 13 11 9 9 11 14 17 20 23 26 28 31 35 38 40 42 44 45 47 48 49 50 51 51 51 51 52 53 53 52 52 54 54 55 56 56 57 57 58 58 59 60 59 58 56 54 51 48 46 43
7 7 8 9 10 13 16 18 21 23 26 28 30 32 35 38 40 42 44 46 48 48 49 50 52 53 52 52 53 52 51 51 49 50 51 53 54 54 55 55 55 55 55 56 56 56 58 58 58 56 52 48 45 42
13 15 16 18 20 22 24 26 28 31 33 35 38 40 42 44 45 45 46 47 49 51 50 49 49 49 49 49 48 49 50 50 51 51 52 52 53 53 53 53 53 54 56 58 60 59 58 57 56 54 50 46 44 41
21 22 24 25 27 29 31 33 35 37 39 41 42 43 44 45 45 45 45 45 46 47 48 49 50 50 50 50 50 50 51 51 51 51 51 50 49 47 47 48 51 54 56 57 56 54 50 48 45 43 43 42 40 39
24 26 28 30 32 34 36 37 38 38 38 39 39 38 38 40 39 40 42 44 46 48 50 52 52 52 52 51 50 50 49 48 48 46 44 43 42 43 46 48 49 50 51 52 50 47 44 40 37 34 34 35 36 36

GFSWCAN_500_spd_024.txt.gz
Wind_Speed
45 50 50 57 56 53 50 46 43 39 37 37 39 38 41 45 49 49 47 45 44 43 42 41 39 37 35 32 31 30 30 28 29 28 30 31 33 33 32 32 31 34 36 34 36 36 39 40 42 42 42 44 46 47
39 52 59 59 56 52 49 45 43 39 35 36 36 38 38 42 45 45 45 45 44 43 43 42 42 40 38 37 36 37 36 34 35 33 33 34 35 36 36 36 34 35 37 37 37 38 40 43 44 44 45 48 48 48
51 56 57 56 55 51 48 44 40 39 37 34 33 34 35 36 38 40 42 43 43 43 44 44 43 42 42 41 40 41 40 41 39 38 37 36 36 35 37 37 38 36 39 39 39 38 41 43 43 46 52 52 50 50
39 48 58 53 51 51 48 45 41 37 36 35 33 31 31 31 33 34 35 37 40 41 42 43 43 44 43 43 43 43 43 42 41 40 39 38 39 39 38 39 41 37 41 40 42 42 45 44 48 52 53 53 52 53
36 39 42 55 48 49 46 46 43 40 37 34 33 33 31 29 28 29 30 31 33 35 36 36 39 40 41 42 42 42 43 41 38 37 37 37 38 39 40 41 38 34 36 40 41 42 44 47 50 52 52 51 53 54
35 36 39 47 52 43 44 43 43 41 40 38 35 33 32 31 31 31 28 27 27 29 31 32 33 35 36 37 36 35 34 35 36 36 37 37 35 37 41 39 33 29 34 38 39 40 42 45 49 50 51 52 53 54
31 32 30 36 42 51 40 41 43 42 41 40 38 36 34 33 32 32 32 30 31 30 30 31 31 32 33 32 32 32 32 33 34 36 36 36 35 38 40 39 30 36 37 38 40 42 46 49 50 50 51 52 53 54
28 28 29 27 31 37 46 44 36 40 41 40 40 39 38 36 34 33 31 31 32 33 34 35 33 29 29 30 32 32 32 34 35 35 36 34 37 39 42 33 37 39 41 43 45 46 48 50 52 53 54 54 54 56
28 24 22 23 25 28 31 34 46 38 37 40 40 39 38 37 35 34 34 33 33 34 34 33 32 29 28 29 30 31 32 34 36 37 37 40 41 42 39 41 43 44 46 46 45 45 46 47 48 48 49 53 57 61
40 36 31 27 23 25 28 36 34 40 45 40 39 38 37 36 34 34 34 34 34 35 35 33 31 32 31 30 31 33 34 37 40 41 43 45 46 43 42 43 43 44 45 46 46 45 46 50 50 51 55 58 61 64
42 41 38 34 32 28 25 27 34 37 36 34 34 35 33 34 34 33 35 35 35 36 35 34 32 31 31 32 30 31 34 38 41 42 43 45 45 42 42 40 41 42 44 46 48 50 51 52 53 55 60 62 64 66
43 43 39 38 36 35 33 30 29 30 34 36 34 31 32 33 34 36 36 36 35 35 34 30 29 30 30 31 34 36 35 37 40 40 41 42 38 38 38 41 45 47 47 47 50 52 54 56 58 60 62 64 65 64
33 42 41 42 40 39 39 36 34 32 33 33 35 36 35 34 36 35 34 33 30 28 27 27 29 32 34 35 37 39 41 42 40 41 42 42 43 43 45 47 49 50 51 53 55 57 58 60 62 63 64 62 64 67
27 31 38 36 42 42 41 40 39 37 35 36 35 37 39 41 41 39 38 37 35 35 36 37 38 38 37 37 39 41 43 44 47 48 48 49 50 53 55 56 55 55 57 57 57 59 61 61 60 60 62 65 62 61
28 29 30 30 32 37 41 41 40 39 42 43 42 42 44 43 43 42 42 44 44 44 44 44 45 45 44 44 44 45 46 48 50 52 53 54 56 56 55 55 56 57 57 58 58 57 56 57 60 62 60 59 60 65
21 25 28 31 33 35 38 38 37 38 39 40 43 42 43 42 42 43 44 44 46 47 48 49 50 51 50 49 48 46 46 47 48 48 49 49 51 52 53 55 56 56 54 52 53 56 60 61 58 56 60 64 64 64
12 13 16 19 23 28 32 36 38 40 41 41 40 42 43 44 44 44 45 45 46 47 49 51 51 51 51 49 47 46 44 42 44 48 51 50 49 47 45 45 46 48 53 56 56 56 55 57 61 63 60 61 62 60
13 12 12 12 12 13 15 17 20 23 27 31 34 39 42 43 44 44 44 45 46 48 49 49 50 49 49 50 47 45 41 40 43 45 45 45 45 46 47 49 50 51 50 53 57 58 57 57 58 59 59 58 56 55
14 14 14 14 14 13 13 13 13 14 15 17 18 20 22 24 27 30 34 38 42 45 47 47 49 48 46 43 40 39 39 41 41 41 42 44 46 48 51 53 55 56 54 52 54 56 57 57 55 55 54 54 53 54
17 18 19 19 19 19 19 19 19 19 20 21 22 23 23 24 25 26 27 28 30 32 32 32 34 34 35 37 39 41 42 43 42 41 38 38 38 40 43 45 47 49 50 51 52 51 51 51 52 53 54 55 58 57
22 23 23 24 25 25 25 25 26 26 27 27 28 28 29 31 31 32 32 33 33 33 33 31 29 27 29 30 31 33 33 34 35 35 36 40 43 47 49 49 48 48 48 49 50 50 51 52 54 56 58 55 56 56
29 29 30 31 31 31 32 32 32 33 33 33 33 33 34 34 34 35 34 32 31 28 26 25 26 27 27 28 28 27 29 33 37 39 41 45 47 48 48 48 48 49 50 51 52 54 55 57 58 57 57 59 57 55
38 38 39 39 39 39 38 38 38 37 36 36 35 34 33 33 33 31 29 27 26 26 25 24 24 24 24 27 29 32 34 37 40 43 45 46 48 49 50 51 52 51 52 54 56 57 57 57 59 61 61 57 55 53
46 46 47 47 46 45 43 42 40 39 37 35 34 32 30 28 26 25 25 25 24 23 22 24 27 27 29 32 34 36 39 42 44 46 48 48 48 50 52 53 55 56 57 57 57 58 60 61 61 59 57 55 54 53
49 49 49 48 47 45 42 39 35 33 32 29 26 24 22 21 20 19 18 20 24 27 28 28 29 31 33 35 38 41 44 47 50 50 51 52 53 53 55 57 58 58 59 59 60 60 60 59 59 57 55 55 55 54
35 36 37 34 32 31 29 28 30 28 26 24 24 21 21 23 22 21 22 25 27 30 31 32 34 36 38 41 45 47 50 51 52 54 54 55 55 55 56 56 57 58 59 59 58 57 56 56 56 55 55 56 57 56
5 9 8 10 13 14 17 18 25 26 24 23 19 21 27 28 27 29 29 27 28 31 33 35 39 42 45 48 50 52 53 54 55 55 56 57 58 58 59 59 58 56 55 56 57 57 56 55 55 55 55 55 56 55
2 5 10 11 10 9 11 11 13 14 18 23 24 25 27 26 24 25 27 29 33 37 40 43 45 48 50 51 53 53 53 55 58 58 55 54 54 53 53 53 53 53 54 56 56 57 57 57 57 56 56 56 56 56
2 6 6 7 9 11 12 14 16 18 20 22 22 20 21 25 29 32 35 38 41 43 46 48 51 51 51 51 53 56 56 55 54 54 55 54 55 55 55 55 55 56 55 56 56 55 54 54 56 58 58 58 57 56
7 9 9 7 8 8 9 10 12 14 17 20 23 26 29 33 36 39 42 45 47 49 50 50 51 53 54 55 54 52 52 52 52 53 54 54 55 54 54 54 54 53 51 49 48 50 54 55 56 56 57 56 52 48
10 10 11 12 14 15 18 19 22 24 27 29 32 34 37 41 43 45 46 48 50 51 51 51 52 51 51 51 51 53 54 55 56 55 54 53 52 51 50 48 46 45 45 47 49 50 51 50 52 52 52 49 45 41
15 16 18 19 21 22 24 26 29 31 34 36 38 40 43 45 45 46 46 47 47 47 48 48 49 50 52 54 55 55 55 53 51 50 49 47 46 44 42 41 42 44 46 46 46 46 47 48 50 50 48 44 39 34
23 24 25 26 28 30 31 33 35 36 36 36 36 36 36 37 39 41 43 46 47 48 49 50 51 52 53 53 53 52 52 51 49 47 45 42 39 37 38 41 43 42 42 42 42 43 44 45 48 48 43 39 33 28

GFSWCAN_500_spd_027.txt.gz
Wind_Speed
44 44 43 42 41 39 42 42 38 34 32 28 33 37 42 46 50 52 51 50 48 45 43 41 40 38 35 34 31 29 28 27 28 27 26 26 28 28 29 31 31 33 36 35 37 39 41 39 40 41 42 43 44 43
40 41 40 38 37 37 44 42 38 34 33 30 30 35 40 44 48 50 49 49 48 46 42 41 41 40 39 37 35 35 33 31 32 32 33 33 35 35 35 36 34 37 37 38 38 38 40 42 43 43 45 45 44 45
37 36 39 41 35 45 43 41 38 35 33 31 33 31 35 40 43 45 46 47 47 45 44 43 41 40 40 39 38 37 37 36 38 38 38 39 40 40 40 39 38 38 38 39 39 37 39 43 45 45 46 47 46 48
39 39 39 42 39 46 45 42 39 37 34 31 33 34 34 35 37 40 42 43 45 45 44 43 42 42 41 41 41 41 41 42 43 43 43 43 43 44 42 43 43 42 38 38 42 40 43 43 44 45 46 46 47 49
41 43 42 42 50 41 44 43 40 38 34 32 31 32 33 33 33 35 37 39 41 43 43 43 43 43 43 43 44 44 43 43 43 43 42 42 43 43 44 45 39 36 36 40 42 42 44 44 43 44 45 48 49 50
31 36 43 55 43 43 44 43 39 37 36 34 31 30 30 30 30 31 32 34 35 38 39 39 41 41 41 42 42 40 39 38 38 38 39 39 36 38 42 41 31 31 37 40 41 41 42 42 44 46 48 49 49 51
29 33 50 58 47 41 45 43 39 36 34 33 32 30 29 28 27 27 26 27 29 30 32 33 34 35 33 32 32 32 33 33 35 36 35 34 33 36 38 37 28 35 36 38 38 40 42 43 46 47 48 48 49 50
25 32 43 55 51 46 45 44 42 39 36 33 32 31 30 29 29 28 27 28 29 30 30 31 29 26 27 28 29 30 31 32 33 34 34 34 36 38 39 30 35 37 39 40 42 44 46 47 48 48 49 49 50 52
27 28 29 38 50 43 43 44 40 41 40 39 37 36 34 33 32 31 30 30 31 32 32 32 31 29 30 29 30 30 32 33 35 36 36 37 38 38 36 37 39 42 44 46 47 46 46 46 47 49 51 54 56 57
28 27 30 27 30 38 46 40 35 40 41 39 38 39 37 37 36 36 36 35 34 34 33 31 29 30 29 28 29 32 33 35 38 38 39 40 40 38 39 40 42 43 46 47 47 45 44 45 46 47 49 54 55 56
30 28 27 28 28 27 29 34 40 44 39 35 37 40 38 38 37 37 38 38 36 36 35 33 31 30 29 30 31 34 37 38 40 41 40 40 39 38 38 39 40 40 39 39 40 43 46 48 49 52 54 55 57 61
33 28 27 28 25 25 25 27 30 37 33 43 43 37 35 36 37 39 38 37 35 35 32 30 30 31 33 34 36 38 38 39 40 39 40 41 41 41 41 41 42 42 43 44 46 49 52 50 53 55 56 58 59 61
40 35 31 29 27 29 28 26 27 30 33 31 31 35 37 39 41 43 41 39 32 32 32 29 29 31 33 35 36 36 38 40 40 43 45 46 45 46 47 47 48 50 52 54 54 55 54 55 57 58 58 59 59 59
39 38 37 37 35 33 29 31 28 27 26 28 32 35 36 38 41 40 37 33 33 34 33 32 33 34 34 36 38 41 43 44 46 48 49 49 50 52 53 55 56 57 58 57 55 55 56 56 57 58 58 58 59 61
40 40 39 38 39 37 35 36 34 32 32 30 30 32 35 36 38 39 38 37 36 37 37 38 39 40 41 42 43 45 47 50 52 53 54 54 56 57 57 55 55 55 54 55 56 57 57 57 57 57 58 60 62 61
34 35 36 41 40 38 39 41 39 37 36 36 38 38 38 38 38 39 40 42 43 44 44 45 45 46 47 48 50 51 51 52 51 50 51 53 54 52 50 51 55 56 57 56 55 54 54 54 56 59 61 61 62 63
30 32 33 33 35 36 35 35 37 39 42 41 41 44 44 47 47 47 48 47 46 46 46 47 47 46 49 50 49 50 51 51 50 49 45 43 46 48 49 50 48 47 49 51 53 56 59 61 61 60 62 60 62 62
19 23 24 24 27 29 31 33 35 36 37 38 39 40 40 42 43 44 44 45 46 48 48 49 51 51 52 52 52 51 50 48 46 44 43 44 46 49 49 48 49 51 54 55 56 57 58 55 56 58 59 60 59 58
15 15 15 15 16 16 15 15 17 18 20 22 24 25 27 29 33 36 37 38 41 43 45 46 48 49 50 51 50 49 46 44 41 41 43 45 46 46 48 49 48 46 46 49 52 55 57 59 60 60 59 58 57 56
13 14 15 15 15 15 14 15 14 14 15 16 16 17 18 19 21 22 24 25 26 27 29 31 34 35 37 38 39 39 38 37 38 40 40 41 41 42 42 42 43 45 49 54 56 56 56 56 57 57 56 57 59 60
17 17 17 18 18 18 19 19 20 20 21 22 23 24 25 27 28 28 30 30 31 33 34 36 38 39 39 39 38 36 34 34 35 36 37 37 38 40 42 45 50 53 57 58 57 57 57 58 58 58 59 59 60 59
20 21 22 23 24 25 26 26 27 28 29 29 30 31 32 33 34 34 35 36 37 37 38 39 40 38 36 34 33 33 34 34 35 35 37 39 41 43 46 49 53 55 56 57 57 58 59 59 60 61 61 61 61 61
26 26 27 27 28 28 28 30 31 32 33 34 35 36 37 37 38 38 38 38 38 38 37 37 35 33 33 33 32 32 33 35 37 38 40 43 46 49 52 55 57 57 58 60 60 60 60 60 61 63 62 61 62 61
36 37 38 38 38 38 38 38 39 40 41 41 40 40 40 39 39 39 37 36 33 33 32 33 33 31 29 28 31 34 35 37 39 42 44 48 51 55 58 60 61 61 61 61 61 61 62 63 64 65 64 62 61 61
44 46 46 46 46 46 46 45 45 45 43 41 39 37 36 36 35 34 31 29 29 28 27 26 25 28 32 35 36 38 40 41 43 46 50 54 57 59 61 62 61 63 63 63 63 62 61 60 59 58 58 59 60 60
47 48 48 49 49 48 47 44 41 37 35 33 34 33 31 29 28 26 23 25 27 26 25 28 31 33 35 37 40 42 44 48 51 54 57 59 61 61 61 61 61 60 61 60 59 58 58 58 58 58 58 57 57 56
8 8 9 15 15 14 12 14 19 20 22 23 26 27 27 26 26 22 23 27 30 32 33 36 38 37 39 41 43 48 52 55 58 60 62 62 61 61 60 59 58 58 59 60 60 59 57 57 56 56 55 53 54 55
6 5 2 2 3 4 6 8 9 8 11 19 23 23 26 26 22 24 29 33 33 35 36 37 38 41 45 49 52 56 58 60 61 61 61 60 58 57 58 59 60 60 60 59 58 57 56 54 53 52 52 53 53 54
5 7 9 6 4 8 10 9 10 9 10 13 17 18 19 24 28 29 30 31 33 36 38 42 46 50 53 55 57 59 60 61 60 57 56 57 58 59 60 61 60 58 56 54 54 53 51 50 50 52 52 52 52 52
5 6 5 6 5 5 7 9 11 12 12 13 14 17 20 24 27 31 35 38 41 44 46 49 52 54 56 57 56 55 54 54 55 56 58 59 59 59 58 57 55 54 52 50 48 46 48 50 51 51 51 50 52 52
10 13 14 13 13 13 14 15 17 19 20 22 24 27 29 32 35 38 41 44 46 48 50 50 50 50 51 51 53 54 56 56 56 56 57 57 57 56 55 52 50 47 43 42 43 45 45 46 46 45 45 48 48 51
16 17 18 19 20 22 23 24 25 26 28 29 31 34 37 40 41 41 41 42 43 45 46 48 50 52 54 55 54 53 53 53 54 55 55 53 51 49 46 42 39 37 39 41 43 45 43 41 40 42 44 45 46 47
23 25 26 27 28 29 29 31 31 33 34 35 35 32 31 33 35 38 41 44 46 48 50 51 50 50 50 50 51 51 52 52 50 48 47 45 43 40 37 35 35 37 40 42 42 39 36 36 37 39 41 43 45 45

GFSWCAN_500_spd_030.txt.gz
Wind_Speed
54 54 49 45 42 41 34 31 30 36 32 31 33 34 37 42 46 48 51 52 50 47 43 40 38 36 35 34 32 30 28 26 24 22 22 22 22 22 22 23 25 29 32 34 37 41 43 41 42 43 46 47 47 49
52 48 44 43 37 36 32 27 36 31 29 29 29 33 35 39 42 39 42 54 49 47 43 40 38 37 37 36 36 35 32 29 29 29 28 29 29 30 30 32 32 35 35 38 38 38 40 43 45 46 46 48 48 50
46 45 39 35 33 32 29 32 34 29 27 27 26 31 33 37 42 41 41 49 50 46 43 42 40 38 38 37 36 36 35 34 34 34 34 34 35 35 37 38 40 40 41 41 41 38 42 46 48 47 48 49 50 50
37 37 35 33 32 29 29 33 34 30 25 24 24 28 32 37 40 39 40 46 46 46 44 42 39 38 38 37 37 37 36 36 37 38 39 39 41 41 42 44 45 43 38 38 42 40 44 44 44 46 47 48 49 48
30 30 30 30 30 26 33 34 34 32 28 27 23 22 25 30 36 38 40 40 41 43 43 41 41 40 39 38 38 39 40 40 41 41 42 43 45 45 46 46 41 34 33 39 42 41 43 42 42 44 45 46 46 47
28 29 31 31 30 33 34 30 31 29 27 30 30 29 27 29 31 31 34 37 37 38 38 39 38 38 39 40 40 41 42 42 43 44 44 45 41 41 44 41 27 32 38 40 40 41 42 43 43 45 46 47 49 51
30 30 30 32 28 37 31 35 31 32 30 29 27 27 27 27 27 29 29 28 31 33 34 36 37 37 38 39 38 38 39 39 40 39 38 36 34 37 40 37 31 36 38 38 40 41 41 43 45 46 48 50 50 51
27 31 30 33 32 35 37 38 33 32 30 28 27 25 25 25 25 25 26 28 29 30 32 32 32 30 30 30 32 32 33 33 34 33 32 32 35 36 37 33 35 36 37 40 42 44 46 48 49 49 49 48 47 49
23 26 40 33 36 31 40 36 34 31 27 27 26 27 26 25 24 25 24 25 26 28 28 26 26 26 27 27 28 30 31 33 34 35 35 37 37 38 37 36 37 40 41 43 45 46 47 48 48 47 47 48 51 53
20 21 25 47 40 35 37 36 34 33 29 28 27 27 26 26 26 26 27 28 29 29 29 28 27 27 26 26 28 30 32 34 36 35 36 37 37 38 39 39 39 40 42 43 44 46 46 45 44 46 48 50 54 56
18 17 24 51 45 42 37 35 37 36 34 33 32 31 30 30 31 32 33 33 33 33 32 30 28 28 27 29 30 34 36 37 38 39 39 39 38 39 40 40 41 41 43 44 45 46 47 48 50 53 56 57 57 56
21 20 22 30 42 47 44 38 38 38 38 37 36 36 36 38 38 40 40 38 37 36 34 30 29 30 32 33 35 37 37 39 41 41 43 43 41 39 40 42 44 45 46 47 49 50 53 55 56 57 55 54 54 55
22 25 26 25 26 28 32 40 41 41 38 35 35 34 35 38 41 43 42 39 35 33 32 31 32 33 34 35 37 38 40 42 40 41 42 41 40 42 44 46 49 51 53 54 55 56 56 56 55 55 57 57 57 55
30 32 26 25 27 28 28 26 23 24 25 28 35 38 39 44 48 45 38 35 35 33 33 32 32 33 32 33 33 34 36 38 41 42 43 44 46 49 51 53 56 57 59 59 60 59 56 55 55 56 55 56 58 60
33 33 32 28 28 27 25 25 24 24 23 25 29 34 35 32 33 34 33 30 29 30 32 33 33 33 33 34 37 40 42 45 47 48 49 52 54 55 56 58 60 61 61 60 56 54 55 57 57 57 57 57 58 58
38 37 36 35 32 31 30 28 28 27 29 29 29 29 28 27 28 29 30 31 31 32 33 35 37 39 41 43 45 47 48 50 50 51 53 55 55 56 58 58 56 54 54 55 55 55 55 55 54 54 55 58 60 63
40 40 39 39 35 33 33 33 33 33 32 33 33 32 33 34 34 34 35 37 38 39 39 41 43 43 46 47 47 47 49 50 51 53 53 53 53 53 52 51 51 51 50 48 49 51 54 54 57 58 58 58 59 60
31 35 37 37 37 38 37 37 37 38 37 37 38 39 39 39 41 42 43 43 44 45 46 45 47 46 47 47 47 48 49 49 49 49 50 49 48 47 49 50 50 49 50 52 52 53 51 50 53 55 59 62 63 64
17 19 20 23 24 26 28 30 33 34 35 36 36 38 39 41 42 43 43 43 43 42 41 41 40 38 37 37 36 37 37 38 39 41 42 43 44 46 47 48 49 48 49 50 48 48 51 55 58 61 62 64 63 63
14 15 15 16 17 18 18 20 22 22 23 23 23 22 23 24 24 24 24 24 24 24 26 27 28 30 31 33 35 38 40 43 44 44 44 43 42 41 41 42 43 43 44 46 49 53 57 60 63 65 65 65 65 65
12 13 13 14 14 15 16 17 18 18 19 19 20 20 20 21 22 23 24 26 27 29 31 33 34 36 38 40 42 43 45 46 46 45 42 40 40 40 40 41 44 45 47 50 54 58 62 65 67 68 67 67 67 66
14 15 17 18 18 19 20 21 21 22 23 23 24 25 26 27 29 30 31 32 33 35 37 39 41 42 43 44 45 45 44 43 41 41 40 40 39 41 43 45 46 49 52 56 60 64 67 68 69 69 69 68 66 65
17 17 18 20 21 22 23 24 25 26 27 28 29 31 32 33 34 36 37 37 39 41 43 44 45 46 47 47 45 42 41 41 40 38 37 40 43 44 46 49 52 55 59 63 67 70 71 71 70 69 66 65 64 63
26 27 28 29 30 32 32 33 34 35 36 37 37 38 39 41 43 43 44 44 45 46 46 46 45 44 43 40 39 40 38 37 37 39 43 45 48 50 52 54 58 62 65 69 72 73 72 69 66 65 66 66 65 65
35 37 37 39 40 41 42 43 45 46 46 47 48 48 48 49 50 49 47 44 44 44 42 40 39 38 37 37 35 34 36 39 42 45 47 49 52 54 57 61 65 69 72 73 73 69 66 65 66 67 67 66 64 62
42 43 45 47 49 49 50 51 52 53 53 54 54 53 51 49 47 45 42 40 39 36 33 33 33 34 34 34 36 38 41 43 46 48 50 52 56 61 65 68 72 74 74 71 66 64 66 67 65 62 61 59 57 55
30 30 27 32 34 35 33 33 29 32 32 34 34 33 31 30 31 30 29 29 28 28 28 30 33 35 37 39 40 42 44 46 49 52 56 60 64 67 70 71 71 68 65 65 66 65 63 60 59 59 57 55 54 52
2 3 5 8 5 3 3 3 4 8 10 11 11 17 15 18 22 24 26 28 27 27 29 32 35 37 39 41 43 45 49 53 57 61 64 66 68 68 67 65 64 64 64 63 61 60 59 58 56 53 50 49 50 51
5 3 1 5 7 6 6 6 8 8 8 9 10 11 16 21 23 24 26 25 27 30 32 34 37 40 43 46 50 54 56 59 62 63 62 61 62 62 63 63 62 61 60 60 59 56 53 49 46 46 47 48 49 46
6 5 5 6 10 11 9 7 7 9 12 12 12 14 16 18 20 23 25 28 31 35 38 40 43 46 49 52 53 54 54 55 57 59 60 61 60 59 59 60 59 57 55 53 49 47 44 43 45 47 49 46 44 43
14 14 14 14 17 18 17 17 18 19 20 21 22 23 25 27 28 31 33 36 38 40 42 42 44 45 47 50 52 55 56 57 58 57 56 57 57 57 56 55 53 50 48 45 41 38 39 42 45 45 42 40 39 41
21 21 21 22 23 23 24 25 26 27 28 29 29 31 32 34 36 37 34 35 35 37 40 45 48 51 52 53 53 53 53 53 54 54 55 55 53 51 50 48 46 44 41 39 37 37 39 43 43 39 37 36 37 39
24 25 26 27 28 29 29 31 32 32 33 34 34 35 34 33 30 32 34 36 41 45 48 51 52 51 50 50 50 50 51 52 52 52 50 47 45 44 43 42 41 38 37 36 37 38 41 41 38 35 34 34 36 38

GFSWCAN_500_spd_033.txt.gz
Wind_Speed
55 62 63 59 57 53 49 46 42 41 40 38 36 36 40 37 38 42 44 47 50 49 46 43 40 36 32 29 27 25 24 22 20 18 17 16 15 16 16 16 18 21 25 27 29 32 36 37 38 41 43 44 46 46
59 58 57 55 52 47 41 36 31 34 44 39 35 36 36 35 36 38 42 45 50 48 44 42 40 37 33 32 30 28 28 26 24 23 23 23 23 23 23 25 26 28 30 32 32 33 37 41 43 45 44 44 45 46
54 52 49 46 42 40 33 31 33 34 39 35 34 34 35 32 34 36 39 42 44 44 46 43 40 38 35 33 31 31 29 27 28 30 30 30 30 29 30 32 33 35 36 36 38 36 41 44 45 44 45 45 45 46
46 45 42 41 36 32 26 30 36 33 31 31 31 33 32 31 32 34 43 36 41 42 40 43 41 39 37 34 33 32 32 32 33 33 33 33 34 35 36 38 39 37 37 40 42 41 43 41 41 42 43 44 44 45
43 40 35 32 31 29 22 37 33 31 28 29 28 30 32 34 38 27 35 38 39 42 42 41 40 39 37 35 34 33 33 33 33 33 35 36 37 39 40 41 37 35 39 41 41 39 39 38 39 40 41 43 44 45
33 32 32 30 28 29 30 35 27 22 23 28 27 28 31 37 43 36 25 37 35 37 38 38 39 36 36 35 34 34 34 35 35 36 38 39 39 42 44 43 32 33 37 38 39 39 40 40 41 42 43 45 46 48
26 24 25 27 24 24 31 35 31 29 27 24 22 23 26 30 37 45 34 26 27 29 32 35 35 36 36 36 36 36 37 37 39 40 40 40 40 42 42 40 32 32 35 37 39 40 40 42 43 45 46 48 49 49
19 21 24 25 23 31 25 29 27 24 25 31 28 26 27 28 28 32 33 33 33 33 32 32 33 31 32 32 33 35 36 38 38 38 38 36 38 37 38 32 33 35 36 38 40 42 44 45 45 45 45 46 47 47
22 22 25 28 28 28 34 24 28 22 22 24 28 25 24 25 25 24 25 26 27 29 29 28 27 27 30 29 30 31 32 33 35 35 34 35 36 38 35 35 35 37 38 40 42 43 43 43 45 47 48 49 51 53
22 23 26 27 31 34 30 37 27 25 24 24 25 27 27 25 23 24 24 25 25 26 25 23 22 22 23 24 26 28 30 32 34 33 34 35 36 35 36 37 38 39 41 42 42 42 44 47 47 48 50 51 53 56
25 29 26 33 33 33 28 34 31 26 21 21 20 19 20 21 21 21 23 23 23 24 23 22 22 22 23 24 26 30 31 31 34 34 35 36 37 37 38 38 40 40 40 40 41 43 46 48 50 51 53 55 57 58
20 17 24 35 35 33 28 30 33 24 24 21 20 20 20 22 23 28 28 27 26 25 23 23 24 26 27 29 31 33 34 36 37 37 38 38 38 37 36 36 37 39 41 44 46 49 51 53 55 56 57 58 57 57
11 11 13 22 42 35 31 34 34 31 31 31 27 27 28 29 32 34 30 29 28 29 30 29 29 29 30 32 34 34 35 36 37 39 41 37 32 33 37 40 43 46 49 51 53 55 58 59 60 60 58 58 54 51
16 15 12 11 22 35 33 32 36 36 35 34 33 33 36 37 37 33 31 30 30 29 29 28 28 29 29 30 32 32 35 38 41 38 36 37 39 43 45 48 50 52 55 58 59 60 60 59 58 56 55 53 53 54
22 18 18 19 20 21 21 22 24 23 24 31 31 35 37 35 35 33 32 30 31 33 35 34 32 30 29 31 31 32 34 37 38 39 42 45 47 49 52 55 57 59 60 61 61 59 58 56 54 52 51 50 51 53
30 26 25 23 21 22 23 24 23 22 24 25 27 27 26 27 27 27 27 26 26 26 27 29 29 30 31 33 35 36 38 40 42 45 47 49 51 53 55 56 57 57 57 55 55 55 53 51 52 54 52 51 50 51
36 34 29 29 26 23 24 26 26 26 26 26 26 26 27 25 25 25 25 26 26 26 27 30 31 33 35 36 38 39 42 44 45 47 49 50 49 49 48 47 48 48 50 52 53 54 53 50 50 51 49 49 52 57
38 38 36 33 33 33 32 30 29 29 29 29 30 30 30 32 32 32 32 32 34 35 37 38 39 40 40 41 43 44 44 43 40 38 36 37 38 39 42 45 47 50 51 51 50 49 49 50 48 49 50 54 59 62
33 32 35 36 37 36 36 35 35 34 35 35 35 35 36 36 37 38 38 40 41 41 42 40 41 39 36 34 32 32 31 31 33 35 37 39 42 44 46 47 48 48 48 48 48 48 49 50 51 52 57 60 65 68
13 16 20 24 27 27 27 28 32 33 35 34 34 35 36 36 37 38 38 39 39 37 34 31 30 29 29 30 31 32 34 36 38 41 43 45 46 47 47 45 45 45 45 46 47 50 51 53 55 59 64 67 71 75
11 11 12 13 14 16 19 18 19 21 21 23 25 26 26 27 28 29 29 29 27 26 27 28 29 30 32 34 36 38 41 43 44 46 47 48 47 45 44 44 44 44 45 48 51 53 56 58 61 65 69 74 78 82
10 11 12 13 13 14 15 16 17 19 19 20 21 22 23 24 25 26 27 28 29 30 31 33 34 36 38 39 41 44 45 47 48 49 48 46 45 44 43 42 42 45 49 52 55 58 61 63 67 72 76 80 83 80
13 13 12 13 14 15 16 17 19 20 21 22 24 25 27 28 29 30 31 32 33 35 37 39 40 42 44 45 46 47 48 48 47 45 44 44 43 43 43 45 48 52 55 57 59 62 65 69 74 78 82 82 77 73
21 22 22 23 23 24 24 25 26 27 28 28 29 31 32 34 35 37 37 39 41 43 45 46 47 48 49 49 48 47 45 43 43 43 43 42 42 44 47 51 54 56 58 60 64 68 71 76 80 82 78 74 73 72
28 28 29 30 31 32 33 34 36 37 38 39 40 42 43 44 45 46 47 48 50 51 51 51 50 48 47 45 44 42 41 40 40 40 41 42 46 49 51 53 56 59 62 66 70 74 78 78 76 74 74 71 67 66
32 33 34 35 37 38 39 41 42 44 46 47 49 50 52 52 53 54 53 52 51 49 46 44 41 39 36 33 33 34 36 38 41 44 47 49 50 52 55 58 62 65 69 72 73 73 72 71 70 67 65 64 62 59
32 33 33 34 33 35 34 35 35 37 38 40 42 42 43 42 40 36 35 33 31 29 28 28 28 29 32 34 36 38 41 43 44 45 48 51 55 58 61 64 68 69 69 69 69 68 65 62 61 60 59 57 53 50
4 5 6 8 8 10 8 8 9 8 7 7 7 9 12 14 14 13 14 16 19 22 26 29 31 33 34 35 36 38 41 44 47 51 54 58 60 63 64 64 64 65 66 64 62 61 59 58 57 55 51 47 44 45
6 7 6 5 4 3 5 7 7 6 8 10 9 9 10 10 13 19 22 24 25 25 27 29 30 31 34 37 41 44 47 51 54 56 57 58 59 60 62 62 62 61 60 60 60 59 57 54 51 47 42 40 42 46
9 10 10 11 11 10 10 10 13 14 14 14 15 16 17 18 19 20 22 25 26 28 31 33 36 39 41 43 45 46 48 50 53 55 57 58 59 59 59 58 58 59 59 58 55 52 49 47 43 40 38 40 44 43
16 18 20 21 22 22 22 23 22 22 23 24 25 26 26 27 28 29 31 33 34 36 38 39 38 38 39 42 46 49 53 56 57 57 57 56 55 55 57 57 57 54 50 47 45 42 40 38 38 39 41 43 42 39
23 24 24 25 25 26 27 28 29 30 30 31 31 32 33 34 35 36 37 38 37 37 36 37 38 41 46 50 54 57 58 58 55 53 52 53 54 54 51 49 47 44 42 40 38 38 38 38 39 40 40 38 36 35
25 26 26 27 27 28 28 28 28 30 31 32 32 33 32 32 32 32 32 32 32 35 38 42 47 51 55 57 57 56 53 51 50 51 51 49 47 46 44 42 41 39 38 38 38 39 39 38 37 35 34 34 35 36

GFSWCAN_500_spd_036.txt.gz
Wind_Speed
68 60 64 70 67 64 56 58 60 59 56 52 50 49 48 46 44 46 43 46 52 55 55 52 50 44 40 35 30 26 24 19 17 15 13 10 9 9 9 10 13 15 18 20 23 26 30 31 35 37 39 41 42 44
71 76 71 67 64 61 59 57 53 50 48 46 45 44 42 42 45 46 41 44 50 51 52 50 46 43 40 36 33 30 27 24 21 19 16 16 16 15 16 18 20 22 24 25 27 30 35 39 41 42 43 43 43 43
68 66 62 60 59 56 54 51 47 44 43 41 40 39 40 40 46 40 38 40 44 44 47 48 46 42 38 36 33 31 28 26 24 22 23 22 23 23 24 26 26 28 29 31 34 36 40 42 43 43 43 42 42 42
59 57 55 53 51 48 45 43 41 41 42 40 38 39 36 41 40 35 37 39 40 39 44 45 43 41 39 35 33 31 29 28 28 27 27 27 27 28 29 31 31 33 35 37 37 39 41 41 41 42 42 43 43 43
53 51 48 42 39 37 34 34 36 42 40 37 38 36 34 37 30 32 37 36 34 39 40 42 42 40 37 35 33 32 31 31 30 30 30 30 31 32 33 35 35 35 38 40 40 39 40 39 39 39 40 40 42 43
43 42 40 35 35 35 32 31 34 41 36 33 35 33 35 30 33 34 35 31 36 36 36 41 42 40 38 36 35 34 33 33 32 32 33 32 32 36 38 38 38 36 38 40 39 38 38 38 40 40 41 42 43 45
35 34 35 31 31 36 37 35 31 29 32 32 32 31 31 31 34 36 40 30 32 39 36 37 37 37 38 38 37 35 34 34 34 35 36 36 37 39 41 42 37 34 35 36 37 38 40 41 42 42 44 45 44 44
28 30 30 30 37 36 31 26 27 27 29 31 31 33 35 35 30 32 39 40 38 34 34 36 38 37 37 32 31 32 30 32 37 37 37 37 38 40 41 34 32 33 35 36 38 40 41 42 43 45 45 45 45 47
25 25 26 26 29 33 27 28 29 29 28 29 32 36 38 38 33 30 33 27 28 30 29 27 27 29 34 34 34 34 35 35 37 37 37 37 38 36 33 33 33 35 36 38 40 42 43 44 45 45 45 46 47 49
26 25 21 28 23 25 28 27 22 31 28 29 29 25 31 34 33 27 24 26 26 25 25 25 26 27 28 29 30 32 33 34 36 34 34 35 35 33 33 34 35 37 39 41 42 43 44 45 44 44 46 48 51 53
24 29 28 29 28 28 23 23 25 20 26 26 29 30 29 30 30 30 30 30 29 28 26 24 24 23 25 26 27 30 31 32 35 34 34 33 33 33 34 35 37 39 41 42 42 42 41 43 46 49 50 53 55 57
24 23 27 29 28 30 33 29 27 21 19 17 18 21 24 25 26 25 25 25 23 22 19 19 21 22 23 25 28 29 30 33 35 33 34 34 32 33 34 37 38 38 37 39 41 44 46 49 50 52 56 59 60 59
21 23 24 24 30 34 27 26 28 29 19 17 17 17 18 21 23 21 18 16 17 17 19 20 22 24 25 28 29 31 32 33 33 35 35 32 32 36 38 38 38 40 42 44 46 49 52 54 57 57 57 56 55 54
21 20 24 28 34 31 31 28 28 30 25 23 24 22 22 24 22 21 21 21 23 24 25 26 28 28 28 30 32 32 33 34 35 35 33 34 37 38 39 40 43 45 47 49 52 54 54 54 53 53 54 54 54 53
16 17 18 20 23 29 33 29 27 31 34 32 31 31 30 28 27 25 25 26 26 27 28 29 30 31 31 32 32 33 35 38 37 35 37 38 40 42 44 46 48 51 52 52 51 49 49 49 51 53 53 55 52 50
19 19 16 14 15 19 30 28 30 28 33 35 35 36 36 33 29 29 30 32 33 35 32 27 26 26 26 29 30 31 33 34 35 38 40 42 44 47 49 50 50 48 45 44 45 47 50 52 53 55 54 52 52 52
21 17 16 14 14 14 17 18 19 22 23 26 27 27 26 26 26 26 26 25 24 25 25 25 25 25 27 29 29 32 35 38 41 43 44 46 47 48 46 43 40 41 43 45 48 51 53 54 53 52 52 53 53 54
29 28 26 24 23 23 20 20 21 22 23 24 25 25 24 25 26 26 25 25 26 27 29 30 30 31 32 34 37 39 41 42 44 44 43 41 39 37 37 39 42 45 48 51 53 54 54 53 52 51 53 53 55 56
36 34 35 34 35 34 31 29 27 28 28 27 28 29 29 30 30 30 30 31 32 33 35 36 38 40 41 41 40 41 40 38 36 35 34 34 36 39 42 45 48 50 52 53 53 52 52 51 51 52 54 56 58 60
20 26 32 36 40 40 41 39 39 37 36 37 35 34 34 36 37 38 39 39 40 41 41 41 40 37 35 33 32 31 31 32 33 34 37 39 41 44 46 49 51 52 52 52 51 50 49 50 51 54 57 60 62 65
5 6 8 12 16 23 26 26 30 33 34 34 35 34 35 36 36 36 36 35 34 33 30 29 28 28 29 30 31 32 34 36 38 39 42 44 47 49 50 51 51 50 49 48 47 48 49 52 56 59 61 64 67 72
7 8 9 10 10 12 14 16 18 19 21 23 24 25 26 26 27 28 28 28 28 27 28 29 30 31 33 35 36 38 40 42 44 46 48 49 50 50 50 48 48 48 47 47 48 50 53 56 59 62 65 69 73 77
9 9 10 11 13 14 14 15 16 17 18 19 20 22 24 25 26 26 28 29 31 32 33 34 35 36 38 40 42 44 47 49 50 50 50 49 49 48 46 46 46 46 47 48 51 54 57 60 63 67 71 75 79 81
17 17 17 17 18 18 19 19 20 20 21 22 23 24 26 27 28 30 31 33 35 37 39 41 43 45 47 49 50 51 50 50 49 48 46 45 43 42 43 44 45 47 50 53 56 58 62 66 69 73 76 78 77 75
24 24 25 25 26 27 28 28 29 30 32 32 33 35 36 37 39 40 42 43 45 47 48 50 51 52 52 52 51 49 47 44 40 38 37 37 40 42 44 47 50 51 53 56 60 64 67 71 74 75 74 72 69 66
26 27 27 28 30 30 32 33 34 35 36 38 39 41 42 44 46 47 49 50 52 52 52 51 49 47 44 41 37 34 34 34 35 37 39 42 44 46 48 50 52 55 59 62 65 68 70 70 70 69 67 65 64 62
26 27 29 29 30 30 30 32 33 34 35 36 38 38 39 38 39 39 39 38 36 33 30 28 27 27 27 27 30 32 35 38 40 41 41 43 45 48 51 54 57 60 62 64 66 66 65 65 64 63 63 61 56 52
13 12 9 8 7 9 7 7 7 8 8 7 6 6 8 9 10 11 12 13 15 16 17 19 22 25 28 30 33 36 38 38 39 41 44 46 48 51 54 57 59 61 62 62 62 61 60 61 61 57 52 49 46 42
5 6 5 6 7 8 8 9 8 7 8 9 11 13 13 13 14 15 16 17 18 20 22 24 26 27 29 31 34 37 40 41 43 45 47 49 52 54 58 60 61 61 61 59 58 58 58 55 50 46 43 40 38 38
7 8 10 12 13 15 15 16 18 19 19 20 21 22 23 23 24 26 27 28 29 31 32 33 35 36 38 40 42 43 44 45 46 47 50 54 58 61 62 62 59 56 56 56 55 53 50 46 42 38 36 37 38 38
16 17 19 20 22 23 24 24 25 26 26 27 28 29 30 30 32 33 34 36 37 39 39 40 41 41 41 42 42 43 44 46 50 54 58 61 62 61 58 55 54 54 53 50 48 45 43 40 38 38 38 39 38 35
23 24 25 26 27 28 29 29 30 30 30 30 30 30 31 33 35 36 37 37 36 36 36 36 36 37 38 41 44 48 52 55 58 60 61 59 57 55 54 53 53 51 48 46 44 42 40 40 40 39 40 38 36 35
20 22 23 25 26 27 28 29 30 31 31 32 34 35 34 32 29 29 28 28 29 31 34 37 41 44 48 51 55 57 58 59 60 59 58 57 56 55 55 53 50 47 45 44 44 43 42 41 40 39 38 37 38 39

GFSWCAN_500_spd_039.txt.gz
Wind_Speed
57 64 68 66 76 63 54 52 56 67 77 67 63 60 68 67 64 59 55 59 55 53 51 57 58 56 53 49 44 38 33 29 23 19 16 12 11 12 11 12 13 14 14 14 17 20 23 24 27 30 33 35 38 41
56 64 72 65 58 48 53 67 71 77 78 74 69 62 57 63 53 51 51 55 52 50 52 56 56 52 50 49 43 36 34 29 27 24 19 17 14 14 14 15 15 16 17 20 21 26 28 31 33 35 37 40 42 44
55 54 52 53 52 65 63 68 68 62 59 57 54 60 58 54 44 47 45 48 52 50 52 55 55 54 51 47 40 37 35 31 28 25 22 20 20 18 19 20 21 23 24 27 27 31 34 36 38 40 42 43 44 45
62 65 61 51 53 60 62 63 60 59 57 54 53 51 50 50 42 45 42 42 48 47 49 52 52 52 49 47 41 37 33 31 31 29 27 25 24 24 24 25 26 28 29 31 32 36 37 41 41 43 44 45 44 43
57 58 57 57 56 55 53 54 53 51 50 49 47 47 49 47 41 39 40 37 40 45 46 49 49 49 47 44 40 37 35 34 33 32 30 28 28 29 29 30 32 32 34 35 37 38 40 43 45 43 43 42 43 45
53 52 52 50 48 48 47 46 45 45 44 44 45 44 45 42 36 39 40 35 34 39 42 46 46 45 44 41 39 36 35 35 34 32 32 32 32 33 35 35 35 35 37 40 41 42 44 43 42 42 42 44 45 45
45 45 43 42 41 42 41 42 41 41 42 41 41 40 39 39 35 36 35 35 35 38 40 38 41 43 41 39 38 37 36 36 36 34 34 35 35 37 38 40 37 39 40 41 41 41 44 41 45 45 45 45 46 47
37 38 38 36 36 34 33 33 35 35 35 37 36 36 42 36 32 34 37 35 36 32 34 34 38 40 41 40 39 38 37 37 38 38 38 38 39 40 43 40 39 39 41 39 40 41 43 44 45 45 46 47 48 48
29 31 30 30 32 34 33 30 31 34 33 31 31 38 38 38 38 36 42 34 38 36 33 33 32 35 38 39 39 39 38 40 40 41 39 39 40 42 40 38 37 37 38 39 41 42 43 44 45 47 48 48 47 46
23 28 29 24 31 28 29 28 28 30 31 33 38 39 36 33 35 40 41 32 34 32 33 35 35 34 36 36 36 37 37 39 40 40 41 42 42 39 35 34 36 37 39 41 42 43 44 46 47 47 46 46 48 51
23 25 25 21 20 22 27 30 31 31 30 30 31 32 32 34 32 33 35 39 39 33 30 32 33 34 34 35 35 38 39 41 42 40 40 40 38 33 33 35 37 40 41 41 42 43 44 44 44 46 49 51 54 56
25 29 27 27 23 20 23 19 22 26 27 28 28 29 29 28 28 30 26 34 32 31 25 26 27 28 29 31 33 34 35 37 40 37 36 38 32 33 35 38 40 41 41 41 42 42 43 45 48 50 53 56 56 55
26 23 25 26 26 23 20 23 22 21 26 21 24 26 30 28 27 28 28 26 24 19 20 23 25 26 26 27 28 30 33 35 34 35 37 34 33 35 38 40 40 41 41 42 42 44 47 49 52 55 54 50 50 51
20 21 23 27 23 22 23 20 25 21 20 19 17 20 27 27 26 25 23 23 22 23 22 22 23 24 25 27 31 32 35 36 38 37 35 33 35 37 38 39 40 41 42 44 46 48 51 53 51 47 47 50 53 56
20 21 24 26 25 25 28 27 26 27 23 24 22 23 21 18 18 18 20 19 20 21 23 24 26 28 29 32 34 36 38 39 38 35 34 36 38 38 39 40 42 44 46 48 51 53 50 45 45 48 51 54 56 58
15 20 21 21 25 27 33 29 25 25 29 29 29 25 26 29 23 23 23 23 26 27 28 29 29 31 32 35 36 38 40 41 39 37 35 34 37 40 42 45 47 50 52 53 51 46 45 47 50 53 55 57 58 60
16 21 20 19 20 25 33 36 30 28 30 31 32 35 36 33 31 33 33 35 34 32 33 36 37 37 36 34 33 32 31 32 34 34 38 41 44 46 48 51 52 52 50 45 44 46 49 52 54 56 58 59 60 60
20 20 20 21 20 17 20 23 27 32 29 27 26 29 30 30 31 31 32 31 30 29 28 27 27 29 31 32 31 32 33 35 38 41 44 47 50 51 52 50 48 44 44 45 48 50 53 55 57 59 60 61 60 59
28 28 26 24 22 20 19 22 20 21 21 23 23 22 23 23 24 26 28 29 29 29 29 30 31 32 33 34 36 38 40 43 46 49 50 49 48 46 44 43 44 45 47 49 52 55 57 59 59 60 60 59 58 58
32 34 35 32 30 29 28 28 28 28 28 29 28 28 27 28 29 30 31 32 33 33 34 35 37 38 40 41 44 46 47 46 45 43 42 41 41 42 43 45 47 49 52 54 56 58 59 59 59 58 57 57 57 59
7 11 20 29 37 40 40 42 39 40 41 42 45 44 42 41 40 40 40 40 40 41 41 41 42 42 42 41 39 38 37 37 37 38 39 41 43 45 47 50 52 54 56 57 58 57 57 57 57 56 56 57 59 62
4 5 5 6 8 11 17 23 25 27 29 30 31 31 31 32 33 33 34 34 33 31 31 31 30 31 30 31 32 34 37 39 40 42 44 46 49 51 54 55 56 56 57 56 55 54 54 53 53 55 58 60 63 67
8 8 8 9 9 11 10 11 13 15 17 18 20 21 23 24 25 26 26 27 27 28 28 29 31 32 34 36 38 40 41 43 46 49 51 54 55 55 55 55 54 52 51 50 49 50 51 54 57 59 61 65 68 72
15 16 16 15 14 14 14 15 16 17 18 20 21 22 24 25 26 27 29 30 31 32 33 35 37 39 41 44 46 49 51 53 54 55 55 54 53 52 50 47 46 45 46 49 51 54 56 58 61 64 66 69 71 73
17 17 20 23 24 25 25 25 25 26 27 28 29 30 31 32 34 35 36 38 39 41 43 44 46 49 51 52 54 55 54 54 52 51 48 45 43 42 42 45 47 49 52 53 53 56 58 62 64 66 69 69 69 68
25 23 22 22 24 26 28 29 29 30 31 33 34 36 37 38 40 42 43 45 47 48 50 51 53 54 54 54 51 48 44 41 39 37 38 40 42 43 46 49 50 50 51 53 56 58 61 64 66 67 67 66 64 63
25 24 23 23 23 24 25 27 29 30 31 33 34 36 38 39 41 41 42 43 43 42 41 40 37 33 29 27 27 28 29 32 35 38 39 42 46 47 48 49 50 52 54 56 58 61 64 66 66 65 62 61 59 57
20 19 17 17 16 16 13 13 12 12 13 13 15 15 15 16 16 15 15 15 15 15 16 18 20 22 24 27 29 31 34 36 38 40 42 45 47 49 51 52 54 55 56 59 63 65 66 64 61 58 57 55 52 48
7 7 7 7 6 6 7 8 10 11 12 13 14 15 17 17 19 20 21 22 23 24 26 28 30 31 33 35 36 38 40 42 45 47 49 50 51 51 53 54 55 58 61 64 66 64 61 58 56 55 53 50 47 43
7 7 9 10 12 14 15 17 19 20 21 22 23 25 26 27 27 28 30 31 32 33 35 36 37 38 40 41 43 45 46 47 48 49 50 51 52 53 55 59 62 64 66 66 64 61 58 56 54 52 49 47 44 42
14 16 18 19 20 22 23 25 26 28 29 29 30 31 32 32 34 35 35 36 36 37 38 39 39 40 41 41 41 42 43 44 46 49 52 55 59 62 65 66 66 67 66 64 62 59 57 54 50 48 46 44 43 42
22 22 23 23 24 25 26 26 27 28 29 30 31 32 33 34 35 36 37 38 38 37 36 35 34 34 35 39 42 46 49 53 56 59 61 63 65 66 66 66 65 63 60 57 54 52 49 46 45 44 43 43 42 41
20 22 23 24 25 25 27 28 30 32 32 32 32 33 33 33 32 30 29 28 28 29 31 34 37 41 45 49 52 55 57 59 61 62 62 62 60 58 56 54 52 51 50 49 48 46 45 44 44 44 45 45 44 43

GFSWCAN_500_spd_042.txt.gz
Wind_Speed
27 26 27 27 24 26 26 31 36 43 48 65 90 96 86 84 76 70 63 69 36 60 44 55 55 59 55 58 39 54 50 46 38 30 26 22 19 17 18 18 19 20 19 19 19 19 20 18 20 21 24 28 31 34
19 19 18 23 28 31 31 34 37 47 62 82 97 80 78 74 77 75 74 63 25 63 67 54 60 64 65 68 34 43 44 41 35 31 27 22 19 17 16 16 15 16 15 16 17 20 20 22 25 27 29 32 36 38
56 55 51 50 50 49 44 51 56 74 77 75 83 80 75 74 74 63 56 62 47 38 58 58 52 53 60 64 47 45 45 41 37 33 28 26 22 19 18 18 17 19 18 21 20 25 28 27 31 31 34 38 40 43
42 47 57 54 57 62 62 68 69 53 66 77 82 77 68 59 49 57 53 47 48 37 54 60 48 50 52 56 31 48 45 39 36 34 32 28 25 23 22 23 22 23 23 25 26 31 33 35 35 35 40 43 45 47
66 62 60 59 57 62 67 60 56 57 60 68 70 69 41 58 56 54 48 33 56 54 50 51 45 48 54 59 44 45 45 41 37 36 34 30 26 26 27 28 28 27 29 31 33 33 35 40 40 43 44 46 47 46
48 55 54 54 53 50 44 47 56 64 61 58 77 63 55 48 44 48 50 44 48 50 42 40 41 46 52 53 49 47 44 42 41 37 35 31 30 32 32 32 33 32 34 36 38 38 41 42 43 45 48 47 46 47
43 45 48 43 47 49 51 47 47 57 56 58 61 54 51 44 38 37 37 40 41 44 43 41 42 46 50 50 48 46 45 42 39 36 35 33 34 35 36 38 36 35 37 39 40 44 45 46 46 47 46 46 46 46
37 38 40 45 47 47 48 48 48 49 48 49 50 45 40 39 35 34 33 31 31 35 42 41 42 44 47 47 45 44 43 42 39 37 37 37 37 38 40 40 39 39 41 42 42 45 48 48 47 46 46 46 46 47
33 35 36 37 40 43 42 44 46 45 44 46 46 39 37 30 28 30 29 33 30 30 36 40 37 40 42 41 41 40 40 40 41 41 41 40 41 43 42 41 42 42 43 44 46 47 46 45 46 46 46 47 48 49
23 28 27 30 34 35 38 37 41 44 45 44 42 44 39 35 29 33 31 34 36 32 33 35 33 35 37 39 40 40 41 42 43 43 43 44 43 42 42 42 43 44 45 46 46 45 45 45 46 46 46 48 49 49
17 22 30 31 31 33 32 34 34 37 39 41 39 40 35 34 32 33 33 35 33 31 29 29 32 35 34 35 37 41 42 44 44 43 43 44 43 41 42 43 43 43 43 45 45 45 46 46 46 46 48 48 49 52
18 18 14 20 25 25 21 32 31 31 28 29 31 40 36 34 30 33 39 38 27 29 35 29 26 29 32 33 34 36 39 41 43 43 44 45 41 40 38 39 40 42 44 45 45 45 45 45 46 47 49 51 54 56
19 19 25 18 17 25 23 21 23 25 24 25 31 32 29 29 27 29 36 37 25 20 25 25 25 27 29 32 34 35 39 41 42 43 44 43 36 35 35 39 41 43 44 43 43 44 44 45 48 50 53 54 56 58
21 16 18 21 19 23 16 14 17 23 25 24 23 26 25 26 29 24 22 22 22 25 27 27 25 26 27 28 31 34 37 39 40 41 38 33 35 37 39 40 40 41 42 43 43 44 46 48 51 53 56 58 54 50
14 14 15 19 20 18 16 18 20 12 20 22 17 20 24 24 22 21 21 24 23 22 22 23 25 27 28 30 31 32 34 35 35 34 36 37 38 39 39 40 42 42 42 42 44 47 50 53 55 57 54 50 50 53
14 13 14 18 22 17 16 19 18 25 24 24 19 16 18 22 20 22 22 21 22 23 22 24 24 25 27 28 29 32 35 37 36 38 41 42 42 41 40 39 38 39 42 48 52 54 56 57 54 50 49 52 55 58
12 14 14 15 16 18 18 18 20 21 28 30 25 22 20 21 22 22 20 20 22 21 24 28 29 32 33 34 36 38 39 40 39 38 37 37 37 37 37 39 43 47 52 55 57 57 53 49 49 51 54 57 60 62
16 14 15 15 15 14 15 18 22 27 25 22 24 29 30 29 30 30 30 32 30 30 32 36 37 39 39 39 37 35 34 35 35 35 36 37 38 41 44 48 52 55 57 56 52 49 49 51 53 56 59 62 64 66
19 18 18 19 21 18 16 17 20 23 27 29 28 27 26 26 28 30 32 33 34 34 33 33 33 32 32 32 32 33 34 35 37 38 41 43 46 49 52 55 56 54 51 49 50 51 54 56 59 61 63 64 66 67
27 26 23 24 22 22 22 22 22 22 22 24 23 23 25 25 26 28 28 28 29 30 31 33 33 34 34 36 37 39 40 42 44 45 48 50 53 53 51 48 47 48 49 51 54 56 59 61 63 64 64 65 65 64
20 25 29 30 29 30 30 30 29 28 29 29 27 27 29 29 30 31 33 33 34 35 36 38 38 39 41 42 43 45 48 49 50 49 47 45 45 44 45 47 50 52 54 56 59 61 63 64 64 64 64 62 60 59
3 6 11 17 21 31 33 38 38 39 37 39 42 44 44 43 43 43 43 43 43 41 41 40 39 39 40 42 42 41 41 40 41 41 42 43 45 48 50 53 55 57 60 61 62 63 63 62 61 59 57 58 59 61
7 7 8 7 8 11 12 17 17 19 21 23 27 28 29 30 30 30 31 30 30 31 31 31 32 33 34 35 36 38 39 41 43 45 47 49 51 53 56 58 59 60 61 61 60 58 57 55 55 56 58 61 62 63
15 12 10 12 14 14 14 14 15 15 16 17 18 18 19 20 22 23 24 26 27 28 30 31 33 35 37 38 40 42 44 47 49 52 54 56 58 59 59 58 57 56 54 52 50 50 51 53 57 59 59 60 62 65
18 18 20 19 18 19 21 23 24 24 24 25 25 26 26 27 28 30 31 33 34 35 37 39 41 43 45 47 49 52 53 55 57 57 57 57 55 53 50 48 47 47 48 48 51 54 55 56 57 59 61 63 64 66
25 27 26 25 24 24 24 25 26 28 29 31 31 32 33 34 35 37 39 40 42 43 45 47 48 50 52 53 53 54 53 52 50 47 44 43 43 42 41 42 43 47 51 53 54 55 57 59 61 63 63 64 66 68
27 27 27 26 23 22 22 24 26 27 29 30 32 33 34 35 37 37 38 40 40 41 42 42 41 39 37 35 32 31 30 30 32 33 35 38 41 43 45 47 49 51 53 56 59 60 61 62 62 62 65 68 69 68
25 25 22 21 20 20 18 18 18 17 16 15 17 16 17 19 19 19 19 19 19 19 21 22 23 24 26 27 29 31 33 35 37 40 42 44 46 49 52 54 56 58 59 59 60 60 61 63 66 69 70 70 69 67
14 12 12 11 10 10 10 10 11 12 13 14 15 17 19 20 21 22 24 25 27 28 30 32 33 35 36 37 39 40 42 44 45 47 49 50 51 52 54 54 54 55 57 60 63 66 69 71 72 72 71 68 64 60
8 8 9 10 12 13 15 16 18 20 22 23 24 26 27 28 29 30 32 33 34 36 37 38 40 40 41 42 43 44 46 47 48 48 48 47 48 50 53 57 60 63 66 68 70 71 71 70 67 62 58 55 52 50
13 15 17 19 20 22 23 24 25 27 28 29 30 30 31 32 33 34 35 36 37 38 39 40 41 43 44 45 44 43 43 43 44 46 50 53 57 60 63 66 68 69 69 69 66 63 58 56 54 53 52 50 48 45
18 19 20 21 22 24 25 26 27 28 28 29 30 31 33 35 37 37 38 38 38 39 39 38 37 37 37 37 39 41 44 48 52 56 59 62 65 67 67 67 65 63 61 59 58 58 58 57 56 54 52 49 47 45
23 24 26 27 28 28 28 28 29 29 30 31 31 32 32 31 30 31 31 31 32 33 33 34 35 37 40 43 47 51 54 57 60 62 64 64 63 62 61 60 61 61 61 60 59 58 56 55 53 51 50 48 47 46

GFSWCAN_500_spd_045.txt.gz
Wind_Speed
19 18 21 27 31 30 24 22 33 54 59 57 58 59 80 96 91 85 81 78 67 61 56 53 52 54 52 54 53 50 46 44 46 43 42 40 35 30 29 24 24 26 25 22 21 19 20 19 19 20 20 21 24 27
17 22 29 31 30 29 25 23 34 49 53 49 44 50 74 89 88 83 73 69 64 61 54 49 47 50 55 49 51 49 42 43 39 45 43 37 31 29 26 23 25 26 24 22 21 19 19 19 18 17 20 25 28 30
16 18 21 24 26 28 27 28 37 40 45 45 46 50 71 89 83 76 68 61 61 62 50 43 50 51 56 51 56 58 48 47 47 41 37 35 32 29 25 21 22 19 19 18 19 19 20 20 22 23 26 30 32 35
42 38 29 21 24 28 31 32 42 43 46 54 59 69 82 82 76 72 64 58 54 51 45 36 45 60 58 47 42 42 46 52 46 40 38 37 31 29 25 25 22 19 20 19 22 23 24 26 28 29 32 34 37 40
50 50 48 38 34 34 36 37 41 47 56 68 77 86 81 69 65 58 50 46 43 63 28 55 49 55 57 54 52 51 35 34 41 42 42 38 33 29 28 28 26 24 22 24 25 27 30 33 35 36 39 41 43 44
53 51 55 55 56 51 51 53 61 70 76 85 89 85 78 66 62 38 66 60 29 30 38 48 56 48 54 40 35 47 53 38 45 45 42 38 34 31 31 31 28 27 28 29 31 32 33 36 38 41 44 45 46 46
42 45 46 49 51 53 68 79 76 76 79 83 84 82 62 42 39 32 34 57 29 46 39 46 45 48 46 40 44 53 37 48 49 46 43 38 35 33 33 34 33 32 32 34 36 37 37 39 42 44 46 47 48 48
37 46 45 48 50 50 55 62 66 68 78 72 72 61 40 33 31 29 45 29 23 33 41 52 52 49 43 36 39 47 47 39 40 46 41 39 38 36 37 36 35 34 35 37 39 41 43 44 45 47 47 47 47 47
35 34 36 39 49 50 55 59 54 52 57 46 41 42 31 27 30 31 33 30 30 27 31 35 38 39 38 36 39 45 46 50 43 44 43 41 39 41 39 38 38 39 40 40 42 44 45 48 49 49 48 48 48 49
34 35 40 44 45 45 46 44 45 48 54 44 43 34 37 31 26 25 27 26 27 28 32 35 35 32 30 32 36 40 43 45 45 43 43 44 43 42 42 42 42 43 43 44 44 45 48 50 49 49 48 49 50 50
28 34 36 36 39 39 40 40 49 44 40 33 30 33 30 27 20 20 25 24 24 25 24 28 30 31 30 31 33 36 38 41 43 43 45 46 44 42 44 44 44 44 44 45 47 49 49 49 48 48 49 49 50 49
26 27 30 31 31 33 35 37 40 40 36 33 32 31 24 24 22 22 25 25 26 27 23 21 25 29 29 30 34 37 39 41 44 44 44 45 42 42 43 43 43 45 46 47 48 48 48 48 48 49 48 48 48 50
17 24 22 23 26 28 28 30 32 34 36 32 29 34 28 24 25 23 22 22 27 30 23 23 22 25 27 29 31 33 36 39 40 42 43 41 39 40 40 41 42 43 44 44 45 47 48 48 47 47 46 48 50 53
13 12 18 18 16 21 21 23 22 29 31 32 31 31 36 26 25 23 20 25 28 21 17 22 25 22 22 24 28 33 36 38 39 38 36 36 37 37 37 37 38 41 42 46 47 46 46 47 47 47 46 50 55 58
12 17 17 14 10 10 7 6 9 17 19 23 23 26 32 24 21 22 18 18 18 25 18 19 21 22 23 26 27 29 31 35 35 32 33 33 34 36 37 40 43 44 45 45 46 47 46 45 46 48 53 58 61 60
6 8 10 12 16 15 12 10 6 9 11 16 18 20 24 21 21 21 19 14 17 20 19 21 23 22 23 26 26 27 28 29 29 30 33 36 38 39 41 43 45 44 42 41 40 42 46 49 52 57 62 62 57 54
7 8 8 10 13 15 11 11 11 18 15 18 14 14 10 11 17 17 15 18 20 21 21 21 22 24 24 27 27 27 29 31 33 34 38 41 43 42 42 41 40 39 40 42 45 49 51 55 59 61 58 54 53 55
10 9 8 9 10 12 12 14 14 16 21 25 24 24 26 20 17 17 19 20 20 20 20 22 26 27 27 27 31 35 38 38 40 42 40 38 37 37 38 38 40 42 45 48 52 56 59 60 56 52 53 55 57 60
15 16 16 14 11 10 10 12 16 19 22 23 22 22 22 23 24 25 26 27 28 31 31 33 35 34 34 34 36 39 38 38 37 37 38 39 39 40 42 44 47 50 53 56 57 56 53 52 53 55 57 60 62 64
20 21 21 20 19 18 17 14 14 15 18 21 24 25 26 27 27 29 30 30 32 34 34 33 34 34 33 34 34 35 37 38 40 41 43 44 46 48 50 53 55 56 53 51 50 51 52 55 57 59 62 65 67 67
20 19 21 25 24 24 24 23 22 21 21 24 24 23 24 24 24 27 29 29 29 29 29 31 33 34 36 37 39 41 42 44 45 47 48 50 52 53 52 49 47 47 48 51 53 55 57 60 62 65 66 66 66 63
10 11 11 16 18 24 29 31 31 31 30 31 31 31 30 31 30 31 33 35 36 37 38 39 40 42 43 45 46 48 49 50 51 52 49 45 42 43 45 46 49 52 54 57 59 61 63 65 66 65 62 60 58 56
16 15 13 10 9 11 11 17 19 26 29 33 36 36 37 39 41 42 41 43 43 44 43 44 46 46 44 43 40 39 39 39 39 40 42 44 46 48 50 53 55 58 61 63 64 65 65 63 60 57 55 55 56 57
23 20 18 18 19 18 16 16 16 15 15 16 18 19 20 22 24 26 25 25 26 28 28 29 29 30 32 34 35 37 40 42 44 45 48 50 52 55 57 59 61 62 62 63 61 58 55 54 53 52 54 56 58 60
24 22 25 27 28 24 22 23 22 21 22 23 24 24 24 24 25 25 26 28 29 30 31 33 34 37 38 40 42 44 47 49 51 53 54 56 57 58 58 57 55 53 51 50 50 49 50 52 54 56 59 61 63 65
26 29 29 27 29 24 23 24 24 24 26 28 29 30 31 31 32 33 34 36 37 38 39 41 42 43 45 47 48 49 50 50 50 49 48 47 45 43 42 41 42 44 46 49 51 54 56 58 61 62 64 64 63 63
30 29 28 26 24 23 23 24 25 24 25 26 28 29 30 31 33 34 35 36 37 37 38 38 38 38 37 35 34 33 31 32 32 34 35 37 40 43 45 47 50 52 54 56 58 60 61 61 59 59 61 64 67 70
29 29 25 23 20 20 17 17 18 18 17 17 18 17 17 19 19 20 20 20 21 22 22 23 25 27 29 31 33 35 37 39 41 43 45 47 49 51 52 54 56 57 58 58 58 57 57 60 63 67 69 72 73 73
17 15 14 13 11 9 9 10 11 11 13 14 15 17 18 19 21 22 24 25 27 29 31 32 34 36 38 40 41 43 44 46 47 48 49 50 51 55 56 56 56 56 55 56 59 63 66 68 71 73 73 71 68 64
9 9 9 12 14 15 16 17 19 19 21 23 24 25 26 27 29 30 32 33 34 36 37 39 40 41 41 43 44 45 46 48 50 51 52 52 51 51 51 53 55 59 62 66 69 72 73 73 72 69 66 63 61 59
13 14 16 18 20 21 22 23 25 26 27 28 29 30 31 31 32 32 33 34 35 37 39 41 41 42 42 43 44 45 45 45 46 47 48 50 52 55 58 62 65 68 71 72 72 70 69 67 66 64 63 61 59 56
21 21 22 23 24 26 27 28 29 28 28 29 30 30 31 33 33 34 34 35 35 35 35 35 36 37 38 39 41 42 44 46 48 52 55 59 62 65 66 68 68 67 67 66 66 65 64 63 61 60 58 57 54 52
22 22 22 23 25 25 25 25 25 25 25 26 26 27 28 28 28 28 29 30 31 32 33 34 35 37 39 42 45 48 51 53 56 58 59 59 60 61 62 62 63 63 63 63 62 61 60 58 56 55 53 51 49 47

GFSWCAN_500_spd_048.txt.gz
Wind_Speed
22 25 28 29 29 28 31 31 31 30 32 33 33 48 65 82 91 92 87 80 72 66 65 60 57 56 53 45 45 45 49 50 48 46 41 41 43 46 41 37 31 32 33 31 31 30 29 23 24 22 19 21 21 24
19 23 26 28 28 29 28 25 26 31 34 35 36 46 51 73 91 90 86 81 72 66 63 59 57 52 52 48 44 44 45 45 43 41 40 44 46 44 42 36 33 34 31 31 29 28 24 22 20 19 17 20 23 26
13 18 22 25 28 29 24 21 21 34 42 46 55 58 52 64 86 90 86 80 74 67 63 56 50 50 47 49 47 43 43 44 44 41 40 45 54 44 39 37 34 33 33 30 29 27 25 22 18 18 21 24 26 28
15 18 23 26 27 25 22 20 31 50 48 42 45 41 43 55 79 86 88 82 75 70 45 41 45 41 43 42 45 42 39 41 42 43 40 43 40 40 39 37 34 30 28 28 26 24 22 22 23 24 26 28 30 33
18 19 23 24 25 24 19 23 38 45 44 46 48 42 43 58 78 85 83 78 73 67 47 39 39 37 35 31 38 39 40 42 41 41 44 43 35 31 37 35 34 30 27 26 25 25 25 26 28 29 30 33 35 37
49 37 19 26 25 23 26 29 37 44 44 41 38 48 53 67 76 80 77 72 66 60 55 38 31 32 33 39 37 32 42 42 47 52 48 34 38 39 39 37 33 31 29 27 27 28 29 30 32 34 36 38 40 41
48 49 41 28 27 29 32 36 41 42 40 39 47 51 57 65 73 71 58 43 46 41 43 43 27 42 34 36 39 39 47 41 39 39 40 45 45 44 44 39 34 33 32 30 30 31 32 34 36 38 40 42 43 44
53 52 45 41 39 40 39 41 46 55 60 57 56 60 65 64 60 60 43 34 28 30 41 51 25 26 37 44 43 51 45 42 37 33 34 38 40 41 43 41 37 34 32 33 33 34 35 37 40 43 44 45 46 47
45 46 51 56 60 60 64 66 69 67 66 64 64 62 64 65 59 52 33 43 31 26 24 56 52 43 45 43 33 34 33 34 42 48 36 37 41 44 42 39 37 37 37 37 37 38 39 41 44 45 46 47 49 49
50 51 56 53 56 67 67 67 65 71 69 68 71 64 50 47 41 36 38 36 24 21 38 33 35 43 39 39 34 38 35 38 40 47 41 44 44 42 42 41 41 39 40 41 41 42 43 45 46 47 49 51 51 51
33 40 51 55 55 59 60 64 64 60 50 49 28 29 42 24 25 26 29 43 28 16 18 21 27 38 36 40 37 34 33 30 31 44 43 45 43 39 40 40 41 44 44 43 44 45 46 47 48 51 52 51 51 51
29 25 23 27 28 32 32 52 47 41 30 31 44 41 36 28 24 21 19 17 16 15 17 22 31 34 35 33 32 32 31 33 35 37 40 43 45 42 41 42 44 45 45 45 45 46 48 49 50 50 50 50 52 52
25 24 21 21 24 28 32 29 27 25 19 16 30 27 21 19 18 17 15 15 16 16 17 17 20 29 33 35 33 32 33 34 35 37 38 39 39 40 42 41 41 41 43 45 47 48 49 48 48 49 51 52 51 51
20 21 18 18 16 18 22 24 24 24 19 22 25 23 21 17 12 11 11 13 15 15 19 20 20 21 22 25 28 31 31 31 34 36 35 34 36 36 36 36 38 40 42 43 44 46 47 48 50 51 51 52 51 53
15 19 18 18 15 15 15 14 15 18 19 16 16 20 21 16 12 11 12 12 13 13 16 23 21 22 22 26 28 29 31 32 32 31 32 34 34 34 34 35 37 38 40 42 44 46 48 50 51 51 49 49 52 54
13 15 13 14 14 14 12 10 10 17 18 17 17 17 17 20 23 16 11 12 10 13 15 22 14 18 22 23 23 25 26 27 26 27 28 30 31 33 34 36 37 41 44 47 48 50 49 47 46 47 49 52 56 61
6 7 7 7 9 9 9 10 9 11 12 15 15 17 16 15 17 18 18 16 16 16 13 17 17 19 21 24 24 24 25 26 28 28 29 32 34 36 38 39 43 46 46 45 43 42 42 45 47 51 55 60 63 65
5 5 6 8 11 12 11 9 11 14 13 13 14 12 10 10 11 12 14 16 17 15 15 16 16 17 17 19 20 22 24 27 30 33 37 39 40 41 43 43 42 40 41 42 43 45 48 52 55 59 63 63 60 57
6 6 7 8 8 10 12 14 16 15 14 15 17 20 21 20 20 21 20 18 18 18 19 20 22 24 25 28 32 35 36 36 39 40 42 43 44 43 42 42 43 44 46 48 50 53 57 60 61 59 56 55 56 59
12 12 13 13 12 12 12 13 14 16 22 24 25 26 27 27 25 24 24 24 25 26 27 29 32 35 37 37 37 38 39 39 39 39 40 41 42 44 46 48 49 51 53 55 57 57 55 54 53 54 56 58 60 62
12 14 15 16 18 19 18 16 16 17 18 20 23 28 29 29 28 28 30 30 30 31 32 33 34 35 35 34 35 37 38 39 41 42 44 46 47 50 52 54 55 56 55 51 50 51 53 55 57 59 61 63 65 66
8 8 9 9 13 16 20 24 23 24 24 25 26 27 29 30 31 31 30 29 29 29 31 32 34 35 37 40 42 44 45 46 47 48 49 51 52 53 52 50 47 47 48 51 54 56 58 60 62 64 65 66 65 63
17 15 14 13 8 7 8 12 13 20 23 29 32 35 37 37 37 37 37 36 36 37 39 40 41 43 44 46 48 49 49 50 50 49 47 44 43 44 45 47 49 52 54 57 60 62 64 65 65 64 62 59 56 54
17 19 19 18 18 19 16 22 18 15 15 16 18 20 23 26 31 34 35 38 40 40 40 41 44 44 43 41 38 38 38 39 39 41 42 44 47 49 52 54 56 58 60 61 61 61 60 59 56 54 53 54 55 58
23 22 23 23 25 30 32 27 26 19 19 21 22 23 24 24 24 25 25 26 26 28 28 29 31 32 33 35 37 39 41 43 45 48 50 52 54 56 56 57 57 56 53 52 50 50 50 51 54 57 59 61 63 65
23 23 23 26 29 26 21 23 23 21 22 23 25 27 29 30 31 32 32 33 33 34 35 36 37 39 40 42 42 44 45 46 46 47 47 47 46 45 45 45 45 46 49 51 54 56 58 60 62 64 66 67 67 66
24 26 30 30 27 26 26 26 25 27 27 26 26 26 27 28 29 30 31 32 32 33 33 34 34 35 35 35 35 34 34 34 36 38 39 40 42 45 47 50 52 55 57 59 61 62 64 65 66 67 67 67 65 64
32 32 29 28 27 25 20 19 17 16 16 16 16 15 14 16 17 18 19 19 20 21 23 24 26 28 30 32 34 36 38 40 42 45 48 50 52 53 55 57 58 59 61 63 64 66 67 66 66 65 65 68 71 73
26 22 20 15 13 11 10 11 11 12 13 15 16 17 18 19 20 21 23 25 26 28 29 31 34 36 37 39 41 43 45 47 49 50 52 53 55 56 58 59 60 61 61 61 61 63 64 66 68 71 73 75 75 75
15 15 14 15 16 17 18 20 21 22 23 24 25 26 27 28 29 30 31 32 34 35 35 36 37 38 39 40 43 46 47 48 49 50 51 51 52 53 54 56 58 60 62 65 68 70 73 74 74 74 74 73 71 69
18 19 21 23 24 25 25 26 26 27 28 28 28 29 29 29 30 31 31 32 33 34 35 36 37 38 39 40 40 41 42 43 45 46 48 51 53 56 59 62 65 67 68 69 70 70 70 70 70 69 68 66 64 62
25 24 23 23 24 24 24 23 24 24 24 24 25 26 27 27 28 29 29 29 30 31 31 32 33 34 35 37 38 40 42 45 48 50 53 56 58 60 61 62 62 62 62 61 61 61 61 61 61 60 60 59 57 55
21 23 25 24 23 22 22 22 21 20 21 22 21 21 21 21 22 23 23 24 25 26 27 29 31 34 37 39 41 43 44 46 47 47 47 46 45 46 47 48 49 50 51 52 53 54 54 55 55 54 53 52 50 48

GFSWCAN_500_spd_051.txt.gz
Wind_Speed
21 36 37 39 40 40 36 37 35 32 31 31 27 27 40 65 86 98 93 87 83 76 71 68 65 61 60 58 52 52 53 58 54 56 47 48 46 42 39 38 35 34 35 34 34 34 35 33 33 30 25 26 24 26
21 28 32 33 31 32 33 32 30 30 29 30 24 21 39 64 82 96 92 84 78 74 69 65 62 61 57 57 47 48 55 57 55 52 51 50 47 42 37 38 39 36 35 36 35 35 35 32 29 26 25 24 25 26
18 21 24 26 27 27 28 28 27 26 27 30 22 19 37 66 81 93 89 82 78 72 67 65 61 57 55 51 49 49 53 55 53 53 45 46 44 39 35 34 37 36 38 40 37 36 34 31 29 28 27 27 26 25
15 17 20 21 21 20 20 23 25 26 26 25 23 26 41 61 73 86 83 79 76 74 68 64 59 55 50 48 48 50 46 49 50 48 48 46 41 39 38 37 37 39 42 38 35 34 31 29 27 28 27 27 28 28
18 18 17 19 20 19 17 18 22 25 24 24 26 34 53 56 63 81 80 78 75 70 69 65 58 49 38 35 40 47 46 44 43 44 45 42 41 41 39 43 40 47 39 29 31 29 31 28 27 26 27 28 29 31
22 24 26 25 23 18 15 24 45 45 39 32 35 48 55 46 61 75 80 78 76 73 66 59 52 36 31 29 34 43 44 42 40 40 40 44 42 42 42 36 32 42 35 32 33 32 31 29 29 30 32 33 34 34
26 26 25 25 23 23 31 42 39 37 36 39 43 38 41 56 60 73 77 76 69 63 46 41 39 47 35 32 30 34 34 37 38 38 40 39 40 41 39 36 34 31 30 32 33 34 34 32 33 34 35 37 38 39
34 24 25 22 25 27 39 38 34 34 32 33 32 32 43 55 62 71 70 68 65 61 50 44 44 43 38 33 31 31 32 35 38 38 42 41 38 43 42 38 36 35 36 36 35 34 35 35 35 37 38 39 42 44
54 40 33 31 30 34 39 40 35 38 30 32 37 45 53 55 57 60 64 60 63 60 53 41 34 29 19 24 33 33 35 39 39 41 41 40 42 43 36 46 42 38 37 37 38 40 38 37 38 39 41 44 46 47
61 66 53 44 38 37 39 37 37 38 42 50 55 55 51 51 53 53 51 49 42 38 44 41 34 35 37 22 34 41 36 37 38 50 55 50 48 39 35 37 33 35 39 40 41 41 41 42 43 44 46 47 49 50
47 57 54 54 57 53 58 57 59 58 58 58 52 49 52 53 51 47 39 39 29 27 26 25 20 25 44 40 39 48 40 38 38 30 29 45 37 34 34 43 38 38 42 43 41 41 44 45 46 47 49 50 50 51
39 56 58 51 54 60 58 54 52 52 51 58 43 52 55 54 34 21 31 28 27 24 25 19 26 28 29 35 33 28 32 36 36 33 28 31 34 44 43 43 42 39 38 37 39 42 44 46 49 49 50 50 51 51
35 31 35 51 43 39 34 54 53 60 57 47 48 39 31 18 12 8 19 27 31 10 11 17 20 23 32 36 30 31 34 36 34 34 33 31 32 35 42 41 38 39 42 43 43 44 46 48 49 48 48 49 50 52
25 27 25 26 30 29 30 30 35 35 30 20 19 21 27 24 22 20 18 16 16 11 11 13 14 17 22 26 31 35 34 31 32 32 30 27 28 31 34 37 40 41 42 44 46 48 48 47 46 47 49 50 51 53
19 23 20 21 24 22 22 24 18 21 23 18 21 19 15 13 10 11 10 8 7 7 7 11 15 17 18 22 28 32 31 34 33 28 27 28 30 32 35 38 41 43 45 45 45 44 42 43 46 48 50 52 54 53
15 17 13 16 15 12 12 13 16 15 13 12 9 12 12 11 9 7 5 4 5 10 14 15 17 24 24 24 22 22 23 26 28 29 31 33 34 35 38 38 37 37 38 39 41 43 43 45 48 49 50 49 49 50
10 9 9 11 13 9 10 9 9 11 13 14 12 13 14 12 14 17 18 13 11 12 12 13 21 18 20 23 24 23 24 26 27 29 30 30 31 32 32 32 35 38 40 42 43 45 47 47 47 47 48 50 53 55
8 5 5 6 6 6 6 7 8 8 9 10 11 11 12 13 12 13 14 14 12 13 15 17 15 18 20 20 22 25 27 28 28 27 27 29 30 32 36 39 41 44 46 47 47 46 46 47 48 50 53 55 58 62
7 6 6 5 5 6 8 9 10 10 11 13 15 14 13 13 11 10 10 12 11 13 17 18 19 19 20 21 21 22 23 25 28 31 34 37 40 42 43 45 46 46 46 45 46 47 49 51 53 56 59 62 63 62
5 6 7 8 9 9 9 10 12 13 15 17 17 18 19 20 21 21 20 22 22 22 23 22 23 23 24 27 29 31 32 34 36 39 41 42 43 44 44 44 45 46 47 48 50 52 55 57 59 60 59 58 58 59
7 8 9 11 12 13 14 15 16 16 17 18 21 23 24 25 25 26 26 26 25 25 26 27 28 29 32 34 36 39 40 39 40 40 40 40 42 44 46 48 50 51 53 54 56 58 57 56 55 56 57 59 62 64
4 4 7 7 9 13 15 18 19 20 22 24 25 27 28 30 31 32 33 33 32 31 32 31 31 33 35 37 38 40 42 43 43 43 45 46 47 49 50 52 54 55 56 55 53 52 53 55 58 60 62 65 67 68
11 10 9 9 5 5 3 6 9 15 21 27 29 31 33 33 34 34 34 35 35 35 35 36 36 38 39 40 41 42 44 45 46 47 48 50 51 51 51 50 49 49 49 51 54 56 59 62 64 65 65 65 64 63
12 15 15 14 18 16 14 18 23 17 16 17 18 20 23 29 34 35 37 39 40 39 39 39 41 41 41 42 44 44 45 45 45 46 45 44 44 45 47 49 51 53 55 57 59 60 60 59 59 58 58 59 60 62
14 17 19 20 22 20 22 23 21 17 22 26 25 25 26 26 26 26 27 27 27 29 30 30 32 34 34 35 35 37 38 40 41 42 45 46 49 51 52 54 54 54 55 54 54 54 55 56 59 61 63 66 67 69
18 21 23 23 23 24 24 22 26 31 33 32 29 30 30 30 30 32 32 32 33 33 33 34 35 35 36 37 38 39 40 42 43 44 45 46 47 48 48 49 49 51 53 55 57 60 63 65 66 68 70 71 72 72
25 25 25 28 30 28 29 32 35 35 33 30 31 31 31 30 29 29 29 30 30 31 32 32 33 34 34 34 35 36 36 36 37 39 40 42 44 46 49 52 55 58 60 63 65 66 68 69 70 71 72 72 72 71
27 27 31 30 28 31 32 28 23 19 17 15 15 15 16 17 17 18 19 19 19 20 21 22 24 26 27 29 31 34 36 38 41 43 46 48 50 52 54 57 59 61 62 64 65 66 67 68 69 70 72 74 76 77
31 27 27 26 24 20 17 16 16 17 17 18 18 19 20 20 21 22 23 23 24 26 28 30 31 33 35 37 38 40 42 43 45 46 48 50 52 53 54 55 56 57 59 62 65 68 71 73 74 76 76 77 77 76
24 23 22 21 21 22 23 24 25 26 26 27 27 28 28 29 29 29 29 29 30 31 33 34 35 36 38 39 40 41 42 43 45 45 46 46 48 50 52 55 58 61 63 65 65 66 67 67 67 67 67 67 66 65
22 22 23 24 24 23 23 25 25 26 26 27 27 28 29 29 31 32 32 32 32 32 33 33 34 34 35 36 36 37 37 38 40 42 44 46 49 49 48 47 47 48 49 51 53 54 55 57 58 59 60 61 61 60
23 21 20 21 23 24 25 24 23 22 22 22 22 22 22 23 23 23 23 23 24 25 26 26 27 27 28 30 32 34 37 39 40 39 35 32 32 34 36 38 40 41 43 45 47 48 49 51 52 54 55 55 55 54
21 21 23 25 26 26 24 23 21 20 19 18 18 17 17 17 17 17 17 18 20 21 23 25 27 28 30 31 32 30 26 23 23 24 26 28 29 29 29 31 33 36 39 41 43 44 45 46 47 47 45 43 41 39

GFSWCAN_500_spd_054.txt.gz
Wind_Speed
19 21 18 23 32 44 51 55 51 48 48 45 43 40 37 37 36 39 54 85 90 88 86 82 78 74 71 64 56 55 52 57 56 56 58 56 51 50 45 40 37 33 34 32 32 33 36 30 31 28 31 31 31 32
14 18 24 32 38 44 45 44 43 44 44 42 40 38 34 31 28 39 64 69 90 87 85 82 78 75 70 64 57 53 54 55 56 56 57 56 53 48 41 37 35 36 35 33 33 33 34 32 31 31 32 33 30 30
22 25 27 32 37 38 37 37 36 36 36 35 34 32 31 27 29 38 61 70 87 86 84 82 78 76 70 63 57 53 54 56 57 56 52 53 48 48 43 35 36 34 32 31 32 33 34 33 33 33 33 30 31 32
20 19 19 20 23 25 26 28 29 30 30 31 29 28 26 25 32 50 56 66 83 84 82 79 75 71 67 59 53 50 51 50 55 57 53 52 48 47 45 41 40 38 33 30 32 32 35 32 34 36 31 31 31 29
17 18 18 18 19 21 23 24 25 25 24 23 22 22 23 27 36 65 49 52 82 82 80 73 69 60 64 54 49 45 49 53 51 55 52 41 47 47 47 48 44 38 36 33 30 31 37 31 33 31 29 27 28 27
15 15 16 15 14 14 15 17 18 19 21 22 22 22 21 39 75 58 45 45 83 80 77 66 49 48 30 48 46 43 43 50 51 44 44 49 41 45 48 45 39 38 35 34 33 34 36 33 29 30 30 29 30 31
22 22 21 18 15 15 17 19 20 20 20 21 21 25 51 56 68 60 64 69 77 73 69 64 62 44 33 31 27 34 43 45 48 46 39 39 42 47 47 41 40 39 37 33 32 30 37 31 28 31 32 31 32 34
19 19 16 17 19 29 35 35 34 25 19 24 28 33 51 64 65 61 64 62 67 64 62 61 60 54 36 32 26 24 30 36 34 40 43 38 41 44 43 37 37 38 36 37 38 35 34 30 31 30 32 33 34 36
16 15 20 30 40 39 38 33 34 32 38 42 37 31 36 49 47 49 54 58 59 61 58 50 44 43 35 32 29 27 26 27 32 35 38 42 41 39 38 37 39 36 38 38 38 42 41 37 37 37 38 39 40 43
35 25 26 32 32 33 31 28 29 28 30 27 26 29 37 40 41 45 49 54 57 56 51 46 34 26 36 31 27 26 27 29 31 34 36 38 37 36 34 38 38 34 35 41 41 39 45 44 44 41 41 45 47 48
56 44 40 32 27 27 26 27 29 29 22 22 32 37 38 37 37 29 46 50 51 46 40 34 33 32 29 29 28 32 31 30 36 37 37 37 35 34 41 40 41 39 50 39 41 45 47 48 45 43 47 50 51 51
59 63 64 67 61 55 48 48 45 42 31 40 51 49 43 39 38 38 37 38 38 34 37 41 34 22 19 21 18 25 31 28 29 36 39 34 37 36 36 52 34 36 34 38 41 41 43 45 47 47 43 40 38 50
53 58 49 56 59 61 56 54 49 41 46 52 42 38 35 31 30 28 27 26 26 25 25 24 26 25 23 23 17 28 26 34 31 38 42 44 29 26 26 33 34 34 42 46 47 44 43 40 39 41 47 51 52 54
42 41 38 41 50 48 37 34 43 44 48 46 43 38 30 26 24 24 26 25 27 22 22 26 23 23 26 27 28 22 29 30 33 27 26 33 30 25 26 30 33 34 39 44 46 44 39 34 44 47 52 52 53 51
32 31 32 34 34 34 32 33 33 31 29 20 21 11 13 16 18 20 16 19 20 21 17 17 18 17 20 24 30 31 32 33 34 29 23 24 27 27 28 29 30 33 34 36 38 41 44 46 48 51 52 50 49 51
23 24 22 20 22 22 23 23 22 21 20 20 19 16 15 16 16 15 15 15 15 12 11 10 13 14 16 19 22 25 27 29 28 28 28 29 31 29 28 28 30 31 34 37 40 41 43 44 44 44 47 50 51 52
14 12 13 14 13 9 10 11 10 8 7 7 8 8 8 8 9 9 9 8 6 6 7 11 15 21 19 23 27 24 21 21 20 20 23 24 25 28 30 31 33 34 35 37 37 37 40 43 47 50 51 51 51 52
8 8 9 10 4 5 4 4 2 3 4 8 10 10 10 12 12 11 12 14 14 12 12 12 14 17 22 23 20 21 22 24 25 27 29 32 33 32 32 32 32 33 35 38 41 45 48 49 51 51 52 53 54 55
11 11 10 11 12 11 10 9 6 6 7 5 6 8 9 11 13 11 11 13 13 15 17 18 20 21 22 24 25 25 26 27 29 30 32 32 32 31 32 35 38 42 45 47 49 50 50 50 51 53 54 56 58 60
9 8 6 6 6 7 7 8 9 10 12 12 13 15 14 14 15 16 15 14 16 16 15 18 20 22 24 25 25 25 26 28 30 32 33 35 37 40 41 43 46 47 49 50 50 50 51 53 55 57 59 61 63 64
7 7 9 9 9 10 11 11 12 12 13 14 16 18 20 22 23 25 25 23 23 27 29 29 28 30 30 31 31 32 34 36 37 37 38 40 43 46 47 47 48 48 49 51 52 54 56 58 59 61 62 63 64 63
6 2 2 5 6 10 13 14 16 19 19 20 19 20 21 23 25 27 28 28 29 29 30 30 32 33 34 34 34 35 37 39 42 43 44 45 46 48 49 51 52 52 53 55 56 58 59 60 60 61 61 63 65 67
10 8 8 4 2 4 4 6 10 13 14 19 23 25 27 29 29 30 29 30 31 32 33 34 35 36 36 37 38 39 40 42 44 45 46 47 48 49 51 52 54 56 57 57 57 57 57 59 60 63 65 66 67 67
4 6 7 8 10 11 8 13 15 15 19 16 17 16 18 21 23 29 31 33 32 31 31 32 32 33 35 36 38 39 40 42 44 45 47 48 50 51 51 51 52 52 53 55 57 58 60 61 62 62 63 65 66 68
8 11 13 15 17 17 18 19 19 22 21 23 26 29 31 31 31 30 32 31 30 30 30 30 30 32 33 35 38 39 39 40 41 41 42 44 45 46 48 50 52 54 55 56 57 58 60 61 63 65 68 71 73 75
14 17 21 22 22 23 26 27 27 26 26 31 34 36 37 37 37 36 35 34 33 33 33 33 33 33 33 34 35 37 38 40 42 43 44 45 46 47 48 49 50 51 53 56 59 61 64 66 68 71 73 74 75 76
25 27 28 29 27 30 33 32 29 32 37 40 39 37 33 30 30 30 30 30 29 29 29 30 31 32 33 34 34 34 34 35 36 37 38 40 42 44 47 49 52 55 57 59 61 63 65 67 68 70 72 74 77 79
30 30 29 30 33 31 30 34 38 39 35 28 22 19 18 18 18 18 17 18 18 19 19 21 22 24 25 27 29 31 33 35 37 39 42 45 47 49 52 53 54 56 57 58 59 61 64 66 68 69 70 71 72 73
30 31 32 31 31 34 36 34 29 26 24 24 24 24 24 24 23 23 24 24 25 26 26 27 28 30 32 34 36 37 39 40 42 44 45 47 48 48 49 49 49 51 53 55 54 53 53 55 58 61 63 64 65 65
27 27 29 32 33 30 29 26 25 25 25 26 27 28 28 29 29 30 30 30 31 31 32 32 33 34 35 36 37 38 39 40 40 41 41 41 41 42 44 45 42 38 38 40 41 42 44 47 51 54 56 58 59 60
27 29 30 29 25 23 23 24 25 26 27 27 27 27 27 27 27 26 26 26 27 28 29 30 31 31 32 33 33 33 33 33 33 34 36 37 34 29 27 29 29 28 29 30 33 36 40 44 48 50 51 52 54 53
27 26 24 23 23 23 24 26 28 28 24 21 20 19 19 18 18 19 20 21 21 21 22 22 23 23 24 26 27 29 30 31 29 23 20 21 21 20 20 21 23 25 28 30 33 37 40 44 48 50 50 48 49 47
22 23 23 23 23 23 24 26 24 22 21 18 16 14 14 14 14 15 15 16 17 18 19 21 22 23 24 24 24 20 16 17 16 14 13 13 15 18 20 23 25 27 30 32 35 37 40 43 46 49 51 49 47 46

GFSWCAN_500_spd_057.txt.gz
Wind_Speed
17 17 14 16 22 31 34 38 51 47 48 47 45 48 47 50 49 42 37 33 39 59 80 87 85 81 77 70 62 55 52 51 50 52 60 54 53 51 48 41 43 37 36 32 33 32 26 19 22 24 21 23 27 29
24 16 13 19 20 36 43 45 45 45 44 44 46 45 45 46 43 39 33 31 37 50 78 86 85 80 75 71 62 57 52 49 47 48 51 56 57 53 50 48 43 41 35 31 33 32 27 24 24 26 25 25 29 32
20 23 25 28 31 38 40 39 37 42 41 40 40 42 42 42 37 34 32 30 37 52 70 78 80 79 76 71 64 57 51 52 52 50 49 48 49 47 50 48 46 42 37 37 34 29 26 27 27 27 27 29 34 33
24 22 26 30 33 37 36 36 36 35 36 39 40 39 38 34 31 28 28 28 34 40 62 53 74 75 68 68 62 55 52 52 50 50 50 50 49 46 44 44 44 42 40 37 34 27 27 27 25 27 30 35 36 33
18 21 24 25 25 25 26 26 27 32 35 34 32 31 30 30 29 27 27 33 30 22 57 71 60 55 66 65 61 55 51 50 49 50 51 49 50 47 44 44 44 42 41 38 34 31 34 30 28 30 33 37 31 29
17 17 16 18 20 22 24 24 24 26 28 28 27 27 28 27 28 27 27 37 41 34 48 57 63 59 55 60 48 40 50 49 49 50 50 48 47 48 47 46 40 39 40 41 38 37 36 33 34 34 35 36 33 31
17 16 15 16 18 19 19 20 21 22 23 25 27 30 30 28 28 25 35 45 37 36 37 51 31 46 55 53 47 47 43 45 49 49 51 49 45 44 48 49 39 38 41 40 40 39 35 37 36 36 32 33 36 34
19 16 12 12 14 16 18 20 22 23 25 25 26 27 25 25 19 28 40 39 45 42 37 55 35 39 45 29 24 42 38 42 45 48 47 47 46 44 48 39 38 41 41 39 40 40 39 37 42 40 36 33 32 32
26 32 31 30 28 24 17 13 15 19 23 24 23 21 17 43 48 32 29 26 37 39 39 57 45 35 34 30 27 28 28 30 38 42 44 42 42 45 41 32 32 38 39 38 39 40 40 41 43 38 41 42 41 39
32 33 32 35 33 32 36 38 41 32 25 27 21 48 57 46 38 31 38 33 40 41 36 53 46 41 42 37 29 32 20 14 24 33 35 35 33 32 33 36 36 38 38 37 40 40 41 42 45 42 39 45 46 48
52 38 29 26 28 28 25 22 23 34 44 37 36 57 42 31 28 31 29 25 42 42 45 44 45 45 41 32 24 24 21 18 21 22 24 25 24 29 32 33 35 35 36 39 40 41 44 46 46 45 44 49 48 48
56 56 53 44 42 41 41 35 32 30 32 32 37 45 32 25 19 11 23 29 40 40 36 32 29 26 24 27 26 23 21 23 23 22 23 22 24 30 29 32 35 36 36 37 41 44 46 48 42 38 43 44 48 47
48 46 50 53 55 59 58 54 44 45 52 45 40 28 19 17 18 12 23 30 31 28 26 24 26 25 24 27 23 22 22 22 24 26 30 31 26 20 31 36 37 40 35 38 33 39 34 37 39 43 48 51 49 42
46 41 41 43 40 37 37 39 42 43 44 41 30 26 26 22 24 24 23 24 24 23 25 28 30 34 21 15 17 20 19 21 25 24 22 24 26 27 33 41 34 29 29 32 34 30 37 44 47 44 39 32 43 43
36 40 39 40 46 47 43 39 38 35 27 21 14 20 26 25 25 25 25 27 25 26 25 21 19 19 18 18 22 25 23 23 27 29 27 27 27 26 28 30 26 25 27 30 30 30 34 34 35 41 39 40 47 52
25 28 30 31 32 29 27 21 20 15 11 7 15 20 24 23 19 17 19 21 22 19 18 23 23 19 24 26 27 29 31 33 29 28 27 25 24 23 24 27 28 29 29 30 29 33 34 37 39 43 46 48 49 48
21 20 22 21 21 21 19 19 22 22 21 20 22 23 21 19 18 17 16 18 23 22 20 19 20 21 15 18 20 19 20 20 19 20 20 18 17 18 20 22 23 24 30 34 35 38 42 44 45 43 42 44 48 51
10 10 9 12 10 10 13 13 13 10 9 8 9 10 11 12 12 12 11 11 12 13 13 16 19 24 27 26 25 25 24 23 26 26 24 23 24 25 27 28 30 33 35 36 37 37 36 37 41 44 48 52 55 56
12 10 6 3 5 5 5 5 5 3 3 4 3 5 6 9 10 11 12 13 16 17 17 17 18 19 20 21 22 25 28 26 22 22 24 25 27 29 30 30 31 33 34 35 37 39 42 46 50 53 54 55 56 58
7 7 6 4 3 4 5 5 4 4 4 4 4 5 5 7 9 11 11 12 14 16 17 18 20 21 24 24 24 24 24 25 27 29 30 31 31 32 34 36 37 38 39 41 44 48 50 53 54 55 56 58 60 62
8 8 9 8 9 10 9 8 8 8 8 9 11 12 13 13 14 16 18 19 19 19 21 23 25 25 26 27 29 30 31 33 34 35 36 37 37 37 37 38 39 42 45 48 50 51 52 54 56 57 59 60 62 65
4 4 5 5 5 5 5 8 10 12 13 15 16 16 16 17 20 22 23 24 24 25 27 29 32 33 34 34 33 34 35 37 38 38 38 38 38 39 41 44 46 47 49 50 51 53 54 56 58 60 63 65 67 68
7 4 9 8 3 5 4 5 8 10 11 12 14 15 17 21 24 27 28 29 30 30 32 33 34 34 34 34 34 34 35 36 37 38 39 41 43 44 46 47 48 50 51 53 54 56 58 60 62 63 64 65 67 69
6 5 1 2 4 6 7 10 12 13 14 15 17 17 17 19 23 25 26 26 26 28 31 34 35 36 37 37 35 34 34 35 37 39 41 44 46 47 49 50 52 53 55 56 58 58 59 60 61 63 65 66 68 71
1 4 6 9 12 15 16 17 18 20 21 22 24 24 24 27 28 29 30 32 33 33 32 31 32 31 32 33 34 35 36 38 39 41 43 44 46 48 50 52 53 54 54 56 56 58 59 60 62 65 67 70 72 74
10 12 15 18 22 24 23 23 25 28 29 27 26 28 32 37 41 43 42 39 37 37 35 34 33 34 35 36 37 39 40 41 42 43 44 45 47 48 50 51 51 52 53 54 56 58 60 63 65 66 67 67 68 69
19 21 24 28 31 30 30 31 29 28 30 35 38 41 44 43 40 34 29 27 27 27 28 29 30 31 31 33 34 35 37 38 39 40 40 41 42 43 45 47 49 51 53 56 57 59 59 58 58 58 57 56 57 58
26 30 35 33 30 30 28 29 34 37 40 41 42 37 34 31 27 24 21 19 19 19 20 20 20 21 23 24 26 28 29 31 33 35 37 40 42 44 47 49 50 51 51 50 49 49 49 46 44 45 45 46 50 54
36 36 33 29 28 30 35 38 39 39 37 33 28 27 28 28 29 29 28 27 27 26 26 27 28 29 30 31 32 33 35 36 37 39 40 42 43 44 44 44 43 42 42 40 36 35 35 35 37 41 44 47 50 54
29 26 26 30 35 38 38 36 34 31 28 28 29 30 30 31 31 30 29 29 28 29 30 31 31 32 33 34 35 36 37 37 37 37 37 36 36 36 36 35 31 29 28 27 28 31 34 37 39 41 43 46 49 52
25 29 33 36 36 34 33 31 28 27 28 30 31 31 29 26 24 23 23 24 25 26 26 27 27 27 28 27 27 28 28 28 28 29 30 30 27 22 21 20 20 22 24 27 30 32 34 36 38 40 41 43 46 49
28 29 31 32 32 31 28 26 26 28 30 30 26 23 20 18 18 18 18 19 19 19 19 19 20 21 21 22 23 24 25 25 23 18 17 16 13 12 14 18 21 23 26 28 31 32 33 35 36 38 39 41 43 45
27 29 30 30 27 25 24 26 28 29 25 22 21 17 15 14 14 14 15 16 16 17 19 20 21 21 21 21 21 17 13 12 11 8 7 9 12 16 19 21 23 25 27 29 29 30 32 34 35 37 39 39 40 42

GFSWCAN_500_spd_060.txt.gz
Wind_Speed
18 13 9 11 18 29 32 39 50 54 49 49 51 49 45 48 51 54 51 49 49 45 39 35 50 77 83 73 65 67 59 55 47 49 49 51 47 48 50 47 44 42 40 37 34 34 30 19 22 24 20 22 23 25
22 8 10 15 19 23 30 36 39 43 42 48 42 43 47 49 51 51 49 50 47 44 39 33 30 53 82 80 61 64 55 54 52 51 51 50 51 45 49 49 43 45 41 38 36 33 30 30 28 25 25 26 24 26
27 23 18 20 22 28 32 32 37 47 40 36 37 41 44 46 47 45 46 45 41 39 36 34 33 42 59 71 79 63 57 53 52 50 48 48 51 52 49 47 45 45 42 42 38 34 31 31 29 27 29 30 27 29
25 30 30 32 34 36 35 40 42 37 36 36 37 40 43 43 39 41 43 39 35 32 32 38 32 28 33 59 75 67 59 56 52 51 49 47 45 45 51 50 46 43 44 45 41 36 33 35 34 31 32 31 30 31
19 21 29 30 29 28 30 34 33 31 35 35 38 41 38 36 38 40 37 34 31 28 29 47 42 39 27 43 73 63 58 56 52 51 51 48 44 43 41 40 42 41 42 46 43 39 40 41 35 30 33 34 33 34
20 20 19 20 22 25 27 28 29 29 33 38 38 37 35 32 33 35 32 30 29 28 32 33 54 46 33 33 38 63 56 52 51 49 47 46 44 45 43 41 35 33 33 32 36 41 43 41 37 35 35 35 36 38
19 20 20 21 21 22 23 25 27 31 35 35 34 31 33 33 31 30 27 23 27 28 31 35 37 53 41 33 35 46 55 51 49 50 49 45 42 44 46 42 30 31 33 32 32 34 35 39 41 41 40 37 39 38
17 16 18 20 21 23 25 26 27 28 29 29 29 30 30 30 29 27 25 29 30 26 26 41 38 37 30 31 41 44 48 48 49 47 46 44 43 44 49 39 31 30 27 28 33 34 36 40 41 43 40 41 42 43
17 18 17 16 15 17 21 23 24 24 25 25 24 25 26 28 28 26 25 34 30 21 21 49 44 44 34 30 30 35 36 41 43 43 43 43 44 48 41 33 29 29 30 30 33 39 39 40 42 42 44 45 45 46
30 29 25 17 15 19 19 19 20 22 22 22 21 21 22 21 23 25 28 42 34 27 44 51 42 34 21 37 35 36 41 41 37 35 36 42 43 37 38 36 31 30 33 33 34 37 40 42 44 47 49 45 45 45
23 27 28 28 27 19 20 24 24 23 23 20 16 18 24 28 30 31 32 40 37 36 45 41 27 38 34 32 32 29 30 31 32 29 23 40 40 35 33 31 31 32 33 38 41 40 39 41 42 43 45 47 45 46
39 33 33 36 40 45 43 34 28 27 25 22 25 28 25 28 31 21 18 20 30 46 53 43 37 42 37 34 28 19 33 31 20 15 16 17 21 24 28 28 30 31 33 34 36 39 41 40 41 41 44 46 45 47
57 58 59 55 55 58 56 55 52 46 38 40 35 33 31 31 26 20 19 30 31 52 49 37 43 45 41 33 22 17 20 18 18 15 16 17 20 22 20 19 20 29 31 31 34 37 38 38 42 46 42 43 49 46
47 47 49 51 51 51 50 47 45 41 33 25 24 20 10 11 10 16 33 37 36 54 47 33 26 26 26 26 27 23 23 24 22 19 19 22 22 24 28 27 28 25 32 37 38 37 38 36 35 38 34 33 36 44
40 41 37 35 36 35 33 29 24 23 23 19 15 12 15 9 16 32 37 42 41 38 36 32 29 25 26 25 23 23 23 23 22 24 24 24 22 21 22 24 24 25 26 29 33 34 34 35 37 36 35 36 37 38
33 35 37 34 35 32 26 23 23 16 11 11 17 21 27 28 24 26 27 26 26 26 26 25 28 33 30 20 17 19 22 25 25 23 23 23 24 27 29 29 28 28 29 32 33 30 30 32 33 34 36 37 42 41
23 28 28 26 29 33 31 29 26 26 24 20 18 16 16 15 13 17 22 23 20 18 20 25 26 24 25 22 18 24 26 26 27 29 30 29 26 24 26 27 27 27 30 31 30 30 31 34 37 39 41 44 48 51
17 18 17 18 18 18 20 21 21 19 19 20 18 19 20 19 18 16 16 15 14 15 21 22 20 21 24 19 18 22 25 24 23 24 25 24 24 24 25 26 26 27 28 29 31 34 38 42 43 45 47 47 47 48
8 8 9 8 10 12 13 12 13 13 13 12 10 9 9 9 9 9 11 12 13 13 14 17 20 23 25 26 27 26 26 27 27 28 28 27 23 23 25 27 30 33 34 36 39 40 40 41 43 44 47 49 51 53
6 5 4 3 3 4 5 3 4 4 5 5 5 6 6 6 8 9 10 12 15 18 19 20 21 21 23 25 27 27 27 27 27 27 28 28 29 29 31 34 36 38 39 40 42 44 45 48 50 51 51 53 57 61
4 2 0 2 3 4 4 4 3 3 2 1 2 3 5 7 9 11 13 15 17 18 20 22 23 24 25 26 27 28 28 28 29 30 32 33 34 36 38 40 41 43 45 46 48 50 52 52 52 54 57 60 61 63
7 6 6 3 2 3 4 3 5 5 5 6 7 9 10 12 13 14 16 20 23 24 26 27 29 30 31 32 34 35 36 37 37 38 39 40 40 40 41 42 43 44 46 47 49 50 51 52 55 57 59 60 62 64
8 7 7 9 5 5 5 6 7 8 9 10 12 13 14 15 17 18 20 22 24 27 29 31 33 34 35 34 34 33 33 33 34 35 36 38 40 41 42 43 44 45 46 47 49 51 53 56 58 60 61 62 63 65
8 8 7 2 2 4 6 9 10 12 13 14 15 17 19 22 24 26 28 28 29 29 30 31 32 32 32 32 34 36 36 35 34 35 37 40 41 43 43 45 47 48 50 51 52 54 56 57 58 59 60 61 64 67
6 4 2 5 8 10 13 15 17 18 20 21 22 23 25 27 29 31 32 35 37 38 38 38 39 39 38 37 35 33 32 33 34 35 37 38 39 41 43 44 45 46 47 50 53 54 54 55 57 59 61 64 66 67
4 7 10 13 16 19 22 23 23 22 22 21 23 26 30 33 35 38 42 46 49 49 45 41 39 37 36 36 36 36 37 37 38 39 40 42 43 44 46 47 49 50 50 51 52 53 55 57 59 60 61 59 58 57
14 16 19 21 24 27 28 27 25 23 23 28 33 36 39 42 46 44 42 38 34 29 25 24 24 25 27 30 33 35 37 38 40 41 42 43 43 44 44 44 45 46 48 49 51 53 54 54 52 51 50 47 45 46
19 21 23 28 31 30 28 26 26 30 35 39 42 42 41 38 33 30 27 26 25 25 24 22 22 22 22 22 23 25 26 28 30 32 33 35 37 39 40 42 45 47 49 48 47 45 44 41 39 38 39 41 44 46
26 29 33 31 29 26 27 31 35 39 42 43 39 34 30 28 28 29 29 29 29 28 28 28 27 28 28 29 30 31 32 34 35 37 39 40 41 42 43 43 42 39 37 36 33 30 30 31 34 37 39 41 41 41
31 29 25 24 28 32 34 36 38 40 36 31 28 27 29 31 33 33 31 29 27 27 27 27 28 28 29 30 30 31 32 32 33 33 34 33 33 32 30 31 29 25 23 23 24 27 29 31 33 33 34 36 38 40
22 26 28 30 31 34 36 37 34 30 28 28 29 31 34 32 28 24 21 20 20 19 19 20 22 23 24 25 26 26 25 25 25 25 25 26 25 21 18 16 16 18 21 23 25 27 28 28 30 32 35 36 38 40
25 26 29 31 33 34 33 31 29 29 29 31 33 30 25 21 19 17 15 15 15 15 16 17 17 18 19 19 20 21 22 23 24 19 15 12 9 9 11 15 18 20 22 24 24 24 26 29 31 33 35 37 38 38
24 26 29 30 30 30 29 28 29 30 32 30 26 22 19 16 14 14 14 14 15 16 16 17 18 19 19 19 19 18 14 11 10 7 5 6 9 12 16 18 19 21 21 21 23 25 27 29 31 33 34 35 35 36

GFSWCAN_500_spd_063.txt.gz
Wind_Speed
27 13 13 14 27 16 1 29 37 46 54 53 51 47 57 52 49 54 49 50 42 46 46 47 45 39 31 46 64 64 59 66 51 53 54 53 51 48 48 42 45 47 43 44 36 39 39 30 25 25 16 24 26 28
18 13 13 12 22 17 24 32 31 44 44 50 51 52 59 56 57 46 45 44 43 43 35 37 37 34 29 35 62 61 54 52 52 53 54 54 52 49 47 46 41 34 40 43 43 40 33 30 29 27 24 23 28 30
20 18 16 15 19 30 31 33 43 46 42 47 48 49 58 52 45 42 40 40 41 38 25 33 38 35 24 31 56 63 55 51 52 51 51 51 49 41 44 44 44 46 42 40 41 37 36 34 33 30 28 28 32 32
22 24 20 19 22 24 28 34 39 40 44 44 46 52 52 49 46 41 39 36 40 37 31 30 31 31 24 27 39 66 53 52 55 53 55 51 47 45 45 47 45 45 47 47 45 43 40 40 35 31 34 36 35 34
20 21 24 27 29 36 38 37 38 40 41 44 39 42 46 44 39 37 33 36 46 37 34 29 27 24 26 29 54 58 61 52 59 51 53 55 51 47 46 45 44 42 40 42 43 42 42 45 37 39 37 37 36 38
17 21 27 29 33 30 28 33 33 35 38 40 40 41 39 36 35 35 37 39 42 40 34 30 26 27 22 27 33 45 61 49 45 50 51 53 48 47 45 41 36 35 46 43 40 40 44 44 42 45 45 42 40 42
18 21 23 24 25 25 28 34 37 37 34 36 36 35 36 37 35 37 38 34 32 29 27 20 31 31 33 27 23 30 45 63 48 44 47 46 48 46 45 41 27 31 33 32 34 35 33 34 34 31 39 45 45 47
14 18 21 23 23 23 24 28 31 35 36 37 37 37 37 37 36 34 32 32 28 24 19 19 34 32 32 29 27 29 27 52 58 41 43 44 43 42 47 39 28 31 29 28 28 29 32 35 36 38 41 43 46 48
15 17 18 20 23 25 27 30 32 32 32 33 33 35 35 34 32 30 30 27 25 19 15 16 33 36 35 35 30 29 29 37 54 54 49 45 44 43 41 28 31 26 26 27 29 31 30 34 39 41 44 45 47 48
13 13 19 21 22 25 25 24 24 24 24 24 25 28 28 28 27 26 24 21 16 12 11 13 26 55 41 34 34 37 31 36 43 46 43 42 40 37 40 34 30 28 26 26 28 32 34 36 39 41 45 47 47 45
20 15 19 23 25 25 24 25 24 22 21 21 22 21 21 22 22 21 18 18 16 9 12 27 31 46 47 39 36 31 29 28 31 34 33 33 31 34 35 30 31 29 30 33 35 36 38 40 42 43 42 41 42 43
30 22 23 27 28 27 25 24 23 22 18 15 15 15 16 18 19 22 22 22 19 21 39 40 44 39 33 37 37 31 31 29 26 27 26 26 27 28 34 37 33 31 29 31 33 35 36 36 38 41 42 41 41 42
58 54 41 32 28 26 24 30 35 39 37 34 27 21 16 21 17 15 16 25 29 37 55 52 20 15 14 20 43 43 39 35 29 28 29 27 22 16 18 23 24 23 23 25 30 30 30 33 34 36 38 40 43 45
50 53 54 52 49 46 46 42 38 33 31 27 24 24 24 21 18 17 15 19 20 34 55 28 21 20 25 32 20 26 29 31 26 27 29 24 19 18 18 20 24 25 24 24 24 27 32 35 38 39 42 41 42 45
37 38 41 40 37 35 30 30 31 26 24 18 19 11 11 4 9 16 19 23 38 54 37 21 20 20 19 16 18 18 15 16 17 18 20 22 22 21 23 24 26 28 31 32 33 30 30 32 34 38 39 40 39 38
36 36 35 32 26 26 26 26 25 25 25 22 25 21 16 15 19 32 49 48 41 30 26 28 25 24 22 20 21 18 17 15 16 18 19 21 22 22 22 24 26 28 30 31 32 33 34 36 36 38 36 37 39 42
27 28 31 30 30 27 22 20 22 23 25 25 27 28 28 30 33 55 53 48 39 34 34 37 34 28 25 24 22 16 15 18 17 19 23 26 26 27 30 32 33 33 33 33 34 36 37 37 37 36 35 37 39 42
21 23 22 23 26 28 27 26 26 24 21 23 21 22 28 31 33 35 36 30 24 20 20 20 21 22 24 28 18 14 15 18 21 25 28 30 31 31 30 31 33 32 32 33 33 32 32 34 36 37 38 40 43 46
9 11 15 17 19 19 19 21 21 21 22 22 23 21 17 16 16 14 14 15 17 18 17 17 16 15 18 20 18 15 18 22 25 26 27 28 28 28 31 32 33 32 32 31 34 36 37 38 41 44 46 49 51 53
7 7 10 14 16 14 12 15 12 12 13 14 15 14 13 13 13 12 10 10 10 12 14 17 19 18 17 19 21 21 23 25 27 28 27 27 27 28 29 29 31 32 34 37 41 43 45 47 48 50 52 54 57 59
6 4 4 5 8 9 7 8 8 9 8 8 7 6 5 2 1 3 6 9 11 13 15 17 19 21 22 23 23 25 26 28 29 29 29 29 31 32 33 35 37 39 42 45 47 49 51 53 55 56 57 58 59 61
6 6 8 7 13 11 9 9 10 10 9 9 7 5 3 2 4 6 9 11 14 17 19 21 23 25 27 29 30 32 34 35 36 37 37 38 37 38 39 41 42 44 47 48 50 51 52 53 53 54 55 56 58 61
10 8 9 12 8 6 8 9 9 9 9 9 9 9 9 9 9 10 11 12 14 16 19 21 23 27 30 33 35 38 39 40 40 39 39 40 40 39 40 41 43 44 45 47 47 48 50 51 53 54 57 59 61 63
8 8 10 6 3 4 6 8 10 11 12 13 14 15 16 17 19 20 23 26 28 30 33 35 37 39 41 42 42 41 41 41 41 39 39 39 40 40 42 43 44 45 46 47 48 48 50 52 53 55 58 61 63 65
8 5 3 2 5 7 10 13 15 17 19 20 22 23 22 26 28 30 32 33 36 38 41 43 46 48 48 49 49 49 47 44 43 40 39 40 41 42 43 44 44 45 46 47 49 50 53 56 58 59 60 61 62 63
3 2 6 9 13 16 18 20 22 23 25 25 25 24 25 28 32 36 41 44 47 48 48 46 44 39 34 33 33 34 34 35 36 37 38 40 41 43 44 45 46 48 50 52 54 55 54 54 53 54 56 58 56 54
8 11 13 15 17 19 22 24 26 25 22 21 24 28 32 38 43 44 45 43 41 38 35 31 28 25 24 24 25 27 30 33 35 37 38 40 42 43 44 44 45 45 44 44 44 46 48 49 50 50 48 45 43 42
13 15 18 21 23 26 25 22 19 22 26 30 35 40 44 44 42 38 35 32 29 27 27 27 27 27 26 26 26 26 26 26 27 28 29 31 33 34 36 38 40 42 44 45 46 46 44 42 39 36 35 36 38 39
19 22 24 22 18 19 22 25 27 30 34 39 41 41 38 35 31 28 28 29 31 32 31 30 29 29 29 29 30 30 31 32 33 34 36 37 38 38 39 39 39 37 35 33 32 30 28 28 29 31 33 33 34 37
20 19 20 22 23 24 25 27 31 36 39 38 36 32 30 29 31 32 32 30 28 26 24 23 23 24 26 27 28 29 29 30 30 31 31 30 30 29 27 26 25 23 20 19 20 23 25 27 27 28 30 32 34 36
19 21 22 23 24 25 28 32 36 36 34 30 29 28 31 31 29 25 21 19 17 17 17 18 18 19 19 19 20 20 21 21 22 22 22 22 22 21 17 13 11 13 16 19 21 23 22 23 25 27 30 32 34 35
21 22 23 24 26 29 31 33 31 29 28 27 29 30 29 25 20 18 15 14 13 13 13 14 15 15 16 16 17 18 19 20 20 21 17 13 10 7 8 10 14 17 19 20 19 19 22 24 26 29 31 32 34 36
22 23 24 26 27 29 29 28 28 27 27 28 29 27 22 18 16 14 14 14 15 16 17 17 17 17 18 18 18 18 16 13 10 9 7 6 6 9 12 15 17 18 18 17 19 21 23 26 28 29 31 33 35 37

GFSWCAN_500_spd_066.txt.gz
Wind_Speed
25 24 25 26 28 33 30 32 37 36 42 39 41 42 46 53 61 71 60 53 51 52 44 42 34 37 34 37 39 30 46 58 51 61 60 36 39 55 46 33 44 37 39 39 41 41 46 37 32 36 26 20 26 26
25 22 22 21 28 19 17 6 24 33 42 41 43 45 47 48 56 75 54 49 52 45 38 28 30 27 30 33 31 30 48 49 47 49 61 58 41 49 49 44 42 38 24 40 45 43 37 28 27 29 28 32 30 31
25 19 17 21 26 17 11 19 29 42 43 40 42 44 45 46 47 62 61 49 51 42 37 37 27 29 26 33 30 29 44 52 49 45 43 57 56 49 42 42 43 44 25 24 36 42 45 44 30 31 40 28 30 32
25 22 15 18 24 28 28 28 34 40 39 39 39 39 40 44 51 62 52 44 43 39 37 38 42 30 30 33 26 27 48 53 37 41 49 54 48 51 40 38 39 44 46 41 35 25 35 39 41 37 31 35 35 36
20 25 26 25 21 26 26 29 31 36 38 38 44 47 46 50 48 44 46 39 37 38 33 26 26 34 32 29 22 23 46 54 32 34 52 55 49 48 50 43 37 42 45 51 51 37 37 37 37 38 36 37 42 39
17 15 18 23 26 26 25 29 33 38 39 42 52 46 47 45 46 43 42 37 30 34 26 26 26 28 28 25 24 24 45 54 49 32 37 52 52 46 48 46 41 37 37 42 43 42 43 48 46 42 41 41 46 48
18 16 15 18 24 27 28 30 32 33 34 36 45 48 46 41 36 35 34 31 37 37 37 26 21 21 21 21 19 28 37 47 43 39 52 43 48 48 46 43 34 32 32 37 41 42 41 38 35 38 39 43 43 44
15 16 16 17 20 28 29 28 29 33 35 39 40 39 37 35 32 33 34 33 39 39 30 22 19 17 19 17 20 40 40 38 53 33 40 51 44 40 46 43 30 30 32 33 34 35 30 29 35 34 33 37 38 35
15 18 18 18 19 24 28 30 32 34 35 35 35 35 35 34 32 32 31 33 39 32 23 18 16 22 20 20 14 26 46 46 54 57 34 35 42 39 34 31 34 39 37 35 31 30 29 29 28 35 32 35 40 43
17 19 24 25 25 26 28 30 32 33 33 32 32 31 32 33 33 33 32 30 28 23 20 18 21 25 21 24 18 28 33 38 50 50 42 35 34 37 37 31 29 27 30 30 27 30 31 33 34 37 40 41 43 45
20 22 24 26 27 28 28 27 26 26 28 30 31 30 30 29 29 28 25 24 22 18 17 19 27 32 31 29 24 23 24 28 28 53 45 39 35 35 31 26 27 25 25 25 29 30 33 35 37 37 41 44 45 47
24 23 22 23 24 24 23 23 24 25 25 25 23 21 22 23 23 24 23 22 21 15 13 19 26 40 37 38 34 28 17 15 34 32 49 45 37 33 29 27 25 24 25 27 30 32 35 39 42 43 44 45 45 47
28 25 23 22 21 20 19 19 22 24 23 24 24 24 25 24 24 24 22 23 21 15 9 14 15 37 37 34 24 12 12 13 22 27 32 35 29 24 23 25 28 28 31 36 37 37 37 39 40 41 40 40 40 40
28 24 22 19 20 21 20 20 18 14 17 18 19 22 16 21 22 22 23 26 23 19 15 23 21 28 36 27 26 26 24 14 28 19 26 26 27 24 24 25 24 22 22 26 30 32 31 31 35 37 37 37 38 39
36 34 32 30 30 31 29 27 25 23 18 16 16 12 13 15 15 16 17 24 28 27 19 31 21 24 22 17 10 26 28 23 31 28 26 26 23 23 24 21 22 22 22 25 27 30 31 30 30 31 33 38 40 40
29 27 27 25 24 25 25 24 20 15 11 7 4 8 2 5 13 16 12 17 27 32 38 27 24 18 17 22 25 12 22 26 23 28 25 18 19 19 20 20 21 23 23 23 25 26 27 29 33 36 38 40 41 42
28 27 25 22 22 23 24 23 21 17 13 11 10 12 12 11 15 18 18 20 34 36 24 23 16 6 13 13 15 16 16 12 13 14 11 12 15 18 19 21 23 25 27 28 29 31 33 35 37 39 41 41 41 42
24 25 26 26 25 21 19 19 18 17 16 18 18 15 14 16 22 25 35 38 33 22 18 15 19 17 13 10 10 13 16 10 14 14 19 19 20 22 24 25 27 28 27 28 29 31 32 34 35 36 38 39 41 43
16 17 19 21 22 23 24 25 24 20 18 26 28 29 26 24 25 28 25 16 10 6 5 7 8 8 11 11 12 20 22 18 19 20 21 23 26 28 29 30 31 32 33 34 36 37 38 40 40 42 45 47 46 45
12 13 15 17 20 19 18 21 22 22 24 23 19 20 23 23 21 16 11 8 9 11 10 9 10 12 13 18 18 21 22 20 17 19 22 25 26 28 29 31 33 35 37 39 41 42 43 44 45 46 48 50 53 54
8 9 9 10 14 13 11 14 14 17 17 17 19 18 16 15 13 13 10 8 8 10 11 11 11 13 14 15 16 17 18 19 21 22 24 26 28 30 32 34 36 38 40 42 43 45 46 48 49 51 53 54 56 57
5 7 11 12 16 14 13 15 16 16 14 14 14 13 11 9 7 6 2 2 2 6 9 12 15 18 21 23 25 28 28 29 30 30 30 30 31 32 34 36 38 40 41 43 45 46 47 48 49 50 51 52 54 55
12 10 12 15 11 9 12 13 12 12 11 11 10 10 10 9 10 10 11 11 12 15 18 20 24 27 30 32 33 35 36 37 39 40 41 41 41 40 39 39 40 41 42 43 44 45 46 47 48 49 51 52 54 56
12 11 13 10 6 8 9 10 10 11 12 13 14 15 16 17 19 21 23 25 27 31 32 34 37 38 41 43 45 45 45 45 45 47 47 45 43 41 41 41 42 43 43 45 45 46 47 48 50 52 53 55 57 60
10 9 7 5 5 7 9 12 13 14 16 17 19 20 20 25 27 29 31 33 35 38 41 43 45 47 47 46 46 45 45 45 44 41 39 39 38 39 39 40 41 43 44 45 46 47 49 50 51 53 55 56 57 58
6 3 1 5 8 11 14 15 16 18 20 21 20 23 25 26 30 33 36 41 44 47 48 49 47 44 40 35 32 30 31 33 33 32 34 35 37 38 39 40 41 42 44 45 45 47 48 48 49 49 50 52 53 54
3 4 7 10 12 14 17 19 20 21 20 20 23 26 29 32 35 38 42 45 45 45 44 41 36 31 28 27 26 26 26 27 28 29 32 35 37 39 40 40 40 40 39 39 39 41 43 45 46 47 47 45 42 39
6 9 12 14 16 17 17 19 20 21 23 25 27 30 34 37 40 42 43 43 41 38 34 32 32 32 33 32 31 31 30 30 30 30 30 31 31 32 33 35 36 38 40 41 41 41 39 37 34 31 30 30 32 32
11 14 17 18 19 19 21 22 23 24 26 28 31 37 39 40 40 39 37 36 36 36 37 37 36 35 33 32 31 31 31 32 32 33 33 34 35 35 36 36 35 34 33 31 28 26 24 23 24 26 27 26 27 30
17 17 18 19 21 22 23 24 25 27 29 34 40 40 39 37 36 35 35 36 34 31 28 27 26 25 24 24 24 25 26 27 28 29 29 30 29 28 27 25 24 24 21 18 16 18 21 23 23 22 24 26 29 31
18 19 20 22 23 25 26 27 29 32 36 40 39 37 35 34 33 32 28 25 21 19 18 17 17 17 18 19 20 21 21 20 21 21 21 21 21 21 21 17 13 11 12 16 18 20 20 20 21 23 26 28 30 32
21 24 25 26 27 28 29 31 34 36 38 37 35 33 32 30 28 24 20 17 15 15 15 16 16 16 17 18 19 19 20 20 20 20 20 17 13 10 8 8 10 13 16 18 19 18 19 21 23 25 27 29 31 33
26 26 27 27 29 31 31 32 33 34 34 34 34 33 30 27 23 19 17 16 17 18 19 19 19 19 19 18 18 17 17 15 12 10 9 7 6 7 9 12 15 17 19 19 18 19 21 23 25 27 28 30 32 34

GFSWCAN_500_spd_069.txt.gz
Wind_Speed
29 30 33 28 29 35 39 41 39 39 41 39 38 39 41 43 52 58 66 65 61 51 55 43 42 46 38 42 44 39 33 33 39 34 56 56 56 46 35 38 31 36 35 42 44 45 46 42 43 40 41 32 26 30
28 29 30 24 29 33 24 24 27 36 36 44 40 37 43 40 46 55 55 62 55 51 47 35 32 32 31 33 35 36 32 28 28 38 34 55 53 52 45 35 43 36 31 43 42 46 37 29 37 40 39 34 35 39
22 27 18 23 29 18 12 16 2 20 30 40 42 36 34 36 45 50 55 62 54 54 46 37 27 30 31 33 36 33 36 35 24 39 52 44 50 58 41 22 34 38 32 38 34 36 40 38 35 28 40 43 40 38
19 26 24 24 23 18 18 23 23 23 28 36 39 35 36 39 47 54 57 60 55 50 41 35 27 25 26 31 36 31 38 37 33 54 39 54 47 62 56 41 26 37 37 38 31 31 34 41 29 34 31 36 42 46
20 24 23 22 25 22 24 25 29 32 32 34 34 34 38 43 49 58 51 52 45 43 36 34 30 39 28 31 28 37 35 26 29 48 45 36 44 38 46 51 47 33 40 40 42 34 35 35 42 37 43 33 37 43
18 25 22 25 26 22 24 25 25 26 28 32 34 32 32 39 55 52 46 44 37 38 38 39 34 27 33 27 33 32 24 20 29 53 40 42 33 38 39 44 50 43 41 45 46 46 45 41 44 33 31 33 32 32
13 20 19 25 27 27 26 24 27 31 32 32 33 36 38 36 50 50 48 36 31 33 37 33 35 41 34 29 31 30 31 25 31 47 51 38 30 35 37 36 42 45 41 37 44 48 48 47 47 38 34 39 42 45
13 17 19 23 25 29 26 29 37 41 45 41 40 43 42 49 51 44 37 37 33 31 33 31 27 30 27 25 23 22 28 27 44 47 46 29 37 37 41 42 41 38 41 42 41 37 34 36 38 34 35 39 38 38
14 17 19 23 26 29 32 34 35 37 40 41 41 39 41 41 41 37 38 41 41 32 30 26 25 23 22 19 16 20 25 30 51 44 46 21 30 34 33 33 38 37 34 36 37 37 35 33 33 32 27 29 33 34
17 17 15 18 23 26 31 36 36 38 36 33 32 33 36 38 39 38 32 32 41 33 30 23 18 19 13 16 18 14 24 34 45 44 39 32 26 39 40 36 30 32 34 35 37 35 31 30 30 32 32 34 35 37
21 22 22 23 22 23 24 24 26 30 34 32 31 31 33 33 34 32 31 29 32 32 26 20 19 15 15 18 18 12 18 30 44 39 34 40 34 31 33 42 33 28 29 32 36 37 36 33 33 34 35 36 38 41
19 19 20 20 21 23 23 24 23 23 23 24 24 26 26 26 27 27 26 26 26 22 19 18 18 18 22 24 18 10 11 22 39 37 42 44 42 29 30 31 32 26 25 23 24 27 30 35 36 36 37 39 41 43
18 18 17 17 17 18 18 18 19 21 23 23 23 22 24 25 25 24 24 23 22 21 18 15 16 19 27 27 24 13 18 13 17 22 28 42 52 41 34 30 28 24 24 23 24 26 29 33 36 40 42 42 44 46
17 16 15 15 15 13 13 13 17 21 21 20 21 20 22 21 22 24 24 25 22 16 7 11 14 16 30 25 24 22 21 15 18 10 22 23 38 38 37 30 26 25 26 27 30 34 38 41 44 44 42 41 42 43
25 28 27 27 28 25 22 21 15 13 11 11 9 13 13 18 21 23 24 24 18 11 5 11 11 14 19 19 17 17 12 12 10 13 17 20 22 38 41 33 27 22 26 28 28 28 30 32 34 36 36 36 36 33
20 20 20 20 19 19 20 19 18 16 15 11 8 11 12 16 20 20 24 23 19 12 10 14 14 13 17 18 14 11 13 17 18 16 18 15 17 18 30 28 26 29 25 25 25 26 28 29 31 31 32 34 36 38
16 15 14 15 15 15 15 16 19 18 13 9 6 11 12 15 20 19 23 24 20 13 20 19 17 8 10 11 10 10 8 9 7 14 22 21 22 19 18 25 27 26 28 29 28 27 28 29 31 33 36 39 41 44
20 16 13 10 10 12 16 17 22 22 18 18 19 18 15 16 17 15 19 21 20 27 27 20 11 10 10 15 20 13 12 12 10 11 15 11 22 23 27 29 24 23 25 27 29 29 31 32 34 36 38 39 41 43
20 22 23 24 23 19 15 16 18 17 17 21 22 22 24 26 28 30 30 32 29 26 21 12 4 6 5 5 8 10 14 17 17 19 21 20 16 15 19 23 24 28 29 30 32 34 35 37 38 39 40 42 44 46
16 19 20 21 22 23 21 22 18 13 13 16 18 19 17 19 25 26 21 17 10 3 4 5 6 8 10 12 13 14 12 13 19 20 15 13 15 16 18 21 24 27 29 31 33 35 37 38 40 41 42 43 44 46
11 11 13 17 18 19 16 21 22 21 16 12 10 9 6 6 3 3 6 6 3 2 2 2 5 6 8 9 12 13 15 16 18 18 19 20 21 23 25 26 28 28 29 30 32 35 38 40 41 43 44 46 47 48
11 11 13 16 21 18 17 19 20 19 19 18 17 16 14 13 10 9 8 4 2 4 8 9 11 14 16 19 21 23 25 26 27 28 28 28 29 30 32 34 36 37 38 39 40 40 42 44 45 47 48 49 49 51
12 13 16 17 15 13 17 18 17 16 15 15 13 13 11 11 9 7 7 8 10 13 16 18 20 22 25 27 29 31 33 34 35 36 37 37 37 38 39 39 39 40 41 41 42 43 45 46 47 48 49 50 51 52
12 13 14 13 11 12 12 12 11 11 11 10 9 9 10 10 11 13 14 17 19 21 24 27 30 32 34 37 39 42 43 44 45 44 42 39 37 36 37 38 39 40 41 42 43 44 45 46 46 47 48 49 50 52
10 10 9 9 6 7 8 8 9 10 10 11 12 12 13 16 17 20 22 24 27 30 32 35 38 41 44 45 46 44 41 40 39 39 37 35 33 33 34 35 37 38 40 41 41 42 43 44 46 47 47 47 48 49
8 5 3 3 5 6 8 9 10 12 14 16 17 20 22 24 25 26 29 32 34 37 40 44 47 50 50 50 44 38 31 28 27 27 29 30 30 31 33 34 35 35 37 38 39 40 41 41 41 42 43 44 45 45
5 2 2 4 6 8 11 13 15 18 20 22 23 25 25 27 29 32 35 38 41 45 46 48 48 44 38 34 32 30 30 29 29 29 29 30 30 30 31 32 32 32 32 32 33 34 36 39 41 41 40 37 34 31
4 4 5 7 10 12 15 18 20 21 23 24 25 25 27 30 35 39 42 45 46 47 46 43 40 39 38 37 36 34 33 32 31 30 31 32 32 32 33 34 34 35 36 36 37 37 35 34 31 28 26 25 26 25
7 8 10 12 14 16 17 20 22 24 25 26 27 29 32 38 43 46 47 47 46 43 40 40 38 34 30 28 27 25 25 25 26 26 28 29 30 31 32 32 32 32 31 30 27 25 23 20 19 21 23 22 22 25
11 13 15 16 17 19 21 25 27 27 28 29 31 35 40 44 48 48 45 41 38 37 33 29 24 22 21 21 20 20 20 21 22 22 23 23 23 23 23 22 22 21 21 20 16 14 16 19 20 19 19 22 24 27
16 19 21 20 21 25 27 28 30 30 31 35 37 40 44 47 46 42 39 35 31 26 22 20 18 17 17 17 18 18 18 19 19 19 20 20 20 19 20 19 17 13 10 11 14 17 19 18 18 19 22 24 27 29
22 24 22 23 27 30 30 30 33 34 35 37 39 42 44 44 40 37 32 28 24 20 19 20 20 21 21 22 22 22 22 21 21 20 20 19 17 13 11 8 7 9 12 15 17 19 19 19 20 22 24 26 28 30
24 23 26 29 30 32 32 32 32 33 35 37 40 41 40 39 35 31 26 23 20 20 22 22 22 21 20 19 19 18 18 16 13 11 10 9 8 6 7 8 11 14 16 18 19 20 19 20 22 24 26 28 30 32

GFSWCAN_500_spd_072.txt.gz
Wind_Speed
21 25 28 31 29 29 32 36 40 43 44 42 39 38 43 43 43 45 45 63 71 44 56 47 50 52 49 47 48 43 42 42 42 40 36 33 33 43 57 51 44 43 45 46 42 35 38 36 49 55 51 51 48 40
21 23 30 30 29 28 25 28 30 32 34 42 44 38 41 44 44 44 41 67 71 51 36 51 47 49 39 38 39 45 43 40 41 38 36 31 33 32 46 52 46 40 35 38 38 36 35 36 43 45 44 53 53 50
21 26 28 26 23 18 21 25 21 24 32 32 42 38 37 42 46 43 36 56 69 36 30 39 50 49 39 33 37 39 45 44 44 38 33 33 33 31 46 54 38 41 32 33 39 41 38 35 39 39 42 41 51 52
23 25 27 21 14 17 23 22 7 7 30 34 42 35 35 37 40 39 41 48 67 32 31 36 37 43 36 34 35 34 38 40 40 39 37 36 28 25 39 49 50 36 35 34 39 34 36 33 35 40 39 37 36 40
23 23 24 17 16 17 23 27 17 24 32 35 37 36 30 33 38 33 45 43 48 29 41 37 35 35 32 34 34 37 36 32 36 37 34 33 40 29 28 44 50 35 26 31 38 33 33 29 30 34 40 43 39 34
19 20 22 20 18 19 19 29 33 36 35 35 32 32 31 31 36 43 51 61 40 31 44 43 36 33 34 31 29 30 33 31 33 27 27 27 39 35 30 35 39 47 49 35 33 38 36 37 37 43 32 36 32 43
18 18 22 21 26 25 22 26 31 35 31 31 34 36 39 40 39 43 43 56 37 33 43 39 38 31 25 27 27 26 29 37 33 30 32 32 34 44 29 34 32 42 59 48 44 39 32 38 40 40 33 34 39 40
19 21 22 24 30 35 31 26 29 33 37 38 38 42 43 50 33 40 46 50 40 38 40 39 36 29 26 30 31 32 34 41 39 25 29 35 32 46 40 26 35 33 42 46 45 45 39 38 41 41 35 31 32 32
18 21 22 23 30 34 35 35 34 37 36 35 41 45 47 35 35 44 38 43 44 41 40 33 29 27 30 29 24 23 33 37 38 38 29 38 42 39 31 27 32 33 38 42 44 42 43 43 35 33 34 31 30 31
12 17 22 25 27 29 36 38 41 38 33 36 39 51 47 43 37 38 38 36 35 32 30 25 24 22 24 26 25 25 26 31 34 38 36 42 46 36 23 23 35 34 35 39 37 36 40 39 39 34 36 35 33 32
17 15 19 23 24 27 27 29 30 35 40 45 48 43 41 37 35 34 32 31 30 28 27 27 25 23 22 21 23 19 12 12 19 18 33 42 52 41 17 25 29 33 34 37 40 37 35 37 37 36 36 37 37 36
19 18 16 16 19 20 19 18 21 25 29 33 35 36 35 34 30 29 28 29 27 26 29 23 20 18 15 16 18 14 4 5 13 18 31 47 53 39 36 19 36 30 38 32 32 36 37 38 40 41 41 42 41 40
14 13 13 14 14 15 16 17 16 17 17 19 24 25 27 27 28 26 25 27 30 31 24 20 17 14 16 20 19 12 14 8 7 12 28 40 41 38 28 27 28 31 27 34 31 32 32 35 37 39 40 43 46 45
14 13 14 14 13 13 14 15 16 16 16 17 20 23 25 26 24 24 24 25 26 24 19 15 14 15 18 23 22 12 12 9 5 12 19 31 33 34 34 39 30 25 26 34 37 35 33 35 37 39 41 42 45 48
20 19 17 16 17 16 14 14 15 15 13 12 14 16 18 19 19 21 21 19 17 12 5 8 8 9 15 24 22 17 15 11 9 9 14 13 22 24 28 35 48 40 33 28 29 34 37 39 39 39 40 40 40 40
16 17 17 16 14 16 18 18 16 14 14 10 11 14 17 18 21 20 19 16 12 7 9 10 12 12 12 19 13 11 12 11 10 10 12 10 16 14 17 19 28 32 33 29 30 27 30 32 33 31 30 30 29 30
16 15 18 20 20 17 15 13 11 8 8 9 11 14 17 21 21 19 18 15 9 8 11 15 15 11 10 10 12 7 7 5 8 8 6 7 15 16 15 15 25 33 36 32 30 32 35 30 28 30 30 29 30 32
17 17 15 20 24 21 21 23 23 21 16 12 11 13 15 20 23 20 18 16 12 12 17 12 11 10 8 6 10 11 11 10 14 13 12 9 9 13 21 19 21 27 32 35 37 37 32 29 29 31 32 33 35 37
21 21 22 21 20 22 26 27 27 28 28 28 24 19 20 21 20 22 22 20 14 18 18 8 6 8 6 6 5 10 12 12 16 17 19 19 21 19 15 19 26 29 28 31 35 31 28 28 31 33 36 39 41 43
17 19 21 22 22 21 20 25 27 25 27 27 30 35 35 29 28 24 20 18 17 15 11 3 4 4 7 9 11 13 16 18 13 10 11 16 17 11 11 14 17 19 22 24 25 26 28 31 34 37 38 40 42 43
15 16 17 18 20 19 18 21 19 20 22 22 23 23 24 24 22 19 16 12 8 7 6 6 7 7 6 7 8 9 11 12 13 14 15 16 18 19 21 23 24 26 27 29 31 32 33 34 36 38 40 42 45 46
12 12 14 18 21 17 19 22 22 22 23 22 25 23 21 21 18 13 11 11 9 6 2 3 5 7 9 12 14 16 17 19 20 22 23 24 25 26 28 30 30 32 33 34 35 36 37 39 41 43 44 44 45 45
14 15 17 20 18 16 20 19 21 19 18 18 18 16 15 13 10 7 4 2 1 5 8 11 15 17 20 22 24 26 28 30 31 32 32 32 32 32 33 34 36 37 39 40 41 41 41 42 42 42 42 43 45 47
12 14 16 16 13 14 13 13 13 12 11 10 9 7 6 4 1 2 5 8 11 14 17 20 23 25 28 31 34 36 38 40 41 41 40 38 37 36 36 36 36 37 37 38 39 39 40 41 42 43 44 46 47 48
13 12 12 11 8 9 8 8 8 7 7 6 6 6 8 9 10 12 14 16 18 21 24 27 29 33 36 40 43 46 45 42 36 31 27 27 29 30 30 31 32 33 35 36 38 39 39 40 41 41 42 43 44 43
12 11 9 6 5 5 5 5 4 5 7 10 12 14 16 17 18 20 22 24 27 30 34 38 42 46 48 50 48 45 38 33 29 27 26 26 26 27 28 28 30 31 33 33 33 34 35 34 34 34 34 36 40 41
11 7 4 3 3 2 2 4 7 10 13 15 16 19 20 22 24 26 28 33 38 42 46 50 52 51 46 41 37 34 32 30 29 29 28 29 29 30 30 31 31 31 31 31 31 32 33 35 36 37 37 35 34 32
7 5 4 2 3 6 8 11 13 15 19 20 23 24 26 27 30 32 36 41 46 50 53 50 44 39 35 32 29 26 24 24 24 25 25 26 26 27 28 29 31 32 33 33 33 33 32 32 31 29 26 24 23 24
8 6 6 7 8 11 13 14 16 20 24 26 28 29 30 32 35 39 43 46 50 52 45 40 35 31 27 23 20 19 19 19 20 20 20 21 22 23 24 26 26 27 27 26 25 24 23 22 20 18 20 22 22 21
10 10 11 12 15 17 18 20 23 26 29 30 31 32 34 37 40 43 46 50 48 42 38 33 28 23 20 18 17 16 16 16 17 18 19 19 20 20 20 20 20 19 19 19 19 16 13 14 17 20 21 20 21 23
13 15 17 19 20 22 22 24 28 30 32 33 33 35 38 41 43 46 47 44 39 35 30 25 22 20 20 19 20 21 21 21 21 21 21 21 21 21 21 20 19 17 14 10 9 12 15 18 19 20 19 21 23 25
20 20 21 23 24 25 26 29 32 32 32 34 35 38 41 43 46 45 40 36 32 27 23 20 19 20 22 23 22 21 21 20 20 19 18 18 17 15 13 11 9 8 8 10 14 16 18 20 20 20 21 24 26 28
21 23 25 26 25 27 30 31 32 32 33 34 37 39 42 44 41 37 32 28 24 21 19 19 19 19 19 19 18 17 15 13 11 10 10 10 9 8 7 7 8 11 13 16 18 19 20 20 20 22 24 27 29 30

GFSWCAN_500_spd_075.txt.gz
Wind_Speed
22 24 26 26 32 33 33 34 37 37 38 42 42 45 47 47 48 54 50 56 70 70 65 60 57 51 47 42 38 34 35 37 39 39 37 32 27 23 27 30 42 47 46 44 43 36 34 37 27 25 33 36 34 35
23 23 24 27 30 28 27 23 27 32 34 42 42 40 42 43 44 44 51 48 47 65 71 68 61 55 48 40 38 37 34 36 39 40 39 35 31 26 24 24 36 50 57 51 44 38 39 36 35 31 28 19 37 36
22 22 24 29 24 20 23 28 33 34 36 33 37 43 42 42 42 41 43 44 43 50 64 68 65 55 49 46 45 41 38 39 41 42 40 37 33 29 25 26 27 38 47 48 42 34 38 37 35 33 30 35 32 36
19 22 25 26 19 18 22 28 23 24 26 35 38 39 43 39 38 37 37 39 39 42 54 52 50 45 47 43 42 32 33 35 42 44 44 41 35 33 30 30 28 36 44 47 37 30 30 40 40 35 33 33 37 38
19 21 25 22 16 14 18 13 13 5 26 31 33 38 39 38 39 38 34 33 38 45 37 42 32 33 34 37 32 28 31 35 37 44 43 39 37 36 34 34 36 34 44 50 40 26 34 31 33 29 31 33 38 39
17 23 20 17 14 16 16 15 18 25 31 30 37 34 35 38 40 37 34 35 48 37 37 36 32 28 29 32 33 30 33 32 33 38 40 37 35 37 36 35 33 24 39 52 48 36 32 31 33 32 30 33 32 34
22 15 20 19 19 17 15 23 28 33 35 35 33 30 30 32 36 39 29 50 53 31 27 34 28 30 28 32 33 33 32 32 29 28 35 37 38 40 38 38 35 21 27 34 50 40 30 30 32 32 30 27 32 39
16 14 21 21 22 24 24 23 26 29 31 34 31 31 35 34 35 39 37 47 48 18 20 40 35 32 32 32 32 36 36 34 30 28 34 35 33 35 40 37 37 32 29 29 47 41 35 36 33 33 28 30 29 27
15 15 20 27 29 29 28 29 28 28 32 38 39 34 35 38 36 54 41 34 26 25 31 37 34 33 28 28 27 28 26 26 34 35 38 33 32 39 36 36 34 27 32 31 30 48 40 39 42 38 38 34 31 31
15 14 21 25 28 33 27 34 38 44 47 42 38 36 32 35 42 34 39 34 28 29 33 33 30 26 24 26 23 29 31 31 33 34 38 38 32 34 37 43 43 32 28 31 33 47 46 39 42 42 35 34 34 32
16 17 18 23 27 27 30 33 35 37 39 34 33 40 37 35 35 30 33 29 30 28 27 24 23 24 19 20 23 25 20 19 23 28 37 43 45 42 36 40 35 37 30 24 29 35 37 36 36 38 37 37 38 37
15 14 13 15 23 29 30 31 34 34 31 28 29 40 42 39 34 35 33 27 28 25 23 21 20 19 16 17 17 18 15 11 12 22 31 38 38 37 40 38 33 29 19 30 32 35 36 39 40 40 39 39 41 40
11 12 13 14 14 18 26 31 35 33 29 28 31 32 35 35 35 36 34 28 24 22 21 18 18 20 18 16 15 16 18 12 6 9 12 12 13 21 31 45 32 18 24 16 19 31 34 32 37 42 43 41 40 42
13 12 11 13 15 15 17 20 22 22 21 23 21 20 23 26 25 23 21 21 21 17 16 19 16 16 15 16 18 16 18 14 10 8 8 2 7 14 28 42 31 24 21 29 29 40 34 38 34 36 40 42 42 42
12 13 14 15 15 14 15 16 16 17 18 18 17 16 14 16 17 15 16 17 16 18 19 16 15 17 17 18 23 18 15 12 6 9 7 8 6 11 22 27 37 32 34 37 35 32 30 33 36 36 39 40 39 40
12 14 14 16 17 16 16 16 16 15 16 18 16 16 16 16 16 16 16 16 15 15 12 11 10 13 16 20 23 18 11 9 10 10 9 7 9 17 25 27 26 27 30 36 39 37 30 33 35 35 36 37 36 36
16 14 15 16 18 17 16 16 16 15 14 14 17 17 17 17 18 19 17 16 10 12 14 14 14 9 9 12 12 8 9 10 4 8 10 7 8 11 14 17 21 21 23 23 31 40 40 35 34 35 36 37 38 39
17 17 18 19 17 16 13 10 11 13 14 16 17 18 19 21 19 17 16 14 14 18 16 12 13 11 10 11 12 12 8 10 10 9 10 13 13 10 13 20 25 26 25 21 22 32 36 35 37 37 37 37 38 38
20 21 23 24 24 23 23 20 16 13 16 19 22 22 22 23 19 17 14 11 14 14 10 10 9 7 6 7 9 11 11 12 14 15 16 18 19 21 24 25 22 24 27 26 24 25 32 37 38 36 36 37 38 36
22 23 23 23 25 25 25 26 29 25 21 22 23 23 24 23 20 15 11 9 13 14 10 3 2 4 6 6 7 9 9 10 12 13 14 16 13 12 12 14 15 14 17 20 21 22 24 27 30 32 35 37 37 37
18 21 25 24 23 25 21 24 22 26 31 33 27 23 21 18 15 13 12 12 11 11 8 7 7 6 6 7 9 10 12 14 15 16 16 16 17 18 18 18 18 19 20 21 23 25 27 29 32 34 37 39 40 41
13 13 20 23 26 24 23 22 20 18 19 23 27 27 26 22 18 13 9 5 6 7 6 5 7 11 13 14 17 19 20 21 22 23 24 25 26 26 27 28 29 29 30 31 33 34 36 37 39 40 42 43 45 46
12 11 18 22 20 20 23 24 24 22 23 23 21 18 15 13 11 9 8 7 9 11 13 15 17 18 20 22 24 25 27 29 30 31 33 33 33 34 34 35 36 37 39 40 40 40 41 43 44 45 46 47 47 47
11 11 16 16 13 14 15 16 15 13 12 12 12 9 6 4 5 6 8 10 13 15 18 20 22 25 27 29 31 34 37 40 42 44 43 42 39 35 33 34 35 37 39 40 41 42 43 43 44 44 44 44 44 46
11 13 13 11 9 10 8 9 8 7 6 4 2 1 4 7 9 12 15 18 20 22 24 27 29 32 34 38 41 46 49 50 49 44 39 34 32 31 31 32 34 35 36 36 37 37 38 40 41 41 41 41 39 38
10 10 10 8 7 6 5 5 4 3 2 4 6 8 11 13 15 17 20 22 24 26 30 34 38 43 47 51 54 52 46 41 36 32 31 30 29 29 29 29 30 31 31 31 31 31 32 32 32 32 32 32 33 35
11 9 7 6 5 5 3 2 4 7 9 11 13 16 18 21 22 24 25 28 31 35 38 43 48 51 54 50 43 36 32 30 29 29 29 29 29 30 30 30 30 30 30 30 30 30 31 32 32 33 33 33 33 33
11 8 7 6 5 4 5 7 10 12 15 18 21 23 25 26 27 29 31 34 38 43 47 51 52 48 42 36 31 27 24 21 20 20 21 22 22 23 24 24 25 26 27 28 29 31 31 31 30 29 28 27 25 23
10 10 9 8 7 8 10 13 15 17 20 23 26 28 30 30 32 34 37 42 46 49 50 46 40 36 31 26 22 19 17 16 15 15 15 16 18 19 19 20 21 21 22 22 22 22 21 20 20 20 19 18 19 22
12 11 11 11 12 14 16 19 21 23 25 27 30 32 33 34 36 41 45 47 49 44 40 36 32 28 23 20 18 18 18 18 19 19 19 19 19 19 19 19 19 19 19 19 19 18 16 13 12 14 17 21 22 22
13 12 14 17 19 19 22 25 27 28 29 32 33 34 36 39 43 45 47 45 41 37 32 28 24 21 19 19 19 20 21 21 22 22 21 21 20 19 19 18 18 17 15 13 10 9 10 13 16 19 21 22 22 23
15 17 20 22 22 24 26 28 29 30 32 33 34 37 40 42 45 46 42 38 33 29 25 22 20 19 19 19 19 19 19 18 18 17 16 14 13 12 11 10 9 8 7 7 10 13 16 18 20 22 22 22 23 25
20 21 22 23 24 25 27 29 30 31 32 34 37 39 41 44 42 39 35 30 26 22 20 20 20 20 19 17 14 12 10 9 9 9 9 9 8 8 7 7 8 9 11 13 15 18 19 21 21 21 22 24 27 29

GFSWCAN_500_spd_078.txt.gz
Wind_Speed
20 21 22 25 27 28 29 35 38 37 37 38 38 42 42 42 43 50 55 59 62 65 61 55 50 44 42 39 34 32 34 34 35 33 33 31 24 20 18 18 18 22 27 29 34 35 38 26 20 22 27 25 27 26
20 22 26 28 29 31 33 32 32 33 34 36 38 39 44 46 42 44 45 50 55 58 62 60 56 48 43 41 33 32 34 36 36 34 32 31 29 25 22 19 19 23 26 34 36 35 37 32 31 29 23 27 22 27
19 23 26 30 32 35 30 27 30 31 34 35 34 35 40 42 42 44 42 42 51 54 55 59 59 51 47 43 38 34 34 37 37 36 35 32 32 29 25 23 20 21 25 28 34 36 37 39 30 29 28 28 26 26
20 23 27 28 27 24 23 27 31 34 36 38 38 36 38 36 38 41 39 40 43 44 53 56 55 55 48 44 41 38 37 36 40 39 37 35 33 31 30 28 26 25 26 29 28 33 42 39 36 34 32 30 29 29
20 22 25 25 21 19 20 23 21 26 28 28 36 33 37 35 32 36 34 35 38 43 45 46 50 56 55 48 39 39 37 38 40 42 41 39 37 35 33 32 30 28 27 31 34 35 38 31 33 35 35 31 31 35
17 24 25 16 17 14 17 16 14 8 24 29 35 31 34 37 33 33 32 34 35 37 38 39 43 43 39 41 41 38 34 37 37 41 42 41 41 40 38 36 34 32 32 33 35 37 39 38 32 34 29 25 28 29
19 25 19 22 16 14 19 20 23 24 26 29 34 30 40 35 28 28 29 28 31 31 26 21 25 22 24 23 24 29 31 31 24 30 38 38 39 41 41 37 36 35 35 35 35 40 36 45 37 27 26 29 31 31
17 19 16 24 17 17 20 28 28 26 30 32 36 34 36 36 33 29 26 25 36 38 26 23 28 27 37 27 28 27 29 27 28 26 28 31 32 35 39 40 38 37 34 36 38 36 34 44 47 41 32 30 31 31
17 16 18 25 20 18 21 26 28 31 34 35 39 40 38 31 28 26 31 47 47 37 23 27 31 29 30 31 31 29 33 28 27 27 28 28 30 39 41 38 38 40 42 37 43 39 36 37 42 41 39 33 33 34
16 17 22 20 24 26 24 23 30 35 32 37 41 37 34 31 26 27 41 38 18 11 12 19 31 28 23 24 28 29 29 29 29 29 31 33 33 35 36 37 39 33 31 35 41 39 34 30 33 39 43 41 36 36
14 16 17 19 23 26 31 32 36 38 37 24 30 30 36 39 32 31 31 26 28 26 27 29 24 24 22 21 22 23 23 22 22 23 29 34 36 34 36 35 32 35 35 31 32 31 35 37 33 36 41 41 41 37
13 17 18 21 23 25 23 21 20 23 29 33 27 36 35 30 28 34 24 22 24 23 26 23 18 18 14 15 17 18 18 23 22 24 30 32 30 32 35 40 42 33 28 32 41 41 32 31 31 35 39 44 39 37
10 14 20 25 23 21 20 23 27 26 26 31 29 31 28 24 28 26 20 17 19 19 15 15 13 17 14 12 17 17 19 22 16 11 7 8 11 20 32 43 49 53 52 44 34 29 32 19 28 31 33 34 38 41
13 12 14 20 15 14 17 22 26 30 31 28 22 23 22 27 22 16 14 11 12 11 14 15 14 14 14 15 13 13 17 18 13 10 8 8 12 13 17 24 30 27 28 43 38 25 13 16 23 27 33 36 35 37
14 15 15 16 18 18 16 14 19 24 27 26 22 19 17 15 13 11 10 13 12 12 12 11 14 12 16 15 13 13 17 20 15 11 13 15 15 15 16 16 12 19 18 29 21 19 24 27 26 27 34 39 39 39
13 12 14 16 16 16 17 18 19 18 16 15 15 16 17 16 15 14 14 14 12 11 10 10 13 15 18 20 18 19 17 16 17 14 13 13 14 12 14 13 8 16 19 25 27 29 29 32 35 34 33 35 37 38
17 14 12 17 18 17 17 17 17 18 17 16 14 14 14 14 14 12 12 12 11 11 10 10 8 7 8 11 15 21 18 13 10 7 8 11 9 8 8 12 16 20 23 24 26 29 30 30 33 35 44 37 37 35
13 14 15 13 14 15 17 17 16 15 16 16 17 17 17 17 17 15 14 10 9 13 13 10 10 9 4 5 11 14 13 11 12 15 16 14 12 12 12 12 14 17 19 22 26 28 29 30 37 35 38 37 35 36
16 16 15 14 10 9 12 16 19 20 19 19 17 16 17 16 15 14 11 12 16 12 10 7 6 6 5 6 8 9 12 14 15 17 16 15 16 16 16 20 22 24 25 25 26 33 35 35 33 29 29 31 32 34
18 17 18 18 18 14 11 15 22 23 21 22 20 18 16 14 13 13 11 12 13 10 8 4 2 2 3 6 9 11 13 14 14 14 15 16 17 17 17 18 19 20 19 18 21 24 27 28 28 29 29 30 31 32
19 19 18 17 19 24 21 22 22 25 24 19 18 18 16 13 9 7 7 10 15 10 8 9 10 7 7 8 10 12 15 17 18 20 21 22 22 23 23 23 23 24 25 25 26 26 28 28 29 30 32 34 35 37
19 19 19 18 19 20 23 28 27 25 24 20 18 15 13 12 11 10 9 10 11 13 12 11 12 13 15 17 19 21 23 25 26 27 28 29 29 30 31 31 32 33 33 34 34 35 36 36 37 38 40 41 43 43
19 20 22 23 21 21 21 21 24 24 25 23 20 16 14 11 8 6 5 5 7 9 12 15 18 21 24 26 28 30 31 33 34 35 36 37 38 39 39 39 39 39 39 40 40 41 41 42 43 43 43 44 44 45
15 20 22 18 16 19 20 21 20 17 16 14 13 8 6 2 3 5 9 12 15 19 21 24 26 29 32 34 35 37 38 40 41 43 46 47 46 43 39 37 37 39 40 42 42 42 42 42 42 43 43 43 43 43
12 16 16 14 11 12 11 12 11 10 7 7 5 4 5 8 11 14 17 20 23 25 28 29 31 33 35 38 40 43 47 50 52 50 46 42 37 35 33 33 34 35 37 37 38 39 39 40 40 41 41 40 40 40
10 11 10 9 7 6 5 5 4 2 1 4 8 11 14 17 19 22 24 26 28 30 32 34 36 39 42 46 50 53 52 47 42 37 34 32 32 32 32 32 33 34 35 35 35 36 35 36 36 35 35 35 35 35
10 9 8 7 5 3 2 2 3 6 10 12 15 18 20 23 25 27 29 30 31 34 36 39 43 48 52 53 49 45 40 35 32 30 29 28 28 28 28 28 29 30 30 31 32 32 33 33 34 35 35 35 35 35
11 9 8 6 5 5 5 6 9 12 15 17 20 22 25 28 30 30 31 33 35 39 44 49 50 48 45 42 38 34 30 26 24 22 21 20 20 20 21 21 22 23 23 24 25 25 26 27 28 28 28 27 26 25
12 10 8 6 7 8 9 11 14 17 20 23 25 27 29 30 31 32 34 39 45 48 47 45 43 41 37 33 30 26 22 20 19 18 18 18 17 18 18 19 20 20 21 21 21 21 21 21 21 20 20 19 17 17
12 10 10 10 11 11 14 17 20 23 26 28 30 30 30 32 34 38 44 46 45 43 42 40 37 32 28 25 22 20 19 19 20 20 21 22 23 23 23 23 23 23 23 22 21 21 20 19 16 12 12 16 18 21
14 12 12 13 14 17 20 22 25 27 29 30 31 32 33 36 41 44 43 42 41 39 36 32 27 23 21 21 20 20 20 20 20 20 20 20 20 20 20 19 19 18 17 16 14 12 10 9 11 15 18 20 22 24
14 14 15 16 19 22 23 25 28 30 30 30 32 34 38 42 42 42 42 41 37 32 27 22 19 20 21 21 19 18 17 16 14 13 12 11 11 11 10 10 10 9 8 8 8 9 12 14 17 19 22 22 21 22
16 17 20 22 22 24 26 27 28 28 29 31 34 37 38 39 41 42 41 37 32 27 21 18 20 20 19 16 14 13 11 10 9 9 9 9 10 10 10 10 9 9 10 12 14 16 17 19 20 19 19 21 23 26

GFSWCAN_500_spd_081.txt.gz
Wind_Speed
28 24 22 23 24 26 29 30 31 31 31 34 34 33 32 29 34 43 52 57 56 52 47 41 37 33 30 26 24 25 25 25 29 28 32 32 28 22 16 10 7 9 12 15 23 19 30 19 15 12 16 18 22 28
20 20 21 24 27 29 32 34 36 37 37 37 39 39 38 36 35 34 40 53 53 56 55 50 45 40 35 31 33 30 25 26 29 29 31 32 29 23 18 13 11 9 15 16 16 13 16 18 17 20 18 16 15 17
18 20 24 26 28 29 31 32 33 35 37 34 32 34 36 35 36 37 36 37 46 54 54 55 52 49 42 38 35 31 29 27 30 32 33 30 25 23 21 17 16 12 13 18 17 23 24 28 26 27 26 23 20 17
19 23 24 28 28 27 26 26 26 26 29 31 30 30 32 34 33 34 35 32 34 38 51 54 52 50 45 43 38 33 29 29 33 34 33 31 29 26 23 23 21 19 16 15 15 19 21 26 27 30 29 22 21 23
20 22 24 24 25 21 21 24 25 25 30 32 33 32 30 27 29 30 32 31 31 32 38 45 45 39 37 40 39 35 31 32 33 36 36 33 29 27 25 23 22 20 20 21 20 18 18 22 24 25 34 33 30 27
18 23 21 25 14 17 19 20 15 15 26 29 29 32 32 28 36 37 32 32 33 32 32 39 43 37 35 35 36 33 29 34 35 35 35 34 33 31 29 28 26 23 24 25 26 27 27 26 25 25 29 36 34 29
18 21 24 13 17 18 18 20 11 13 21 31 32 31 33 33 32 31 25 22 28 31 32 33 34 39 45 43 36 37 33 28 33 35 35 34 34 35 35 33 31 30 29 30 31 31 31 33 32 29 28 35 35 34
17 19 18 16 15 18 20 16 21 25 33 34 35 36 40 30 28 26 19 24 28 27 26 27 28 31 29 30 26 32 36 36 33 28 31 34 35 37 39 37 37 35 36 36 36 36 35 38 39 33 30 38 32 32
14 18 18 18 19 20 22 22 28 30 31 33 40 41 37 32 27 24 26 21 21 23 22 22 18 20 23 27 25 21 24 25 24 24 26 29 33 38 39 39 40 39 38 39 40 39 38 38 39 33 29 32 44 40
10 16 16 16 18 22 23 24 25 28 30 34 33 32 29 28 27 24 24 27 29 33 21 32 30 29 33 21 32 29 27 27 33 23 20 24 28 31 32 34 35 37 38 39 40 41 41 40 39 35 32 30 40 45
8 12 15 19 21 22 30 36 35 33 34 35 32 31 29 28 22 17 32 39 20 22 26 27 25 16 29 28 22 28 23 22 22 23 25 25 26 28 30 30 29 29 33 38 36 38 35 33 32 33 35 32 33 39
10 11 15 18 16 16 15 16 20 24 30 33 38 39 35 27 29 34 23 19 22 20 17 16 15 21 21 20 20 19 21 21 23 25 23 23 25 28 30 30 31 33 32 34 34 33 37 33 31 33 34 35 34 35
12 13 11 14 23 24 23 27 30 34 35 27 29 29 29 27 25 23 24 23 20 20 21 19 16 20 17 14 13 14 15 18 23 23 20 16 15 19 25 29 31 32 32 35 38 38 27 25 33 38 36 35 31 37
13 12 9 8 12 17 23 23 28 30 29 27 26 24 22 20 16 20 21 21 20 19 17 13 13 13 11 10 11 13 15 17 20 19 13 14 14 15 17 18 20 24 28 33 38 42 44 42 31 27 28 25 32 35
17 13 10 9 14 20 21 18 17 21 22 22 21 21 20 16 10 13 14 14 14 12 12 10 10 12 11 11 12 11 13 16 14 15 14 15 14 18 20 23 25 24 25 23 25 27 31 34 31 21 20 19 24 26
17 18 15 12 14 17 20 18 18 14 10 12 12 8 9 9 9 9 9 9 8 9 8 6 5 6 8 12 15 16 14 12 14 17 16 16 19 20 20 18 19 20 13 13 12 13 19 22 27 28 25 26 28 30
16 17 18 18 15 14 15 14 14 14 13 9 7 8 8 7 7 6 7 7 7 6 5 4 6 7 7 10 15 17 15 15 14 17 20 17 17 16 16 15 15 14 15 13 15 17 23 26 29 30 32 30 28 30
15 15 17 18 21 20 18 18 16 15 14 12 13 12 12 11 8 6 6 6 5 4 4 5 7 6 6 5 1 9 15 16 13 15 16 18 19 18 18 17 13 12 14 15 16 20 25 28 28 29 31 31 32 34
13 13 14 15 17 19 21 20 17 16 15 13 12 13 11 12 12 10 7 6 9 10 10 7 4 0 2 2 2 2 7 11 13 16 17 18 18 17 18 18 16 16 19 22 24 25 27 29 31 31 33 35 35 35
13 11 11 12 14 18 21 20 19 17 16 15 15 16 15 13 11 9 8 10 9 9 7 3 3 2 4 5 6 7 9 12 15 17 19 20 20 21 21 21 21 21 21 22 23 24 25 26 26 27 29 31 32 33
14 14 13 14 14 18 23 24 20 19 18 16 16 16 14 12 10 8 8 10 10 8 6 8 9 9 9 9 11 13 16 18 21 23 25 27 28 29 29 29 29 29 29 29 29 30 30 30 30 31 32 34 35 35
18 19 22 24 22 19 25 25 22 18 16 15 14 13 10 7 5 6 5 8 11 11 11 13 15 15 16 18 20 22 25 27 29 31 32 34 34 35 36 36 37 36 35 35 36 36 37 38 38 39 40 41 42 42
21 24 24 29 28 27 24 23 21 15 13 13 12 10 9 8 5 3 1 3 6 9 12 15 18 21 25 28 30 32 34 35 37 38 39 40 40 41 42 42 41 40 39 39 40 41 41 42 42 42 43 43 44 44
24 28 28 25 24 27 28 26 22 18 16 14 12 8 5 2 1 5 9 13 16 19 22 25 28 30 32 34 36 37 39 41 42 44 46 47 47 46 42 39 37 36 37 38 39 39 39 39 39 39 40 40 41 41
23 23 21 18 18 18 17 17 14 11 8 6 3 4 7 9 12 15 18 21 24 26 29 31 33 35 36 38 40 43 45 48 50 50 48 44 40 37 35 33 33 33 33 34 35 36 36 37 37 38 39 40 40 39
18 17 15 15 13 12 11 10 8 6 4 5 8 10 13 16 20 23 25 28 30 32 33 35 37 39 42 46 50 52 51 48 45 41 38 35 33 31 30 29 29 29 30 30 31 32 33 33 33 33 33 33 33 33
12 12 11 10 8 7 5 3 2 4 7 10 14 17 20 23 26 29 30 32 33 34 36 38 44 47 47 45 45 45 43 40 36 33 30 27 25 24 23 22 22 22 23 23 24 25 26 27 27 28 28 29 30 30
11 9 8 7 4 2 2 3 7 10 13 17 20 23 26 29 31 32 32 33 35 39 45 45 43 43 43 43 40 36 32 29 26 24 22 20 19 18 18 18 18 19 19 20 21 22 22 23 23 23 23 23 23 23
11 9 7 6 5 5 7 8 10 14 18 21 24 28 30 33 33 33 34 39 44 44 41 41 41 41 38 34 29 25 22 21 20 19 19 19 19 20 21 21 22 23 23 23 23 23 22 22 22 21 22 22 21 19
12 10 9 8 8 9 10 12 17 20 23 26 28 32 33 33 34 36 42 43 40 39 40 40 38 34 28 23 21 21 21 21 21 20 20 20 21 21 22 22 22 22 22 22 22 21 21 21 20 19 16 13 14 18
13 11 11 11 12 14 15 19 22 25 27 30 32 32 33 35 39 42 40 38 39 40 38 35 31 25 22 22 23 22 20 18 17 16 16 16 15 15 15 15 15 15 14 13 13 13 12 10 10 11 14 17 20 22
15 13 14 15 16 17 20 24 27 28 29 30 31 33 36 40 39 37 38 39 40 39 35 30 25 22 22 23 23 20 16 14 12 11 11 10 10 10 11 10 10 10 10 9 9 9 10 12 15 17 19 21 21 20
16 17 18 17 19 23 25 26 27 28 29 31 33 36 38 36 36 36 38 40 40 37 31 26 23 22 23 24 22 18 14 12 12 12 12 12 14 15 15 14 14 13 13 13 14 15 16 17 18 18 17 18 21 23

GFSWCAN_500_spd_087.txt.gz
Wind_Speed
27 26 25 25 25 24 24 23 23 24 25 25 25 26 26 25 24 22 20 29 36 27 22 20 27 35 31 30 29 32 28 29 20 21 23 19 21 21 20 19 19 17 13 12 18 21 21 27 23 28 24 15 14 26
25 24 24 22 23 24 25 26 27 27 29 30 30 29 29 28 27 26 22 22 30 32 27 26 31 39 40 35 29 29 25 21 19 22 20 17 15 19 20 21 20 19 14 10 9 15 16 24 27 24 27 16 17 4
23 22 20 21 23 24 27 29 31 32 32 33 33 33 33 30 29 28 23 23 22 32 32 31 27 35 41 37 34 25 20 18 19 21 18 15 16 19 21 22 20 22 18 10 9 18 15 18 24 22 18 22 17 11
18 17 20 23 27 30 32 32 33 34 35 34 35 35 33 30 28 28 26 22 20 27 35 36 33 34 33 32 25 21 17 14 17 17 17 15 16 18 20 24 25 23 22 22 21 17 13 10 24 22 28 25 26 26
14 16 21 22 23 24 25 27 26 25 23 27 28 32 33 32 30 29 28 25 24 24 33 38 37 36 31 29 26 20 15 15 15 17 17 16 15 16 20 20 21 25 22 19 19 20 21 19 17 17 18 19 16 14
12 16 17 17 18 26 26 26 28 29 29 27 26 28 27 30 31 29 29 30 27 22 29 31 37 33 33 30 27 23 19 16 18 16 14 13 13 11 13 15 20 19 22 22 18 18 18 15 14 13 12 12 12 11
10 14 16 17 22 18 21 20 23 25 29 25 27 27 27 31 32 26 24 26 26 23 22 28 25 34 34 31 26 25 21 20 23 21 17 14 8 11 12 17 17 20 21 20 20 21 21 20 20 19 18 18 18 17
11 17 17 18 15 19 19 17 8 17 26 30 30 27 33 34 32 28 24 25 27 24 24 21 19 26 34 33 29 24 25 24 24 24 16 11 15 15 17 18 18 19 19 20 22 22 21 22 22 22 23 23 24 25
11 17 17 12 18 16 23 24 20 24 30 34 34 33 33 33 31 26 24 21 21 25 23 21 21 21 27 23 24 24 23 27 28 26 22 17 18 21 18 14 15 16 18 21 23 24 25 25 26 28 28 29 29 30
9 13 20 13 19 18 23 26 27 31 32 32 32 34 31 27 27 26 21 18 22 21 19 22 20 20 24 28 27 29 27 27 29 28 22 26 25 23 22 20 16 18 20 23 25 26 28 30 32 33 34 35 35 36
7 7 12 18 16 20 20 24 29 32 33 34 34 35 32 27 20 20 22 20 20 21 22 20 21 20 21 26 27 25 27 26 26 28 28 29 28 25 21 19 19 21 24 27 30 33 36 37 38 39 41 42 43 42
9 7 9 9 15 20 24 24 27 27 25 25 26 29 29 26 25 21 18 15 18 20 21 22 25 21 26 26 25 26 27 26 28 28 30 30 26 24 23 20 21 23 25 27 31 34 36 38 39 39 38 35 35 36
15 13 11 16 22 20 21 21 21 22 23 24 19 16 16 16 19 19 18 16 15 20 29 28 22 22 22 29 30 31 25 16 26 23 26 24 23 23 22 24 24 27 29 31 34 36 38 39 39 39 40 41 39 37
18 20 22 23 24 28 27 28 21 21 18 16 16 15 14 17 15 16 16 22 19 22 24 22 18 20 22 18 32 27 18 19 21 27 19 20 26 27 28 27 29 28 31 33 33 34 36 37 36 35 36 35 38 41
18 22 23 21 22 24 23 22 21 19 17 19 18 17 16 16 18 21 20 20 19 20 19 22 20 20 21 23 20 17 20 23 21 21 23 24 26 29 29 29 29 30 29 31 34 33 35 36 38 38 36 36 37 39
23 22 24 18 16 18 22 23 20 19 19 19 17 16 19 20 23 24 21 15 14 17 18 19 17 15 16 17 16 19 20 20 20 22 24 26 27 28 29 30 27 26 29 29 29 30 28 24 24 25 27 30 32 35
24 24 26 22 21 18 18 18 20 19 17 14 15 17 16 16 17 17 17 16 16 15 14 14 14 14 13 13 15 17 18 20 21 21 21 23 25 26 25 26 27 27 26 27 27 25 23 25 27 24 24 22 21 25
23 25 27 22 19 18 16 18 17 15 14 13 13 15 14 14 13 13 14 14 14 13 13 14 15 13 11 10 12 15 21 25 25 25 25 24 23 22 26 25 26 26 26 26 26 25 24 24 23 25 24 23 23 24
24 24 25 23 19 15 14 13 11 9 8 6 5 5 5 5 6 8 9 8 9 9 10 12 9 6 4 2 4 5 6 10 15 19 19 18 19 21 22 25 27 29 29 29 28 27 27 28 27 26 25 26 27 28
23 24 23 21 20 18 14 11 8 6 3 3 4 5 6 9 9 8 11 14 13 12 10 6 3 2 4 6 6 7 7 8 10 13 16 19 22 24 26 29 31 32 32 32 32 32 32 32 32 33 33 33 32 33
23 23 22 22 20 18 15 13 10 8 7 11 12 12 10 10 10 11 10 7 6 5 4 3 5 9 11 13 13 12 14 17 19 21 24 27 29 32 34 36 38 39 40 40 39 39 38 38 38 38 39 39 40 40
24 23 21 20 19 18 15 13 14 13 14 13 11 10 10 8 6 5 3 2 3 5 7 10 12 14 16 18 20 22 24 26 29 31 33 36 38 39 41 43 44 44 45 44 44 43 42 41 41 41 42 43 43 44
26 27 26 23 20 19 19 17 14 14 13 12 10 8 7 7 6 5 5 4 5 8 10 13 15 18 19 21 23 25 27 29 31 33 36 38 40 42 44 44 45 45 45 45 45 45 45 45 45 44 44 43 43 43
28 27 26 25 23 20 18 18 17 16 13 11 11 11 8 6 3 3 5 9 12 15 17 20 22 23 25 27 29 32 36 39 41 41 41 41 42 43 42 42 41 40 39 39 40 40 41 41 41 40 40 40 41 41
29 30 30 29 26 23 19 19 19 18 15 12 10 6 5 7 9 14 17 20 22 24 25 26 28 29 31 35 39 41 39 40 41 43 45 46 47 45 42 40 38 36 36 36 37 37 37 37 37 37 37 36 36 37
34 32 30 27 25 25 23 21 19 15 10 8 8 9 11 14 16 19 21 24 25 26 27 28 31 35 37 36 37 39 41 43 44 44 43 41 37 34 32 30 28 28 28 28 29 29 30 30 31 31 31 32 32 32
34 32 29 26 23 20 18 15 12 8 6 6 9 12 14 17 20 23 26 27 28 30 32 36 37 36 37 39 41 42 42 41 38 32 28 25 24 23 22 22 21 21 21 21 21 22 23 23 23 24 24 24 24 24
26 25 23 20 18 15 11 7 4 2 5 8 12 16 19 22 25 28 30 31 32 36 37 36 37 39 41 42 42 40 36 30 24 23 24 25 24 24 23 22 21 20 20 20 21 21 21 22 22 23 23 23 23 23
19 16 14 14 11 8 5 2 3 6 10 14 18 21 24 26 29 31 32 34 38 37 37 38 40 42 42 41 39 34 27 23 22 23 22 21 20 19 19 19 20 20 20 21 21 22 22 23 23 23 23 23 23 23
15 13 11 9 8 7 6 6 8 12 16 20 22 25 27 29 30 32 35 37 36 37 38 41 42 42 41 38 33 27 24 23 23 22 20 17 15 13 12 11 11 12 12 13 14 15 15 16 16 16 16 16 15 15
14 13 13 12 11 10 10 11 13 16 21 24 25 27 29 30 32 36 35 35 36 39 41 41 42 42 39 33 28 25 24 22 21 19 18 16 14 13 12 13 14 14 14 14 14 13 13 12 11 11 11 12 13 15
15 14 13 13 14 14 15 16 17 21 25 25 27 28 29 31 35 34 34 35 38 40 41 42 43 42 36 30 26 24 22 21 20 18 16 16 15 15 15 15 16 16 16 16 16 16 16 16 16 16 17 18 19 19
19 17 16 15 16 17 17 19 23 24 24 26 27 28 31 33 31 32 34 37 39 40 41 43 44 41 33 27 25 23 22 20 19 18 17 16 16 15 16 16 16 16 15 13 12 12 12 12 13 14 14 16 18 20

GFSWCAN_500_spd_090.txt.gz
Wind_Speed
32 30 27 24 24 25 25 23 22 22 22 21 20 20 19 19 19 19 18 22 27 27 20 20 20 20 27 26 28 24 29 28 27 23 20 17 17 17 22 19 12 12 14 13 14 18 19 21 17 13 23 26 22 22
31 30 27 26 26 25 24 24 24 24 23 23 23 22 21 21 21 20 18 17 19 21 24 24 19 26 31 28 26 24 27 27 29 24 19 19 20 24 21 23 22 17 16 15 14 11 14 14 27 29 24 28 28 20
30 32 26 26 24 24 25 25 27 27 26 26 26 25 25 24 23 22 20 19 19 17 19 28 25 30 41 36 34 35 23 29 28 23 20 20 21 18 19 21 23 19 20 17 14 15 17 19 5 23 28 26 24 18
31 24 23 22 22 25 28 28 29 31 34 34 32 31 28 27 26 24 21 21 20 15 15 23 28 28 40 40 38 28 29 29 26 22 19 20 20 19 21 20 26 11 16 18 18 15 15 24 21 25 22 21 20 21
18 15 17 22 23 25 28 29 32 35 31 27 30 33 29 30 27 26 23 22 21 17 12 24 28 28 37 38 39 30 29 26 20 22 21 21 20 19 18 23 32 28 24 26 23 27 20 20 15 15 24 24 24 26
10 14 16 19 22 24 29 29 29 28 30 29 25 23 29 29 31 30 28 26 21 16 14 16 28 28 35 38 34 34 24 21 19 18 19 22 23 17 15 18 23 27 26 25 21 23 22 19 16 15 10 9 8 9
7 11 14 16 20 23 27 32 27 24 28 31 24 21 24 27 31 29 24 20 23 21 17 14 18 29 34 34 32 26 20 20 23 22 21 13 11 18 14 16 15 16 23 25 23 24 20 18 17 15 14 12 13 14
1 9 12 11 14 20 22 16 16 18 28 26 27 24 25 26 30 29 25 19 23 23 20 14 18 22 33 29 26 19 18 18 23 23 19 17 16 17 17 18 19 20 19 21 21 23 23 20 19 18 19 18 17 18
3 8 5 11 13 18 22 16 15 21 29 28 28 28 29 27 28 27 26 20 21 21 21 17 21 15 23 30 26 21 17 20 22 22 20 17 17 21 15 19 19 21 21 20 20 20 20 20 20 21 22 24 25 26
4 6 5 8 10 13 17 23 23 25 27 29 29 29 34 29 27 24 21 16 19 23 16 16 19 21 19 26 32 26 22 21 21 24 21 20 19 20 19 16 15 15 16 16 19 21 22 23 24 25 27 29 30 31
4 3 11 11 8 9 17 22 23 27 28 29 29 29 29 27 28 24 24 21 21 23 19 18 18 18 22 24 20 25 26 26 25 25 26 26 25 23 21 19 16 16 19 21 23 24 26 27 29 31 34 37 38 39
5 6 12 16 18 19 22 22 23 23 24 24 24 28 29 29 27 24 21 16 15 20 21 20 18 17 19 25 25 24 27 27 22 23 25 30 25 22 22 21 21 23 24 26 28 30 31 32 33 35 37 39 41 42
7 12 14 16 14 19 19 20 20 24 25 29 26 22 22 22 22 20 19 16 11 14 15 19 22 21 20 20 20 25 28 26 25 26 27 24 21 24 27 28 28 28 31 30 30 29 30 31 33 34 36 37 37 39
10 20 18 17 17 16 16 18 19 21 21 21 18 19 18 20 16 13 10 9 10 15 23 20 22 22 22 22 19 24 26 25 21 26 24 19 21 25 29 30 30 31 31 30 29 28 30 31 31 32 35 37 37 38
23 25 27 26 24 22 18 18 17 14 13 13 11 11 11 10 11 11 11 11 12 15 21 28 19 20 19 20 18 24 25 30 19 20 18 23 26 24 27 31 33 33 32 32 32 32 32 33 35 37 37 36 34 36
22 23 22 20 17 18 19 18 21 22 20 19 16 14 13 13 15 19 20 17 13 16 16 17 20 19 22 18 14 16 22 20 19 19 20 21 25 28 29 30 32 33 35 36 35 33 32 34 36 34 32 29 28 25
23 20 17 20 22 18 17 17 18 17 19 18 19 20 19 20 18 18 15 14 10 13 10 14 12 14 12 13 15 16 18 20 21 23 24 25 27 29 31 34 36 37 37 35 33 32 35 34 32 32 31 30 30 32
22 20 21 20 19 20 19 16 14 15 14 14 14 15 15 13 11 13 14 13 13 13 13 13 13 15 14 14 14 16 18 21 24 27 28 30 30 31 31 31 31 30 31 31 31 34 33 31 32 31 30 29 28 28
25 25 22 19 18 18 16 14 14 14 14 13 12 11 11 10 10 10 10 10 9 9 10 11 11 11 9 9 9 11 13 15 17 21 25 28 31 31 28 27 28 30 29 29 32 32 32 33 33 33 33 32 31 30
27 25 21 17 15 15 13 10 8 6 5 5 5 5 5 7 8 8 8 8 8 10 11 8 6 4 4 5 7 9 11 11 12 13 15 17 20 23 26 28 30 31 33 35 36 37 38 38 38 38 37 37 36 36
26 27 24 20 16 11 9 7 5 0 0 7 10 11 10 9 10 11 10 9 8 8 5 4 5 8 11 12 14 15 17 18 20 22 24 27 29 32 34 36 38 40 42 43 43 44 44 43 43 42 42 41 41 41
26 26 25 22 17 14 10 6 4 6 13 12 11 11 11 11 9 8 5 2 1 3 6 8 11 13 16 19 22 24 26 28 30 31 33 35 37 39 41 43 45 46 47 48 49 49 49 49 48 48 46 46 45 45
24 24 22 19 16 13 10 10 12 14 12 11 11 11 10 10 9 7 5 3 4 6 9 11 13 15 17 19 21 23 26 28 32 34 35 35 37 38 40 41 42 43 44 45 46 47 47 48 48 47 47 46 46 45
23 22 20 18 17 16 15 15 16 15 13 10 11 12 9 7 4 2 2 5 9 13 16 18 20 22 24 27 30 33 35 36 36 37 39 40 42 43 44 44 44 44 43 43 42 42 42 42 42 42 42 42 41 41
25 24 22 21 20 20 18 17 16 15 15 13 11 7 4 3 4 9 13 16 19 21 22 23 24 26 29 32 33 34 35 37 39 41 42 43 44 44 43 42 40 37 35 34 34 34 35 35 36 36 36 36 36 36
26 26 25 24 22 19 19 19 20 17 12 9 6 4 6 9 12 15 18 21 23 24 25 27 30 32 33 35 36 39 40 41 41 41 41 39 36 33 30 27 26 26 25 25 25 26 26 27 27 28 29 29 29 30
30 28 26 23 20 22 21 18 15 13 9 4 5 8 11 14 17 20 23 25 27 28 31 33 34 36 38 40 42 42 41 41 40 37 33 28 25 26 26 27 27 26 25 23 22 21 21 22 22 22 22 23 23 23
29 27 27 26 24 20 17 13 10 5 2 4 9 13 16 19 21 25 27 29 31 33 34 35 37 40 42 43 42 41 41 39 34 28 25 24 24 24 24 23 22 22 23 23 22 22 23 23 24 24 25 25 26 26
30 28 26 22 19 16 13 9 4 1 5 9 13 18 21 23 26 28 29 31 34 34 35 38 41 43 43 42 42 42 38 32 27 25 25 24 23 21 19 17 15 15 15 15 16 18 19 20 21 22 23 23 23 23
21 18 16 15 13 10 7 5 5 7 10 13 18 23 24 26 28 29 31 33 33 35 38 41 44 44 42 44 43 38 32 27 25 23 22 21 19 18 17 16 15 14 15 15 15 16 16 16 16 15 15 15 15 15
16 15 14 12 10 9 9 9 10 12 15 18 24 26 27 28 29 31 32 32 34 37 41 44 46 43 44 45 40 33 28 26 23 22 20 19 18 17 16 16 16 16 17 17 17 17 18 18 17 16 15 15 15 16
16 15 15 14 14 13 13 14 16 17 20 23 26 27 28 29 30 32 31 32 35 39 43 46 45 44 46 43 35 29 26 25 23 21 19 18 18 17 16 16 16 17 17 17 17 16 15 15 15 15 16 17 17 18
19 19 19 18 17 16 16 18 19 20 24 25 26 27 28 29 31 30 30 33 36 40 43 45 45 46 46 40 32 27 25 23 22 20 18 17 16 16 16 15 15 16 16 16 16 15 15 16 17 18 18 19 20 20

GFSWCAN_500_spd_093.txt.gz
Wind_Speed
37 35 33 33 31 29 28 25 23 21 20 20 18 17 19 20 22 24 27 28 29 24 22 22 26 20 24 19 18 28 26 25 24 15 19 15 21 21 19 6 8 10 11 11 13 17 15 18 20 20 12 17 22 25
36 34 34 33 30 30 30 27 26 24 22 21 20 18 18 19 19 18 15 16 19 16 22 26 21 23 19 21 21 25 26 28 23 19 21 19 19 20 11 20 15 8 9 10 13 12 12 18 25 32 16 13 17 23
34 33 32 31 31 29 28 27 25 24 21 21 21 21 20 20 20 18 17 17 14 8 19 28 20 24 27 25 22 28 26 20 23 24 22 19 19 21 19 17 18 21 14 12 14 15 11 12 18 16 18 29 26 22
31 30 29 31 26 23 24 25 25 26 26 25 26 26 23 22 21 20 17 16 15 11 11 16 30 26 29 33 26 27 18 20 24 26 24 22 19 20 20 16 22 19 15 18 17 18 18 19 27 15 14 18 21 23
27 26 23 17 19 22 22 24 27 29 30 28 29 28 29 27 25 23 18 16 15 13 11 16 24 31 28 43 30 28 25 18 24 27 27 19 19 22 18 22 22 25 14 23 22 27 23 20 20 19 17 20 21 21
22 17 15 17 19 21 25 27 30 32 33 31 26 26 27 30 29 28 25 22 19 15 15 10 22 33 30 40 41 32 31 26 25 22 25 22 21 20 19 22 24 25 31 14 22 16 16 17 22 23 22 20 13 18
14 12 10 13 17 19 23 28 31 33 32 30 27 25 27 31 29 29 23 18 19 17 13 8 18 24 21 28 41 35 33 27 25 23 24 24 21 20 21 22 18 24 31 29 28 28 28 25 19 17 15 11 10 10
12 8 9 10 15 18 25 28 25 24 23 27 28 26 22 27 30 29 24 23 17 17 15 13 14 18 18 23 33 34 31 27 24 24 26 23 22 22 26 20 17 19 19 22 30 31 30 27 22 20 18 17 16 16
9 3 5 7 10 18 18 15 10 11 25 27 30 25 27 30 28 26 23 18 13 16 15 12 16 19 18 21 31 30 26 23 18 27 25 24 20 17 21 20 16 19 22 21 22 25 27 26 24 22 22 20 18 18
10 3 4 4 8 11 15 16 18 22 25 29 29 27 28 27 25 27 20 18 16 14 17 18 22 14 18 24 28 27 24 24 25 22 26 21 22 23 21 20 16 18 23 25 25 25 24 24 23 21 22 23 23 23
10 3 4 7 10 14 16 22 20 20 23 28 30 30 25 27 26 24 20 19 16 18 18 20 22 18 17 16 24 29 27 25 26 23 24 23 19 16 17 20 23 20 20 21 21 21 22 22 23 24 25 26 28 30
8 12 15 13 13 13 16 17 16 23 27 23 23 23 23 26 22 20 21 18 16 22 21 19 17 16 16 21 17 25 29 28 26 24 25 24 21 22 22 22 23 24 24 24 23 24 24 25 26 28 30 32 34 35
14 18 15 16 17 17 17 19 23 25 24 22 25 27 29 25 27 25 20 14 12 16 17 16 17 15 17 23 20 21 22 26 28 28 28 25 23 22 24 23 24 25 25 27 29 30 31 31 32 32 32 31 33 34
19 20 17 18 15 16 19 21 21 21 23 22 23 24 26 22 20 16 13 12 12 15 17 19 20 19 16 16 12 18 23 26 29 31 28 25 26 27 26 26 27 27 29 31 33 34 36 36 32 30 31 32 32 32
24 20 19 17 14 12 13 16 19 21 18 16 16 17 15 14 12 13 12 13 14 15 21 18 19 20 18 23 14 16 17 21 27 24 20 20 22 25 26 27 30 32 33 35 36 35 34 32 33 34 34 34 35 34
25 26 26 23 22 20 20 18 14 14 13 15 13 11 10 11 11 12 12 13 12 14 17 16 15 20 18 25 21 13 15 17 17 20 20 20 23 25 29 31 32 33 33 33 33 33 35 37 38 37 37 36 35 35
30 26 23 22 18 18 21 22 22 20 20 18 17 14 12 19 18 18 14 11 12 12 12 16 10 11 13 15 12 8 11 12 17 22 25 24 26 27 28 28 30 32 33 34 36 38 40 41 41 39 36 35 36 34
23 23 23 19 19 20 19 20 21 21 20 19 19 19 18 17 16 15 14 15 12 10 10 10 7 7 7 8 10 12 13 16 19 23 25 28 30 32 33 34 35 36 36 37 38 40 39 37 36 36 34 35 35 34
23 24 20 20 18 18 18 19 19 17 16 15 14 13 12 12 11 11 10 9 8 7 7 8 8 8 10 12 13 15 15 17 19 21 23 25 28 31 34 36 38 39 40 39 36 35 37 37 36 36 36 37 37 37
24 22 20 18 18 17 16 14 14 13 12 11 9 8 8 7 7 7 7 6 6 6 7 7 6 5 5 5 8 10 14 16 18 19 20 22 23 24 26 28 29 31 32 33 35 36 37 38 40 41 43 43 43 43
25 21 19 18 15 12 8 7 6 6 7 9 8 9 10 9 8 9 10 10 9 7 4 2 3 6 11 14 16 17 19 21 24 26 28 30 31 33 34 36 37 39 40 41 42 44 45 45 46 46 47 47 46 46
25 22 17 13 10 7 5 4 3 7 14 14 13 13 13 13 12 10 7 5 3 2 4 7 10 13 17 20 23 26 28 30 32 34 35 36 38 40 42 43 45 46 48 49 50 50 50 51 51 51 50 50 49 48
24 22 19 13 7 5 5 4 9 13 13 13 13 12 11 10 9 7 5 3 2 5 9 11 13 16 17 18 20 23 26 29 31 32 32 34 35 37 38 39 41 43 44 46 47 48 50 50 51 51 51 50 49 47
23 21 18 16 12 9 8 11 13 13 13 13 12 13 11 9 6 3 1 2 5 9 12 15 17 19 21 24 27 29 30 32 34 36 38 40 41 42 42 43 43 43 43 43 43 43 43 43 44 44 44 44 43 42
24 22 19 16 15 14 14 15 15 13 13 15 12 10 7 4 2 3 7 11 14 17 18 19 20 23 25 28 30 32 35 37 39 39 38 39 40 41 41 39 37 35 32 30 28 28 28 28 29 30 31 31 32 32
22 21 20 20 18 16 15 16 15 16 14 10 7 5 2 3 7 11 14 17 19 21 22 24 26 28 30 33 36 38 39 38 39 40 40 39 37 33 30 28 28 26 27 27 28 27 25 24 23 23 23 23 23 24
24 22 20 18 18 18 18 19 18 14 11 6 3 2 6 10 12 15 19 22 24 26 27 29 31 33 36 39 41 42 41 41 42 40 36 31 28 26 24 24 25 25 24 23 23 24 23 23 22 22 22 22 23 23
24 23 21 20 20 21 20 17 14 10 7 3 3 7 12 16 18 22 24 26 28 29 30 32 34 38 41 43 44 43 44 44 40 33 28 26 25 24 23 22 21 19 18 16 15 15 16 18 19 21 22 23 24 24
26 26 23 24 23 21 19 15 12 8 5 4 8 12 17 21 23 25 27 28 30 31 32 34 38 42 45 47 44 46 45 40 33 27 25 25 24 22 21 19 18 17 17 16 15 16 16 16 16 16 16 17 17 18
24 24 23 22 19 17 14 10 8 7 7 10 13 16 22 24 25 27 28 30 30 31 33 36 41 45 47 46 47 47 43 35 29 26 24 22 20 19 19 18 17 16 16 17 17 18 18 18 19 18 18 17 16 16
22 20 18 16 14 13 12 9 9 10 12 14 18 21 25 26 27 28 29 30 30 31 34 38 43 46 47 46 48 47 39 31 27 25 23 22 20 19 18 17 17 17 17 17 18 18 18 17 16 16 16 16 17 18
18 17 16 14 12 12 12 12 13 15 17 19 21 24 26 28 27 29 30 30 30 31 35 40 44 47 47 47 48 44 34 28 25 23 22 21 20 19 18 17 17 16 16 17 17 17 17 16 16 16 17 17 18 18
18 18 18 17 16 16 16 16 17 19 20 23 25 26 28 28 28 30 31 30 30 32 36 40 43 47 47 48 48 42 33 28 25 22 21 20 20 19 18 18 17 17 16 16 16 17 18 18 19 20 21 21 21 21

GFSWCAN_500_spd_096.txt.gz
Wind_Speed
44 40 37 35 35 33 32 30 29 25 24 23 20 19 19 18 19 21 18 24 26 22 24 25 26 22 20 17 16 24 26 21 20 17 14 13 15 19 25 25 18 16 18 21 21 23 21 20 20 21 19 16 22 21
41 38 35 34 33 32 32 31 29 26 25 24 23 21 21 21 21 19 17 20 24 23 20 26 24 22 19 21 22 25 17 19 17 18 11 15 13 19 18 16 6 14 17 16 20 18 17 19 19 24 25 18 20 21
37 35 34 33 31 32 33 29 29 28 25 23 22 22 21 21 20 16 17 18 13 13 23 28 19 28 25 25 24 24 29 25 18 19 14 15 15 19 14 8 10 12 12 13 11 11 11 12 10 20 28 26 19 16
35 33 31 30 30 31 32 28 26 23 22 22 21 22 21 20 19 17 16 16 14 15 19 24 34 26 30 30 27 23 26 28 22 18 20 18 17 19 15 11 5 12 16 13 12 10 13 14 14 15 18 21 22 21
33 31 27 27 27 28 22 18 20 21 24 26 26 26 24 23 23 19 17 16 17 16 15 17 16 27 27 33 28 18 22 21 22 20 19 20 20 19 19 22 11 14 19 21 16 18 15 17 16 16 23 21 19 17
31 26 24 24 24 19 20 23 24 24 27 28 28 28 27 25 25 26 22 19 17 16 16 15 14 24 32 33 34 23 21 26 17 20 21 21 20 16 14 20 21 18 25 29 26 12 21 18 27 21 16 17 19 20
25 22 20 19 14 17 20 22 26 28 27 26 28 28 27 25 25 26 24 20 19 18 17 17 13 20 29 31 35 34 27 27 20 19 19 20 22 19 22 13 20 22 25 25 27 18 20 17 13 16 17 16 18 23
20 17 15 12 13 16 18 23 27 31 32 31 31 28 24 20 20 26 28 22 20 19 18 16 12 11 18 24 23 41 29 29 22 19 18 18 20 18 21 20 19 18 17 13 18 29 29 25 24 22 20 19 19 18
17 15 11 9 8 11 15 16 17 19 20 21 28 29 25 23 23 25 25 21 18 17 17 14 8 14 15 14 15 22 36 28 24 22 21 20 24 25 20 21 21 21 18 18 22 23 25 28 26 24 25 24 23 23
18 12 8 3 3 11 8 10 10 15 24 29 30 28 29 24 25 25 19 20 17 17 16 16 18 12 17 13 19 18 25 30 28 22 19 22 26 25 22 19 24 26 26 23 22 24 24 22 24 25 27 27 26 25
16 8 8 12 9 9 11 11 15 21 27 30 33 33 28 27 24 21 21 19 17 12 15 18 23 15 21 17 17 19 22 26 27 26 20 19 25 23 25 24 20 24 21 22 24 26 28 28 28 27 27 27 26 26
14 13 17 15 12 12 14 18 22 25 24 25 28 29 30 28 26 23 20 19 16 14 16 19 26 20 14 15 20 23 24 23 24 23 25 20 22 24 23 25 22 23 25 25 24 25 27 28 26 26 27 28 28 30
20 20 18 17 16 14 15 23 22 20 26 32 29 30 29 26 27 23 20 14 10 13 18 18 18 18 17 15 13 17 21 28 29 28 24 21 23 22 23 24 24 26 24 24 25 26 27 28 29 30 31 32 32 32
23 23 21 19 17 17 19 21 20 21 17 20 23 27 25 21 19 16 12 11 12 18 20 18 18 16 17 17 20 14 15 20 28 28 26 27 27 26 24 25 24 26 27 28 30 32 34 35 36 37 37 37 37 33
24 23 20 19 19 18 19 20 20 21 22 21 22 21 18 14 14 13 14 14 11 12 17 19 18 18 16 15 18 13 13 19 22 21 23 26 28 30 30 31 30 33 35 35 35 36 37 38 40 40 40 37 35 36
23 21 18 14 15 16 17 18 20 18 17 17 17 16 15 13 14 15 14 15 15 16 15 16 17 20 18 16 21 18 11 9 14 17 21 26 28 28 27 29 32 34 34 35 35 35 36 36 35 36 36 37 39 41
27 27 27 23 17 16 16 17 17 14 14 14 14 12 10 11 12 12 12 11 10 11 9 10 11 12 15 15 19 18 13 12 10 11 16 19 23 25 28 30 32 33 33 34 33 33 35 36 37 37 37 38 39 40
31 27 22 18 18 21 22 23 21 20 19 18 19 19 21 21 20 18 16 15 13 11 10 10 6 7 10 10 14 17 15 14 14 15 18 22 26 29 31 33 34 36 37 38 38 38 39 40 41 42 42 41 40 39
26 23 20 25 23 24 23 22 21 20 21 21 20 18 17 16 17 17 17 15 13 10 10 9 5 6 7 7 9 12 15 17 19 20 22 25 28 30 32 33 34 35 36 37 38 39 40 41 41 40 40 40 39 39
24 23 23 24 23 21 21 20 20 19 18 17 16 15 14 12 11 10 8 7 6 4 5 5 6 6 7 9 10 11 14 17 20 23 26 28 29 31 32 34 35 36 37 38 38 39 40 41 42 42 42 43 43 44
24 23 21 21 19 16 14 12 12 13 12 10 10 9 9 8 8 7 8 10 10 9 7 4 4 5 7 11 15 18 21 24 26 28 30 32 33 34 35 37 38 39 41 42 43 45 46 47 47 47 48 49 49 50
24 23 20 17 14 12 10 8 9 13 13 13 14 14 15 15 15 13 10 7 5 2 2 5 8 12 15 18 20 23 26 29 31 32 35 36 38 40 41 42 43 44 45 46 46 47 47 47 47 47 47 47 47 48
22 20 17 13 9 9 8 12 16 17 16 17 17 16 14 12 10 9 6 4 4 5 8 10 12 15 16 17 19 23 26 30 32 35 37 39 41 42 44 45 45 46 46 47 47 47 48 49 50 50 50 50 50 49
20 16 11 7 6 6 10 14 15 15 15 14 13 14 13 10 7 4 4 3 4 6 9 12 14 14 17 21 24 27 30 32 34 36 37 38 38 39 40 41 43 43 43 43 42 41 40 39 38 38 38 39 39 39
18 15 11 9 8 8 14 15 14 15 14 15 14 11 9 6 3 1 3 6 9 12 14 15 17 20 22 26 29 32 34 35 36 37 38 40 41 42 41 39 36 34 32 30 29 28 28 29 29 30 29 29 29 29
18 16 15 13 12 13 16 15 13 15 15 12 10 7 4 1 3 6 9 11 14 17 19 20 23 26 29 31 33 36 38 39 39 41 42 41 37 34 32 29 26 24 25 25 24 24 25 26 26 26 26 26 26 24
19 18 17 17 17 17 17 16 15 15 13 10 6 2 2 6 9 11 14 17 19 21 22 25 26 29 31 35 39 40 42 43 44 44 41 33 28 25 24 24 23 22 22 22 21 20 18 18 19 19 20 22 23 24
21 21 21 20 19 18 18 18 17 14 10 6 2 4 7 11 14 16 19 21 22 24 26 27 29 32 35 39 43 44 45 46 46 41 32 27 26 24 22 21 20 20 18 17 18 18 17 16 17 17 17 16 18 19
24 22 21 20 20 19 20 19 15 12 8 6 7 9 11 16 19 21 22 24 25 26 27 29 31 34 38 42 46 47 47 48 44 35 29 26 25 23 20 19 19 18 17 17 16 16 17 18 18 19 20 19 19 19
22 21 19 18 19 21 20 17 12 10 9 10 11 13 15 19 22 23 25 26 26 28 29 30 33 36 39 44 47 47 48 47 39 30 27 25 24 23 21 19 19 18 16 16 16 17 18 19 19 19 19 18 18 19
22 21 20 20 20 17 14 13 11 11 12 13 15 17 19 23 25 26 26 27 28 29 30 31 34 37 41 44 47 48 48 47 38 30 26 23 22 21 20 19 18 18 17 17 16 17 17 18 18 17 17 16 16 17
21 20 17 14 12 12 13 13 14 15 15 17 18 20 23 25 27 28 28 29 29 29 30 31 33 36 40 44 48 49 48 48 39 31 28 25 22 21 20 19 19 18 17 17 16 16 17 17 18 19 20 20 21 21
19 19 19 19 17 16 17 17 17 18 19 21 22 23 27 27 29 29 30 29 30 31 31 31 33 36 40 44 47 49 49 49 41 32 28 26 24 22 21 20 19 19 19 19 19 18 18 18 18 18 19 19 20 20

GFSWCAN_500_spd_099.txt.gz
Wind_Speed
53 49 47 45 43 41 37 34 32 30 28 27 25 25 23 21 19 16 16 21 22 21 26 25 23 20 18 18 17 15 16 17 16 11 11 9 10 11 19 20 17 15 14 17 24 25 25 25 23 23 23 22 18 20
55 50 47 44 42 40 36 34 33 30 28 28 27 26 26 24 22 18 15 19 20 24 25 28 26 24 21 21 18 16 18 19 14 14 14 13 11 12 22 18 10 12 20 22 28 26 23 23 25 25 25 23 19 15
55 51 46 43 40 38 35 34 32 29 30 27 26 27 27 25 22 19 17 19 19 13 22 29 29 34 24 20 22 16 20 17 21 15 15 9 13 12 16 21 15 11 12 24 19 20 17 17 17 15 18 21 22 18
49 48 43 39 36 35 34 33 30 30 31 31 29 28 26 24 22 19 18 21 18 16 19 27 31 32 25 24 23 23 30 23 16 15 15 13 12 12 14 14 11 3 11 12 16 13 13 10 11 10 11 14 18 23
37 42 39 36 34 33 32 29 28 28 23 22 24 26 25 23 21 19 19 20 17 16 16 21 18 20 21 25 25 26 23 31 27 17 11 19 17 15 16 13 13 3 7 17 14 15 13 16 14 13 11 14 14 13
35 37 34 32 30 29 28 27 25 25 24 24 25 25 25 25 26 25 22 17 17 16 16 14 13 14 20 24 25 27 24 27 30 32 16 17 15 17 17 15 1 15 8 14 18 17 12 11 12 16 16 11 18 17
34 33 31 28 26 26 24 25 25 27 27 27 27 27 27 26 24 21 17 20 20 18 18 18 15 15 18 24 23 28 24 24 23 30 21 20 19 20 17 16 6 12 16 14 17 17 15 12 13 15 15 13 18 18
32 29 26 24 22 22 22 24 25 25 26 27 27 26 25 24 25 22 23 25 22 19 20 20 19 15 15 21 27 33 24 23 27 23 19 18 19 22 18 15 13 12 15 14 15 20 20 21 19 16 16 14 16 17
28 26 22 19 18 17 17 20 21 24 27 30 32 29 29 27 22 20 21 25 22 20 19 18 16 13 13 13 22 29 32 29 26 27 17 18 18 19 16 14 17 18 17 16 17 20 19 17 20 23 25 25 22 22
27 22 20 15 11 8 10 10 11 18 27 32 32 33 31 24 22 18 18 22 23 21 20 19 14 14 13 15 16 16 17 32 30 27 20 18 15 16 20 20 21 20 20 20 22 22 22 22 22 22 23 24 25 25
24 21 18 16 12 4 5 6 4 10 23 32 36 37 30 26 23 21 25 23 24 20 20 20 20 19 15 14 13 17 11 25 33 29 23 19 13 16 21 23 22 21 21 25 25 25 24 23 24 26 26 26 26 26
23 20 21 17 12 12 12 16 17 21 26 30 32 34 30 29 28 25 20 24 20 19 19 19 21 14 17 5 22 18 17 18 27 28 25 21 19 16 22 24 22 26 29 25 27 26 24 26 28 28 29 29 29 28
20 22 22 20 16 20 20 24 25 27 27 26 28 34 28 30 25 19 21 23 17 13 15 17 20 21 12 15 13 18 19 20 22 29 26 16 18 21 19 22 26 25 24 23 23 23 23 25 25 27 28 30 30 29
23 26 22 21 22 25 24 23 24 28 29 27 29 35 28 24 20 20 15 13 12 12 16 17 18 23 17 16 18 11 13 18 23 29 27 24 23 24 24 23 24 24 27 28 28 29 29 29 31 33 34 35 35 36
27 25 25 24 23 20 20 25 26 26 25 28 29 29 22 20 18 15 16 15 12 15 17 16 17 16 17 17 18 15 12 11 12 15 19 22 22 24 28 31 32 33 33 34 33 34 34 35 37 38 39 40 41 42
27 25 24 23 21 20 20 20 19 22 22 23 22 21 18 15 16 16 15 13 10 11 15 16 15 15 15 14 15 19 20 17 15 17 21 24 26 28 29 30 31 32 33 32 33 34 35 37 38 38 38 38 38 37
26 22 22 22 22 20 19 19 20 19 18 18 17 15 14 14 15 15 14 14 13 12 11 12 12 12 16 16 16 13 18 16 14 14 17 21 25 27 28 28 29 31 32 35 36 36 37 38 38 39 39 39 39 39
29 24 21 18 18 19 20 18 16 16 16 15 13 13 12 12 13 12 10 11 12 13 11 10 12 11 13 15 16 17 21 22 19 20 20 20 22 24 26 28 31 35 39 40 41 41 41 42 43 43 44 44 45 44
27 21 20 21 22 22 20 19 19 19 19 19 20 19 17 17 16 15 16 16 14 13 12 11 9 8 9 9 9 11 15 20 23 24 25 26 27 29 31 33 34 36 36 37 38 38 38 38 38 37 37 38 39 39
22 21 22 22 23 23 23 24 25 24 22 21 19 18 18 17 16 15 14 12 11 9 7 6 4 5 7 9 10 12 15 17 20 24 27 30 33 36 38 39 41 42 43 44 45 45 45 45 45 45 44 44 45 45
26 25 26 25 23 23 22 20 20 19 18 16 15 15 14 13 11 9 8 8 8 8 7 5 4 4 7 9 13 16 19 23 26 29 31 33 34 36 38 39 40 41 42 43 44 44 45 46 47 47 48 48 48 48
27 25 22 20 18 16 16 16 17 15 13 13 13 12 12 13 14 14 11 9 7 4 2 2 5 9 12 15 17 20 22 25 29 33 36 39 41 43 45 46 47 47 48 48 48 48 48 48 48 48 48 48 48 48
23 20 17 15 14 11 13 15 15 14 14 15 15 17 17 15 12 10 7 5 4 5 7 8 11 14 14 14 16 20 24 27 30 33 36 38 39 41 42 43 43 44 45 46 46 46 46 46 45 44 44 44 44 44
20 17 14 13 12 14 17 18 18 19 18 18 17 16 14 12 10 7 5 5 4 5 7 10 10 10 13 17 21 24 28 31 34 35 37 38 39 41 43 44 44 43 42 40 39 37 36 35 34 34 34 34 34 34
17 12 9 10 11 15 16 17 16 15 16 16 16 12 10 9 5 3 4 5 7 8 8 10 12 15 20 24 26 28 31 34 36 39 39 40 42 41 38 34 32 30 29 28 26 25 25 25 25 26 27 28 29 29
12 10 9 8 11 15 15 16 14 16 16 13 12 10 6 4 3 3 6 8 9 12 15 16 18 21 23 26 29 32 36 38 40 41 43 43 37 30 27 25 24 24 23 23 23 22 22 22 22 22 22 22 22 23
14 13 11 10 13 16 15 14 14 15 13 11 9 6 3 2 6 9 10 12 14 16 17 19 21 24 27 30 33 36 39 42 43 44 44 36 28 26 25 24 22 21 20 20 19 18 18 17 17 16 16 16 17 18
15 14 13 14 16 17 17 15 15 13 10 8 5 2 3 7 11 13 14 16 18 19 21 22 24 27 30 32 36 39 42 45 45 46 42 33 28 25 24 23 21 19 19 19 18 17 17 17 17 17 17 18 19 20
17 17 17 18 18 18 17 16 15 12 9 7 5 6 8 11 14 17 18 19 21 23 23 25 27 30 32 34 37 40 44 47 47 47 42 32 27 25 23 22 21 20 19 18 17 17 17 18 19 19 19 19 20 20
19 20 20 19 18 17 17 18 17 14 11 9 9 11 14 15 17 21 22 23 24 26 27 28 29 31 33 35 37 40 44 48 48 49 44 34 28 26 23 22 21 20 19 18 17 17 16 17 18 18 18 18 18 17
20 20 19 18 18 18 17 17 15 13 11 11 14 16 18 19 20 23 26 27 27 28 29 28 30 32 33 35 37 40 44 48 49 49 46 36 29 27 24 23 22 21 19 18 18 18 17 17 17 17 17 18 19 20
21 21 19 16 15 15 15 14 13 13 14 16 18 20 22 23 23 25 29 30 29 29 30 30 31 32 33 33 36 39 43 47 51 50 49 39 31 28 26 24 22 21 21 20 20 20 20 19 19 19 19 19 19 20
21 20 18 18 17 16 16 16 17 18 19 20 22 24 26 26 26 26 30 33 31 30 30 31 31 33 34 34 36 38 41 45 49 52 50 43 34 29 26 25 23 22 21 21 21 21 20 20 19 20 21 23 24 24

GFSWCAN_500_spd_102.txt.gz
Wind_Speed
58 56 53 50 47 45 43 41 38 36 32 32 29 27 25 24 23 21 19 21 21 20 23 21 20 20 19 18 15 14 11 10 11 8 4 8 8 10 10 15 16 12 13 15 15 14 11 11 13 14 14 15 16 17
63 58 54 51 49 46 43 41 38 36 33 33 30 27 26 26 26 23 21 24 21 21 21 26 25 25 25 21 16 13 9 13 13 7 11 6 5 7 15 18 17 17 17 17 17 12 12 13 14 17 20 20 19 19
54 57 58 55 50 47 44 40 37 35 33 32 29 27 27 27 27 24 23 24 22 18 18 24 28 32 29 25 16 13 10 17 19 14 12 9 5 8 12 15 18 17 11 17 15 15 10 11 12 15 17 20 21 19
42 41 47 51 53 49 44 40 37 34 33 32 29 28 27 26 27 25 22 23 23 19 18 24 28 30 28 23 15 20 18 19 20 17 11 11 7 8 12 13 16 12 13 10 16 11 7 12 13 11 13 9 8 13
41 41 38 39 49 47 44 39 35 33 32 30 28 29 28 27 27 24 23 24 23 18 17 20 21 20 18 20 19 23 22 24 21 15 10 7 13 12 14 13 8 11 6 9 5 16 19 18 16 15 14 9 10 11
39 38 36 34 39 40 39 37 34 32 29 28 28 26 23 24 25 24 21 17 17 17 18 18 17 13 13 14 18 23 26 26 26 21 10 12 12 13 14 16 6 2 8 3 5 8 14 19 16 10 10 9 7 9
38 33 33 31 34 36 34 34 31 28 28 27 25 22 22 24 24 22 19 22 21 19 17 18 16 11 12 14 18 21 22 23 27 32 28 10 10 11 10 13 13 2 4 7 4 9 11 5 8 11 13 13 13 14
33 31 29 31 32 31 30 28 28 28 27 26 24 23 24 25 25 23 19 19 22 21 19 17 16 13 13 11 19 18 20 25 20 23 25 27 22 16 13 14 16 10 6 6 8 8 7 11 14 14 12 12 13 12
31 30 31 30 28 26 26 26 25 25 24 23 22 22 23 25 20 20 15 21 22 23 19 17 17 14 14 11 14 22 21 23 19 21 22 24 20 15 12 14 14 14 10 9 10 11 12 12 11 13 17 18 18 19
34 33 28 26 23 20 20 21 22 23 25 26 28 29 27 21 21 21 23 22 23 25 22 17 16 13 12 13 11 20 24 27 21 19 23 22 18 16 15 12 16 16 15 14 14 13 15 17 17 18 18 21 21 21
34 30 26 23 22 20 18 17 17 20 26 30 33 33 29 23 22 22 24 21 20 22 19 17 15 14 13 15 14 14 15 19 20 28 28 24 18 18 16 16 18 20 19 18 17 18 20 23 24 24 22 24 25 24
31 30 27 26 20 14 15 15 14 14 20 33 32 27 32 29 28 27 21 17 18 19 17 18 18 19 11 12 14 15 17 13 13 22 29 25 19 18 13 11 16 19 21 24 23 23 24 25 27 26 24 25 26 28
31 29 26 20 17 18 21 17 16 12 24 32 31 31 34 35 30 24 18 17 18 15 16 18 17 19 14 16 6 18 18 16 12 15 27 22 21 19 16 17 18 21 24 25 26 29 32 33 33 32 29 27 27 29
29 29 24 22 25 26 22 16 27 26 32 35 35 33 32 30 32 17 15 12 15 14 12 15 16 20 16 12 11 13 14 19 20 16 17 20 23 24 21 19 20 21 22 25 27 26 26 28 31 32 33 32 32 34
31 30 27 27 28 26 27 26 27 30 27 32 32 31 28 22 20 15 17 17 15 14 13 14 17 18 20 15 16 13 11 8 7 9 14 18 24 28 29 30 28 27 28 30 32 33 34 36 37 37 36 36 36 37
29 32 31 25 27 27 27 26 27 24 27 27 27 26 21 20 17 18 17 13 10 11 14 15 16 13 13 15 15 16 15 15 15 12 12 17 23 26 29 30 30 30 32 34 36 38 39 39 38 38 37 38 38 39
29 28 27 24 26 28 26 24 23 23 26 28 28 20 18 17 17 15 13 12 11 10 11 12 12 14 14 14 14 13 11 14 19 18 19 20 21 22 24 25 28 31 33 33 33 35 36 37 39 40 40 40 40 41
29 27 24 24 25 25 25 24 23 22 23 23 23 19 15 14 15 14 12 12 11 11 12 12 14 14 15 16 18 18 19 20 20 23 22 23 25 28 28 29 31 32 34 35 36 38 40 41 43 42 41 41 40 40
27 25 22 21 20 21 20 21 20 19 19 17 15 14 13 13 13 13 11 13 15 13 12 11 10 10 9 10 12 14 15 14 16 21 26 30 32 31 32 33 35 37 39 40 41 42 42 43 43 44 44 44 44 44
23 22 24 23 21 19 18 18 20 18 17 15 14 14 15 15 15 16 16 14 13 11 9 7 6 6 5 6 8 11 14 15 18 21 26 30 33 36 38 40 41 42 43 44 45 46 47 47 47 48 48 47 47 47
23 24 22 22 22 23 22 22 24 25 23 21 20 19 17 16 15 14 14 11 9 6 5 4 3 2 3 7 10 14 16 18 21 24 27 32 35 38 41 42 43 44 45 44 45 45 45 46 46 47 48 48 48 48
20 20 19 21 21 22 20 19 20 19 17 17 16 15 13 12 10 12 13 12 9 6 3 0 2 4 7 9 12 15 19 23 27 30 33 36 39 42 44 45 46 47 48 48 48 48 47 46 45 44 44 44 44 44
25 23 21 20 19 20 20 18 17 16 13 13 13 13 15 16 15 13 10 6 6 5 5 7 10 10 10 12 14 16 20 23 26 30 33 35 37 40 42 44 46 47 48 48 47 46 45 44 43 41 41 40 39 39
20 17 15 14 16 17 17 16 16 17 18 18 19 18 16 14 13 12 7 4 4 5 6 8 8 8 10 13 16 20 23 27 30 33 36 38 40 42 44 43 39 35 33 31 30 29 29 29 29 28 28 28 28 29
17 15 15 17 18 19 18 19 19 20 20 18 18 16 14 12 9 6 4 4 5 5 6 7 8 11 14 17 21 24 28 31 34 37 39 41 43 42 37 31 28 27 26 25 24 23 23 23 23 23 23 23 24 25
12 12 13 15 16 17 17 17 17 18 20 16 15 13 10 8 5 4 4 5 5 7 9 11 13 15 18 22 25 29 32 35 38 40 43 44 44 40 30 27 25 24 22 21 19 19 20 20 19 19 19 18 18 17
8 9 10 12 14 15 15 15 15 17 16 15 12 10 6 4 4 6 7 7 9 11 12 14 17 20 23 25 28 31 34 37 40 42 45 46 45 37 29 27 25 24 22 21 19 18 18 17 17 17 17 18 18 19
8 8 8 9 13 14 14 14 17 15 13 11 8 5 2 3 6 10 12 13 14 15 17 19 21 23 25 27 30 33 36 39 41 43 46 47 45 37 29 26 25 23 23 22 20 19 17 16 16 17 17 18 19 20
12 10 9 10 12 15 13 13 14 11 10 9 6 4 4 7 10 13 17 18 19 20 21 22 24 25 27 29 32 34 37 39 40 43 46 49 48 39 31 27 25 23 23 21 20 19 18 16 16 15 16 17 18 18
13 13 12 12 14 14 14 14 16 15 13 10 8 8 9 11 14 16 19 21 23 25 26 25 26 27 29 31 33 35 37 38 39 41 45 48 49 45 34 29 25 24 23 22 21 20 19 18 17 17 16 16 16 16
16 15 15 16 16 16 16 17 16 15 14 12 11 12 14 16 18 20 22 24 26 27 29 29 28 29 30 32 33 36 37 38 39 40 42 46 50 48 39 31 28 24 22 22 21 21 20 20 20 20 19 19 19 19
17 18 18 18 17 17 16 15 16 16 15 15 16 17 18 20 23 25 25 27 27 28 31 33 30 30 31 32 33 35 37 39 39 39 40 44 47 49 44 35 30 27 24 22 21 21 20 20 20 20 19 20 21 22
20 20 19 19 17 16 17 18 17 17 18 19 20 21 22 24 26 27 28 28 29 31 33 34 32 32 32 33 34 36 38 40 41 41 40 42 44 47 46 39 32 29 26 23 22 22 21 21 21 21 22 22 23 24

GFSWCAN_500_spd_108.txt.gz
Wind_Speed
52 51 49 46 44 42 40 37 34 31 28 26 27 29 29 27 23 20 21 20 20 18 19 19 18 18 17 15 14 14 13 11 7 12 6 4 2 6 7 6 9 11 10 7 6 12 17 22 16 16 19 19 19 17
52 52 52 51 48 45 43 40 36 33 31 32 32 32 30 27 25 23 19 23 22 19 17 20 21 18 17 15 15 18 15 11 8 12 12 5 6 3 6 10 10 11 12 11 10 10 17 17 13 13 16 16 15 13
50 50 51 51 48 47 48 45 40 37 34 33 32 31 29 27 25 24 21 23 24 21 19 20 20 19 18 15 13 16 16 11 9 13 13 9 9 2 6 8 12 15 15 15 12 8 10 17 15 12 13 14 15 16
49 48 47 47 47 47 45 43 44 41 38 35 34 31 29 28 27 26 23 24 24 22 16 19 20 19 18 16 14 17 13 12 11 17 15 12 10 9 8 8 9 14 15 10 11 14 15 15 16 13 12 11 11 9
40 41 43 45 45 44 43 44 43 39 39 38 36 33 31 29 28 27 24 24 24 23 16 18 20 18 14 17 15 16 16 15 15 22 18 12 11 12 8 6 6 5 11 11 12 15 17 12 14 15 14 10 9 9
40 39 37 36 37 40 43 43 42 42 40 37 37 34 31 30 28 27 25 23 23 24 20 19 19 16 17 16 15 14 15 15 18 23 25 15 11 10 8 9 12 9 3 7 7 7 15 18 13 16 13 9 13 10
43 40 37 35 34 35 35 40 43 45 44 42 37 34 31 31 29 27 23 21 23 20 17 16 15 13 13 13 12 12 14 17 21 22 28 23 14 14 9 7 7 10 4 9 10 6 10 23 19 21 16 14 15 14
44 43 40 36 34 34 34 32 35 44 45 41 38 35 31 30 28 26 22 18 21 19 14 13 13 11 10 10 9 10 11 12 16 21 27 27 19 16 11 4 4 9 8 12 14 11 7 10 11 15 15 17 18 18
49 45 43 39 35 33 32 31 29 34 38 36 35 33 31 30 26 19 18 19 19 19 16 13 13 10 9 8 8 7 8 9 13 20 25 30 23 21 14 7 6 8 10 12 16 15 13 10 15 15 15 14 15 16
46 48 44 40 35 31 31 33 32 35 35 33 31 29 28 26 21 21 21 21 22 23 13 12 11 9 8 9 7 7 8 11 13 15 22 26 28 30 26 20 15 14 15 15 15 18 19 18 18 17 16 15 16 18
47 50 45 39 35 32 32 33 36 36 37 34 30 27 26 22 22 23 24 25 26 19 15 15 12 12 10 11 10 10 4 2 5 12 16 17 15 17 26 26 20 17 17 19 20 19 17 19 21 21 21 21 22 22
51 46 41 37 33 34 36 35 34 34 32 31 31 29 25 23 23 26 29 25 18 15 10 13 14 14 13 12 11 13 8 6 6 9 11 10 11 20 22 23 19 18 20 22 22 24 24 23 23 22 22 23 24 25
47 42 38 38 39 37 36 35 35 36 36 36 31 27 25 25 24 24 17 12 10 7 13 15 14 13 14 12 10 11 9 10 8 10 9 6 10 14 23 26 23 21 23 20 22 25 26 27 27 26 26 27 27 28
46 47 44 43 41 39 38 37 36 35 35 34 32 29 27 25 23 17 11 9 12 12 11 11 13 15 16 14 13 11 15 15 14 11 10 13 15 12 18 21 26 24 24 23 19 18 21 24 27 29 30 30 31 32
50 48 43 39 36 34 33 33 35 34 34 32 30 30 23 12 21 20 13 15 13 14 13 12 12 13 15 15 13 9 6 7 6 8 9 12 11 13 15 18 23 25 26 28 28 29 31 29 28 29 32 35 37 36
43 40 38 35 33 33 33 34 31 32 33 29 26 25 26 18 22 19 17 13 12 10 10 9 11 14 17 15 12 11 12 12 14 14 16 16 15 13 15 19 22 24 25 26 28 29 29 30 32 34 35 36 37 38
35 32 35 37 32 32 28 28 29 26 29 25 29 21 18 19 23 20 14 12 11 10 10 10 13 16 16 16 16 14 13 15 16 17 17 17 18 18 20 23 25 26 28 30 31 33 35 37 38 38 38 39 39 40
35 35 37 35 31 32 30 32 30 32 27 26 21 11 17 21 21 18 14 13 11 10 11 12 13 12 11 10 12 14 15 16 18 19 20 21 21 22 22 23 26 31 35 38 41 42 43 44 44 43 44 44 44 44
34 35 35 37 31 27 23 23 22 24 24 23 20 21 22 19 17 16 15 13 11 10 11 11 10 10 11 11 12 13 14 15 15 16 18 20 22 24 26 28 30 33 35 38 40 42 44 45 46 46 47 47 48 48
32 31 31 32 31 26 23 23 26 26 24 25 22 21 20 18 17 16 14 15 12 10 9 8 9 8 6 6 6 7 10 12 14 17 18 21 23 25 28 31 33 34 37 39 41 42 43 44 45 46 47 48 49 50
30 29 29 29 26 25 24 25 26 27 27 24 21 20 17 17 17 17 15 13 11 9 10 9 8 6 6 6 7 9 10 10 13 16 21 24 27 30 31 32 34 37 39 41 42 44 45 45 46 47 47 48 48 49
26 24 23 22 21 21 22 22 22 22 21 20 18 18 18 17 17 17 17 16 14 13 11 9 6 4 4 5 4 6 9 13 16 18 21 25 28 30 30 32 34 38 39 40 39 36 33 32 32 31 31 32 34 36
23 22 21 21 21 21 22 21 21 22 22 24 23 23 22 21 20 18 17 15 13 10 9 8 6 4 1 4 7 10 13 15 16 19 23 28 30 29 31 33 37 41 40 33 29 28 27 26 26 26 26 27 27 27
24 23 23 24 25 25 26 26 26 24 23 22 20 20 21 21 19 17 15 14 11 9 7 4 2 1 3 6 9 11 13 14 16 20 24 29 32 32 33 35 39 42 38 30 28 27 25 24 23 23 23 22 22 23
21 21 22 22 21 21 21 21 21 21 20 21 23 22 20 19 17 15 13 10 7 4 3 2 1 2 4 6 9 11 13 16 18 22 26 30 35 35 35 36 38 41 39 31 28 27 26 24 23 22 21 20 20 20
15 17 18 18 17 17 19 20 23 26 26 24 23 21 18 15 13 10 9 7 5 3 2 1 2 4 6 9 11 14 16 18 21 24 27 31 35 37 36 36 37 38 39 34 29 27 26 24 23 22 20 19 18 18
15 17 18 19 20 21 23 25 25 24 24 22 20 18 15 13 11 9 8 7 5 5 5 6 8 10 11 12 14 17 19 21 23 25 27 31 34 37 37 36 37 38 39 37 32 28 26 24 23 21 20 19 19 18
16 18 18 19 19 20 22 23 23 23 21 20 18 15 12 9 8 6 5 3 4 6 8 9 11 14 17 18 18 19 21 23 25 26 28 31 33 37 38 39 38 38 39 40 38 32 28 25 23 22 21 20 20 20
13 14 15 15 16 17 18 20 20 19 17 17 16 14 11 8 5 2 2 4 7 9 11 13 14 17 21 22 23 22 24 26 27 27 28 30 33 36 39 40 41 39 39 40 41 38 32 27 25 23 23 22 21 21
11 12 13 14 14 15 16 19 19 18 18 17 15 14 12 10 8 7 8 10 12 14 16 18 19 21 24 25 26 26 27 27 28 29 29 30 32 35 38 40 41 42 40 40 41 42 37 30 27 24 24 23 23 22
9 12 12 14 16 17 16 17 18 19 18 18 18 17 16 15 14 14 14 16 17 19 21 22 23 25 27 28 28 28 29 29 30 30 31 32 33 35 38 40 41 43 42 41 42 42 41 35 30 27 25 24 24 24
11 13 14 14 15 17 18 20 21 21 21 21 21 21 22 21 20 20 20 22 23 24 26 27 27 29 30 32 31 30 30 31 31 32 32 33 34 36 38 40 42 43 43 43 43 43 43 40 34 30 28 26 25 25
14 15 16 17 18 18 20 21 22 22 22 23 24 25 25 25 25 25 26 27 28 29 31 32 32 32 33 35 34 33 32 32 33 34 34 35 36 38 39 41 42 44 44 43 43 44 44 43 38 33 30 28 27 26

GFSWCAN_500_spd_111.txt.gz
Wind_Speed
46 44 43 41 40 40 40 38 37 36 35 33 33 32 31 29 26 24 24 21 20 19 18 18 14 15 15 15 14 15 15 15 11 7 4 4 4 9 7 6 8 6 8 9 14 14 17 18 19 20 18 27 21 25
49 48 46 44 41 39 38 37 36 35 33 30 29 29 28 27 26 25 23 24 21 18 20 19 18 14 16 14 13 15 17 15 12 9 8 10 8 6 9 8 10 10 14 6 15 7 16 19 20 29 19 14 23 23
53 52 49 48 46 43 41 39 37 34 31 29 28 26 27 28 28 28 25 25 23 21 20 20 19 17 15 16 16 15 15 13 12 11 13 14 11 8 9 8 12 15 15 17 14 14 11 19 17 15 12 16 17 17
51 50 49 49 49 48 45 43 41 38 35 32 30 29 30 30 30 28 25 26 24 23 20 21 19 19 17 16 15 17 15 16 15 14 15 16 17 17 9 9 10 13 14 18 19 16 14 14 15 18 13 14 17 17
47 48 47 47 47 46 44 42 42 41 40 36 34 33 32 31 29 27 27 26 25 24 21 19 19 19 17 17 15 16 17 16 15 17 19 20 18 15 14 13 13 12 11 14 20 14 16 12 14 14 16 17 17 16
41 43 46 47 46 44 42 41 40 41 40 40 39 36 35 33 31 29 27 26 24 25 22 20 22 19 20 18 16 17 19 15 16 21 23 23 20 17 16 14 15 16 12 6 12 12 10 16 15 16 16 18 17 19
38 38 38 39 41 43 44 44 41 40 39 40 39 40 37 35 32 29 27 26 25 24 20 20 20 18 18 16 14 15 15 15 16 21 24 27 25 17 17 15 15 11 10 6 8 7 11 14 19 14 17 21 16 17
38 37 37 36 35 35 37 40 43 47 45 43 43 41 39 36 32 29 28 25 24 20 21 17 15 15 14 11 11 12 12 12 14 19 25 29 28 22 16 16 11 9 12 9 7 9 6 7 16 23 20 24 20 17
41 40 38 36 35 35 35 35 35 38 44 47 46 43 39 35 31 28 25 22 22 23 21 15 15 12 13 11 9 8 8 9 11 15 23 22 26 28 19 18 13 8 8 13 11 13 13 9 7 13 15 17 20 21
43 41 40 39 36 35 34 33 33 31 31 37 41 42 38 32 30 27 25 23 24 24 21 15 15 11 12 10 8 8 9 9 8 10 15 17 24 27 25 25 19 14 12 11 15 16 18 19 15 14 14 16 23 23
47 46 42 40 39 36 32 31 32 31 31 34 36 34 33 30 27 25 27 25 25 25 15 15 15 11 11 10 8 10 8 5 4 9 14 13 17 23 32 31 32 29 26 21 19 21 21 22 23 23 22 21 22 23
42 47 48 43 40 35 32 31 32 31 32 33 32 29 27 27 27 30 28 27 26 19 14 14 17 14 14 14 13 12 12 11 8 7 11 10 7 17 21 24 28 34 29 26 26 25 24 26 25 25 26 27 28 30
43 46 51 44 39 36 33 33 34 36 36 35 34 26 28 30 29 28 25 22 15 8 13 17 14 12 13 14 14 14 13 10 7 6 4 4 11 14 17 20 26 28 28 27 29 27 25 26 28 30 31 30 31 31
45 50 49 43 39 36 36 38 39 41 47 38 33 31 33 29 26 21 14 10 10 15 14 13 12 12 12 15 15 11 12 10 10 10 7 12 11 13 20 23 20 25 31 30 29 30 30 27 26 27 27 31 34 37
51 49 44 41 39 40 41 40 42 43 49 41 38 34 30 21 20 15 13 15 19 20 15 13 13 13 14 14 17 14 12 10 8 8 9 11 15 16 16 16 19 22 24 29 33 33 34 35 34 32 33 33 33 36
48 46 46 46 44 44 42 40 40 40 39 39 34 27 22 17 17 19 16 19 19 18 15 14 13 13 14 16 15 13 12 10 12 14 16 18 20 18 15 15 16 21 25 28 31 33 34 34 34 34 35 36 37 38
49 49 48 46 44 43 39 35 33 32 33 32 26 24 20 18 12 19 19 19 16 13 13 12 11 12 16 16 14 13 14 16 16 18 20 21 21 22 23 23 23 25 28 31 33 35 38 39 41 43 43 44 44 44
44 41 40 38 36 34 33 32 31 28 29 28 20 16 23 18 18 19 20 17 13 12 11 11 13 14 16 16 16 16 16 18 18 19 21 22 23 24 24 24 25 27 28 31 33 37 40 44 46 48 49 50 50 51
39 38 35 31 28 25 29 28 28 25 22 23 18 21 22 21 23 22 18 15 13 12 10 10 11 10 10 11 10 11 13 15 16 17 18 19 21 22 24 26 28 30 32 34 36 38 41 43 46 48 49 51 52 53
36 37 37 29 23 23 22 20 25 24 24 24 17 21 22 20 21 19 17 14 11 10 10 9 9 9 8 9 9 9 9 11 14 15 16 18 20 23 25 28 29 30 31 32 34 37 40 44 46 49 50 52 53 53
40 34 36 28 26 27 26 25 24 23 23 21 22 22 21 20 20 18 15 14 12 10 10 10 9 9 8 6 7 8 10 11 12 15 17 19 22 25 29 33 33 32 33 34 36 40 42 40 37 36 36 37 39 42
29 27 27 26 23 23 25 25 24 23 25 24 23 21 20 19 17 15 15 14 13 12 11 11 10 8 6 6 6 8 10 11 14 16 19 21 23 26 29 33 32 31 33 34 36 40 36 32 30 29 29 29 30 30
25 26 25 23 23 23 23 23 23 23 23 21 20 19 18 18 18 17 16 16 15 13 11 9 8 6 5 5 6 9 12 14 16 18 20 21 23 25 30 34 33 31 33 34 35 38 35 31 29 27 26 25 25 25
20 20 20 21 22 22 22 22 21 21 20 19 18 19 20 20 21 19 17 16 14 12 10 9 7 5 4 6 9 11 14 16 17 19 20 21 23 26 30 34 35 33 34 35 35 38 37 32 29 26 25 24 23 23
18 17 19 20 20 21 23 24 24 24 23 22 22 20 19 19 18 17 15 14 13 11 7 5 3 5 7 9 10 13 15 17 19 21 22 23 25 27 30 33 37 36 36 37 37 40 39 33 29 26 25 23 22 21
21 21 21 22 22 22 22 22 22 21 20 20 22 21 20 18 16 15 14 12 9 7 6 5 5 5 5 7 10 13 16 19 21 23 24 25 26 27 29 33 35 38 39 38 38 40 41 35 29 27 25 23 22 21
18 18 18 17 17 17 17 18 18 21 23 23 21 20 18 16 15 14 12 10 9 9 7 4 2 4 6 9 11 14 16 19 22 24 25 26 27 28 29 31 34 36 39 40 40 40 42 39 32 28 26 24 23 22
16 16 16 16 16 17 19 21 23 23 23 22 20 18 17 15 13 12 12 11 8 6 4 5 6 8 10 13 16 18 20 21 23 25 26 27 28 28 29 30 33 35 38 40 41 42 43 43 37 31 27 26 25 24
14 15 16 16 17 18 20 21 22 22 21 20 19 17 16 15 13 11 10 8 7 7 8 9 11 13 14 17 20 23 24 25 26 27 28 29 29 30 30 31 32 34 37 39 41 42 44 45 44 38 32 28 26 26
12 13 13 14 15 16 18 20 21 22 21 21 21 20 18 17 16 14 13 12 12 13 14 15 16 18 20 21 23 26 28 29 29 29 30 30 31 31 31 32 32 34 37 38 41 42 44 44 45 43 38 33 29 27
11 13 13 14 15 16 17 19 21 22 22 22 22 21 21 20 20 19 18 18 18 20 21 22 23 24 26 27 27 29 31 32 32 31 32 32 33 34 34 34 34 35 37 39 41 43 44 45 45 46 43 39 34 31
10 13 16 17 18 19 19 20 21 22 24 25 26 26 26 26 26 26 26 26 26 27 28 29 30 31 32 33 33 32 34 35 34 34 34 34 35 36 36 36 36 37 39 41 43 44 45 46 46 46 46 43 38 34
14 16 18 20 21 21 23 24 26 27 28 29 29 30 30 30 30 30 31 31 32 33 33 34 36 37 38 38 37 37 37 37 36 36 36 36 36 37 37 38 39 39 41 43 45 46 46 47 47 47 47 46 42 37

GFSWCAN_500_spd_114.txt.gz
Wind_Speed
49 48 45 42 39 37 36 33 32 33 31 30 28 28 25 25 24 23 27 27 25 21 17 17 15 14 16 17 17 17 18 17 14 11 6 6 5 6 9 5 5 7 10 11 13 17 19 23 25 22 20 29 26 16
50 48 46 44 43 41 40 36 34 31 30 28 27 28 27 27 26 27 31 30 26 20 20 18 18 15 15 16 18 16 16 16 15 11 11 7 11 6 8 10 14 13 12 10 8 10 9 20 19 23 27 19 33 25
50 49 45 44 43 41 40 39 37 36 33 30 29 28 27 27 28 31 31 29 23 20 22 19 19 18 17 16 17 17 18 16 17 16 13 12 14 12 10 14 8 11 15 18 17 15 13 11 16 23 20 14 23 24
50 49 46 45 42 40 39 38 36 35 33 32 30 28 26 26 28 29 27 27 24 22 21 20 19 18 19 17 17 18 18 17 17 17 16 16 16 19 15 12 12 13 15 18 20 22 21 17 13 16 19 12 16 16
50 50 49 47 45 43 42 41 39 36 35 32 30 29 28 28 29 30 29 26 26 24 21 19 19 19 19 19 18 18 18 18 17 18 18 18 20 21 21 17 13 17 16 16 19 20 21 18 20 18 16 19 17 14
53 51 50 50 48 47 46 43 41 39 38 36 34 32 31 31 31 31 29 26 27 25 24 21 21 20 20 20 20 20 18 19 19 19 20 19 24 23 23 21 19 18 17 15 13 17 20 20 18 16 16 16 18 17
44 47 49 49 48 47 46 44 43 43 42 40 38 36 34 34 32 30 27 25 26 26 23 21 21 21 20 19 19 19 19 18 19 19 20 20 25 27 22 21 19 19 14 13 9 7 12 15 15 20 17 16 17 18
37 39 41 43 44 44 44 44 43 42 41 39 39 39 38 36 33 30 28 28 27 25 23 22 19 19 19 16 16 14 15 16 17 18 19 20 23 24 25 18 20 19 16 14 7 9 8 8 8 12 17 16 16 22
33 34 35 37 38 39 40 42 43 42 42 41 41 40 38 37 36 31 30 29 26 25 24 21 18 14 13 13 13 12 11 13 14 13 14 18 17 20 23 21 18 19 18 15 12 11 11 11 9 7 10 15 19 20
34 34 34 33 33 34 35 36 38 39 42 44 43 40 36 35 33 32 30 28 27 27 26 18 17 12 10 11 12 11 10 11 10 10 11 9 15 17 20 27 26 23 23 19 13 12 16 17 15 15 12 13 15 19
36 36 35 33 33 33 33 33 33 34 35 38 41 41 40 37 34 31 29 28 27 25 21 16 19 13 12 12 11 11 9 7 6 5 8 9 7 11 17 24 28 27 28 26 24 20 20 21 20 22 22 21 21 21
37 36 36 35 33 32 31 30 29 28 27 27 29 32 31 30 29 30 30 27 25 24 17 18 16 15 14 14 14 14 13 10 8 9 9 9 10 14 15 17 22 30 33 36 36 38 38 35 29 26 26 26 26 27
43 41 38 37 35 33 30 27 28 28 28 29 31 32 27 30 31 30 29 27 24 12 11 18 17 14 15 14 14 18 17 11 10 10 6 3 9 11 12 14 19 23 27 29 33 31 33 33 32 32 31 30 31 33
42 45 44 39 37 33 31 29 29 29 30 35 31 34 27 26 26 24 21 13 13 14 16 17 16 14 13 14 13 15 15 12 12 10 4 12 12 13 12 16 19 22 23 26 26 28 31 32 33 34 35 34 33 34
40 44 48 44 37 35 32 30 30 33 39 41 33 32 33 27 25 21 18 12 17 21 22 15 13 13 13 14 15 14 13 10 9 11 12 11 11 15 19 22 21 22 22 22 23 25 28 34 36 38 39 40 41 41
40 46 50 44 38 35 32 32 38 44 48 39 27 22 31 27 21 18 14 12 16 18 17 14 12 12 12 13 13 14 13 12 11 11 12 15 18 22 24 25 25 26 25 25 26 28 30 33 36 39 42 44 44 45
46 47 45 40 37 34 34 41 45 50 43 37 28 25 26 23 17 17 17 15 17 16 14 12 12 12 12 13 12 12 12 14 14 16 18 21 23 24 25 27 28 28 28 28 29 30 33 35 38 41 44 46 48 50
47 43 39 37 36 39 40 40 48 46 40 38 31 22 20 17 17 19 19 18 17 15 14 12 13 12 12 11 13 14 14 15 18 19 21 22 23 23 24 24 25 26 28 30 33 35 36 38 40 42 45 48 50 52
43 42 40 38 37 37 37 38 41 39 33 28 24 19 18 20 18 20 22 19 15 13 13 11 10 9 9 11 13 13 13 13 15 16 17 18 19 19 21 23 25 27 29 31 31 32 34 36 38 41 44 47 50 52
45 43 40 37 33 30 29 28 26 25 24 23 22 17 23 21 20 20 20 16 14 12 11 8 9 9 9 10 11 11 11 11 12 14 15 16 18 20 23 25 28 32 36 36 33 32 34 35 36 39 42 41 41 42
35 32 29 28 26 23 21 19 21 18 18 17 19 23 24 23 22 20 15 15 13 11 12 12 11 9 9 9 8 8 10 11 11 14 16 17 19 22 26 28 31 32 36 37 33 34 35 35 40 43 40 36 34 34
34 31 27 25 22 15 11 19 17 20 20 21 23 23 20 20 18 16 16 15 14 13 12 9 9 9 9 8 8 8 9 11 13 15 17 20 23 25 28 30 32 33 36 38 36 35 35 38 42 39 35 32 29 29
18 16 20 21 17 19 17 19 22 23 21 20 21 19 18 17 17 17 16 15 14 12 11 11 10 9 8 7 6 8 10 13 16 18 21 23 26 28 30 31 33 33 35 38 40 38 37 41 42 38 34 30 28 27
16 19 20 18 18 21 21 19 20 22 21 20 18 17 17 16 17 16 16 15 15 14 12 10 9 8 7 6 8 10 13 15 18 21 23 25 27 29 30 31 32 33 34 36 38 40 40 42 44 40 35 31 28 26
18 18 18 18 18 19 18 18 18 18 17 16 16 17 17 17 17 18 17 15 14 12 11 9 8 6 6 8 10 13 15 17 19 21 23 25 27 28 30 31 32 33 34 35 37 38 40 42 44 43 38 34 30 28
15 15 17 18 18 19 19 19 18 18 18 17 18 18 18 18 17 16 15 14 14 13 11 10 8 8 9 10 10 10 12 13 16 18 21 23 26 28 29 31 32 33 33 34 35 36 39 41 43 45 44 39 35 30
14 16 16 17 18 19 19 19 20 19 19 18 18 18 18 17 16 15 15 14 13 12 11 11 11 10 9 8 9 10 12 15 18 21 23 24 27 28 30 31 32 32 33 33 34 35 36 39 42 43 46 45 41 37
16 17 17 17 17 17 17 16 15 16 18 19 19 18 17 15 15 15 15 14 12 13 13 13 12 12 12 14 15 16 18 20 22 24 26 28 28 30 31 32 33 33 34 34 34 34 35 37 40 43 44 46 47 43
14 14 13 13 12 13 14 15 18 19 19 18 16 16 15 16 16 15 15 14 15 15 15 14 14 15 16 17 18 20 22 24 27 30 32 32 32 32 32 33 34 35 35 35 35 36 37 38 40 42 44 45 47 48
12 11 11 11 12 13 15 18 19 20 20 20 20 19 19 20 19 18 18 19 19 19 19 18 19 20 21 22 24 25 27 29 31 33 34 35 35 35 35 34 35 36 36 36 37 37 39 40 42 43 45 46 47 48
9 10 10 11 12 13 15 16 18 20 22 22 22 22 24 23 23 23 23 23 23 23 24 26 26 27 28 29 30 31 33 34 36 37 37 38 38 38 37 37 37 38 38 39 39 39 40 42 44 45 47 48 48 49
8 10 11 13 14 15 16 18 20 21 23 24 25 27 28 28 28 29 30 30 31 31 32 33 33 34 34 35 36 38 39 39 40 41 41 40 38 38 39 40 40 39 40 42 42 42 43 46 47 48 49 49 49 49
9 12 14 16 18 20 21 22 23 24 25 26 28 29 31 32 33 35 35 36 36 37 37 38 38 39 40 42 43 43 44 44 45 46 44 42 40 39 39 40 39 39 39 40 42 45 47 50 52 52 52 51 51 50

GFSWCAN_500_spd_117.txt.gz
Wind_Speed
49 41 39 36 38 37 36 35 35 35 33 31 31 31 30 28 24 24 25 25 24 23 19 21 19 19 18 16 15 18 16 16 16 15 15 10 9 8 5 3 9 14 10 10 13 15 14 17 19 19 18 21 21 24
52 50 42 46 41 38 35 38 36 33 30 31 31 29 28 28 30 27 26 23 22 21 21 21 20 18 18 15 14 16 15 17 14 14 14 11 11 13 11 9 7 6 8 12 13 11 12 18 20 19 23 26 24 20
54 53 53 49 45 40 39 36 35 34 33 30 32 31 28 29 29 27 25 24 24 22 22 22 19 19 16 16 15 14 16 15 16 17 15 13 14 15 16 13 17 8 9 11 14 17 18 12 10 14 18 21 23 30
54 52 50 50 47 44 43 40 37 33 32 32 30 29 29 27 26 26 25 26 24 23 24 20 18 17 16 17 16 15 16 15 16 18 19 16 14 15 21 19 16 15 15 13 14 17 15 17 16 16 16 16 17 17
54 53 51 50 46 44 43 41 40 37 33 31 29 28 27 26 25 26 25 25 24 22 21 21 19 18 18 17 16 17 17 18 18 18 20 18 17 17 22 24 20 17 14 15 18 19 18 17 18 21 20 21 19 19
53 52 50 50 48 45 43 39 38 37 37 35 32 30 29 27 27 26 24 23 23 21 20 19 19 18 17 17 18 20 18 19 19 18 19 19 21 19 23 24 23 21 18 16 17 19 18 15 16 18 18 19 20 20
48 50 49 48 47 46 43 41 39 37 35 34 32 31 31 29 28 26 24 24 25 23 20 21 20 18 18 18 18 19 20 19 18 17 19 19 22 22 21 24 23 23 22 20 16 13 11 10 13 15 17 22 21 17
44 44 45 46 46 45 44 43 41 39 37 36 34 33 31 29 29 27 27 27 27 25 24 21 19 20 19 17 17 17 16 15 15 15 16 18 18 19 21 20 22 23 20 19 18 15 13 8 8 9 12 16 19 16
45 47 45 44 44 43 43 43 43 42 41 39 38 36 34 33 31 30 29 28 27 26 24 21 20 18 17 15 13 12 12 13 13 15 14 13 13 15 13 14 22 23 21 19 18 16 15 13 10 9 9 10 11 12
33 38 43 45 45 45 44 43 43 42 41 40 38 37 36 35 34 32 30 29 28 26 25 20 18 16 14 13 12 11 12 10 9 9 8 8 5 8 10 13 20 26 27 23 20 20 18 15 13 17 16 16 16 15
29 30 32 35 37 38 38 39 39 38 37 36 35 37 37 36 35 34 31 31 29 28 23 18 18 17 14 13 12 11 9 7 6 4 6 6 5 9 11 12 15 19 24 26 25 24 27 26 26 29 27 24 22 23
28 29 29 30 31 31 32 33 33 32 33 34 34 34 34 35 35 34 31 29 28 26 20 15 17 18 15 13 13 14 11 8 7 5 7 6 9 10 12 12 11 11 14 17 23 27 31 33 36 37 38 37 32 28
31 30 30 30 30 29 29 29 30 31 31 31 31 30 29 32 35 35 32 27 25 17 15 16 20 19 17 19 16 16 15 14 10 9 7 6 8 10 9 11 12 14 16 19 21 24 27 30 31 32 32 32 32 31
33 34 33 31 29 29 28 28 28 27 27 28 28 29 24 21 25 24 24 20 15 13 16 18 20 19 15 17 17 14 14 12 11 10 8 8 10 11 11 11 17 19 22 22 24 25 25 25 25 26 30 33 34 35
36 34 34 32 31 29 27 26 26 28 29 29 29 33 21 13 19 20 17 15 15 21 22 21 18 15 15 15 15 14 11 9 7 8 9 10 11 11 14 18 22 24 25 26 27 28 29 29 30 30 31 33 36 38
41 40 36 33 31 28 28 26 26 28 28 30 37 35 21 11 20 20 19 15 15 20 22 18 13 12 13 13 14 16 13 10 8 6 8 10 13 16 20 24 25 26 27 27 27 28 29 30 31 33 35 37 39 41
43 40 39 34 32 30 28 26 28 29 35 41 35 27 24 17 20 20 18 20 18 14 13 12 12 11 11 11 10 10 11 12 10 10 12 16 19 22 23 24 24 23 23 25 27 29 31 33 34 36 38 39 41 43
41 43 42 37 33 30 29 29 31 42 47 28 26 23 23 27 19 17 18 16 14 13 11 9 10 10 8 7 8 9 10 10 11 14 17 18 19 18 19 20 22 23 23 24 27 33 35 32 31 32 34 37 39 42
45 46 43 37 32 29 30 32 42 45 35 26 21 20 22 19 19 20 19 17 16 13 10 8 8 7 8 8 9 9 10 12 13 14 15 15 15 16 17 19 22 24 28 30 32 34 36 32 31 32 32 36 40 40
46 41 36 31 30 30 32 37 45 34 26 22 20 22 19 19 20 19 19 18 15 12 9 7 9 10 10 9 9 10 11 11 10 11 12 13 14 16 19 22 26 29 30 32 33 34 36 39 37 35 38 39 35 35
38 37 36 33 31 29 30 38 37 31 28 25 21 17 18 19 18 19 20 18 14 10 9 12 12 11 9 8 8 8 7 8 9 9 11 13 16 19 22 25 29 31 34 35 35 36 37 39 43 40 41 39 36 35
41 38 35 33 30 30 30 31 29 27 24 21 20 17 20 20 17 18 18 15 12 12 13 13 10 9 9 8 7 7 7 7 8 10 13 17 19 22 25 28 30 32 34 35 36 37 37 39 41 43 42 40 37 35
30 28 26 24 22 21 18 19 21 20 20 19 18 20 22 20 19 18 16 14 14 13 12 10 10 10 8 7 7 6 6 7 11 14 17 20 23 25 27 29 30 32 33 34 35 36 36 37 39 41 41 41 39 36
28 24 20 15 12 12 10 19 24 23 21 21 19 18 18 18 17 16 14 14 14 13 12 10 10 9 8 7 6 5 7 10 14 16 18 20 21 22 24 26 29 30 31 33 33 34 35 34 36 38 40 41 41 39
16 15 14 11 11 13 14 18 21 19 19 18 18 16 15 15 14 14 13 14 15 14 13 12 11 10 8 7 6 8 10 12 13 14 15 16 18 20 23 25 27 29 31 32 32 33 33 34 34 35 37 39 40 42
9 7 8 9 11 14 15 16 19 18 17 17 16 15 15 14 14 13 13 17 14 14 13 12 11 9 7 8 9 10 11 11 11 12 15 17 20 22 25 27 28 30 31 32 33 34 34 34 34 35 36 38 39 41
9 7 9 11 12 13 14 15 15 15 15 15 14 15 14 13 13 13 14 13 13 13 12 11 10 9 10 11 11 12 13 14 16 18 21 24 26 28 30 31 32 32 33 33 34 35 35 35 35 35 36 37 39 41
7 9 11 12 13 14 15 14 14 14 14 14 13 12 12 12 13 14 13 13 13 12 12 11 12 13 15 16 17 18 18 19 20 22 24 27 30 32 34 35 35 35 35 36 36 36 37 37 36 37 38 39 40 42
13 13 13 13 13 12 13 13 13 13 13 13 13 13 13 15 15 14 14 13 13 14 14 14 16 18 20 20 21 21 22 24 25 27 30 32 34 35 37 38 39 38 39 39 40 40 40 39 40 40 41 43 46 47
11 11 11 11 11 12 13 14 14 15 15 16 16 16 16 16 15 16 16 17 18 18 18 19 21 23 24 25 26 27 28 30 30 31 35 37 38 40 40 40 40 40 41 41 41 42 42 43 42 42 43 45 48 50
10 11 11 11 11 11 11 13 14 16 17 17 17 18 19 19 20 20 21 22 22 23 23 25 27 29 30 31 33 33 34 35 36 38 40 41 43 44 44 44 42 41 41 42 42 42 43 43 43 44 45 46 48 50
8 7 8 8 9 9 11 12 15 16 18 19 21 22 23 24 25 25 26 27 28 29 30 32 34 35 36 37 39 39 41 43 43 44 45 46 47 48 49 48 46 43 41 42 44 44 45 46 47 48 48 47 48 49
5 6 7 9 11 12 14 15 17 18 19 21 23 24 25 27 29 30 31 33 34 35 36 38 39 39 40 42 44 45 46 46 47 48 49 50 50 51 52 51 46 43 45 44 45 47 47 49 49 49 48 48 49 50

GFSWCAN_500_spd_120.txt.gz
Wind_Speed
41 35 33 33 31 31 34 33 34 34 37 35 32 29 29 29 27 23 23 23 22 20 23 25 22 22 20 17 16 15 16 16 16 13 14 13 12 12 10 10 8 9 10 6 9 14 14 12 16 17 18 18 15 16
45 40 35 32 34 33 35 36 35 33 34 34 33 29 29 31 30 25 24 23 23 24 25 25 22 21 21 17 16 14 13 14 14 15 15 14 12 13 14 13 11 7 6 6 9 9 9 12 13 17 20 18 19 21
46 45 40 35 34 34 35 35 35 36 38 37 33 31 31 31 31 27 25 23 23 27 26 23 19 20 20 17 16 16 14 13 14 15 15 17 16 14 15 17 18 20 15 12 12 13 15 15 16 13 10 15 18 19
48 50 46 40 37 36 38 37 35 34 33 33 35 35 32 30 29 26 25 26 26 26 24 20 20 20 19 17 16 16 15 15 15 15 16 17 18 17 18 18 22 23 24 22 21 18 17 17 18 17 16 16 14 16
43 53 50 45 39 38 40 38 37 35 34 32 30 32 34 32 29 28 29 29 27 24 21 19 19 19 19 17 17 16 15 16 16 16 17 19 19 19 20 20 23 26 23 19 16 16 19 19 19 19 17 17 18 18
46 47 54 53 43 40 42 41 36 34 34 33 33 33 33 34 32 31 29 28 23 20 22 19 18 18 19 17 16 16 16 18 19 20 20 20 20 20 21 19 22 25 23 19 17 17 17 17 17 18 18 18 18 15
53 49 46 54 55 53 48 44 38 36 36 34 32 33 32 31 30 27 24 23 23 22 22 22 21 19 18 16 16 16 17 19 19 20 19 18 19 19 18 16 21 22 23 21 20 18 15 17 18 13 12 15 17 17
57 56 49 46 47 49 49 47 40 37 37 35 33 31 31 31 29 27 25 24 23 22 21 21 18 18 18 17 16 17 18 19 19 18 15 16 16 17 15 12 17 21 23 21 19 18 16 16 17 16 10 8 8 12
59 51 50 48 48 47 46 43 40 38 36 36 34 33 32 30 30 27 26 26 25 25 22 19 18 18 17 17 17 16 17 16 16 14 13 13 12 10 7 11 14 19 23 23 20 18 18 17 17 17 17 13 12 10
47 52 45 45 45 46 45 43 42 39 38 35 33 32 30 29 29 28 27 27 26 24 19 19 19 16 16 15 15 14 14 11 11 10 8 7 6 5 6 8 11 14 17 21 23 21 20 20 23 21 20 20 19 19
37 45 38 39 40 41 41 40 40 39 36 35 34 33 33 31 30 29 29 29 27 25 19 20 16 15 15 15 15 14 11 9 9 9 5 4 7 10 9 7 7 9 10 12 12 14 18 22 25 27 29 30 30 30
29 37 39 39 38 38 38 38 38 36 35 34 34 34 34 33 32 33 33 32 30 26 17 16 16 16 15 16 17 16 12 9 9 9 7 6 10 10 8 6 6 8 9 12 14 16 17 20 22 25 28 30 32 34
26 29 34 37 38 38 37 38 38 37 36 35 35 36 35 36 36 35 32 28 24 16 15 17 18 18 17 14 17 17 12 11 11 9 9 7 9 10 8 9 10 9 15 17 20 21 22 24 25 25 26 27 27 28
26 28 29 31 33 35 36 36 36 35 34 33 32 32 32 30 29 25 23 22 17 15 14 18 20 20 17 16 19 18 16 15 13 10 12 9 9 9 10 9 11 16 20 22 24 25 26 27 27 28 30 30 30 31
28 28 29 29 30 31 32 31 31 31 30 29 27 25 24 23 24 25 21 20 18 19 18 18 20 19 17 17 15 14 14 11 8 9 9 9 10 11 11 14 17 21 23 24 23 23 24 25 26 28 30 32 33 34
30 30 30 29 28 29 29 29 28 28 27 27 26 24 23 21 21 23 22 22 19 21 22 22 19 14 13 14 12 12 12 12 11 6 7 8 9 11 15 18 21 20 19 19 21 24 25 26 29 32 33 33 35 36
31 30 29 28 27 28 27 27 28 29 29 29 34 30 25 14 18 26 28 22 19 21 22 16 13 13 12 10 10 12 14 17 14 12 10 10 12 16 17 16 16 17 18 18 20 23 24 28 32 34 31 30 31 33
33 32 31 29 27 27 27 26 27 29 28 31 38 30 17 19 23 24 23 24 23 19 16 17 16 13 10 8 11 10 11 12 12 12 11 13 15 14 14 14 13 14 19 23 26 29 30 31 32 35 37 34 31 33
36 34 31 29 27 26 26 25 27 28 34 45 31 25 23 25 24 22 25 24 20 16 16 16 13 9 10 12 11 10 12 11 10 10 12 12 11 12 11 12 17 21 24 27 29 30 31 33 33 33 37 40 36 36
39 36 32 31 27 26 25 25 33 43 39 33 28 23 21 25 25 21 20 20 19 17 15 12 9 12 10 10 9 10 9 9 9 9 9 9 9 9 13 17 21 24 27 29 31 32 33 33 34 34 34 38 40 37
38 37 33 29 26 23 24 41 41 36 30 33 30 25 22 20 20 20 21 19 16 14 9 11 13 10 11 11 10 8 8 7 6 6 7 6 8 13 17 20 22 25 27 29 30 32 34 34 34 34 33 36 38 40
33 30 26 25 24 24 36 48 40 30 26 24 24 23 22 21 18 17 19 16 14 12 12 11 10 10 11 10 8 7 6 5 5 5 4 9 12 15 18 19 20 22 24 26 28 31 32 33 34 34 33 34 36 38
31 30 29 28 28 31 36 38 31 23 21 19 19 18 18 19 17 15 16 15 13 12 10 9 10 11 9 9 8 7 6 5 3 5 9 12 13 13 14 15 17 19 22 25 27 29 31 33 33 34 34 34 34 35
34 30 29 28 29 29 29 26 22 19 19 18 16 16 19 17 14 15 15 14 14 13 11 12 11 10 10 8 8 7 4 4 6 9 10 11 11 12 15 17 20 22 25 27 28 30 31 32 33 34 34 34 34 35
28 25 23 24 19 20 20 21 21 19 17 15 15 18 19 17 15 14 14 15 15 15 14 12 12 11 10 9 8 6 6 7 9 10 11 12 14 16 19 22 24 27 29 31 31 32 33 34 35 35 35 35 36 37
17 15 14 12 13 15 20 20 18 16 19 18 18 17 16 15 15 15 14 16 14 13 13 12 11 10 9 7 7 9 9 10 11 12 14 17 20 22 24 27 29 31 33 34 35 36 36 37 38 39 38 38 38 39
13 12 11 10 12 15 17 19 20 20 19 18 16 15 15 15 13 13 17 12 11 12 10 10 10 9 9 10 11 13 14 14 16 19 21 22 24 27 29 31 32 34 36 37 38 39 40 40 40 41 42 43 42 42
3 4 4 9 13 17 20 21 20 18 16 15 14 14 12 11 13 14 13 12 12 11 11 10 10 12 14 15 17 17 18 20 21 24 26 27 28 30 34 36 36 38 39 39 40 42 42 42 43 44 45 45 44 43
7 8 9 11 14 16 16 15 15 15 15 15 14 14 14 15 14 14 12 12 12 12 12 13 15 18 19 19 20 21 23 25 26 27 29 31 32 34 36 39 40 42 43 43 42 42 43 43 43 44 46 47 46 45
11 12 14 14 15 15 15 14 13 12 12 12 13 14 14 14 13 12 12 13 14 15 17 18 19 21 23 24 25 25 27 30 32 34 35 37 37 38 41 43 44 45 47 46 45 44 44 43 44 46 47 48 48 49
9 9 9 9 9 9 10 10 11 12 13 14 14 15 15 15 16 16 17 18 19 19 20 21 23 26 29 31 31 32 33 36 38 40 41 42 43 45 46 47 48 50 51 51 49 47 45 45 46 48 48 49 49 49
8 8 8 8 9 9 9 10 11 12 13 14 16 17 18 18 19 20 21 22 24 25 26 28 30 32 34 36 37 38 39 42 44 45 45 47 48 49 50 51 52 54 54 54 53 50 46 47 49 49 49 50 51 51
7 7 7 7 7 8 8 10 11 12 14 17 18 20 22 23 24 25 26 28 30 32 34 35 36 38 39 41 42 44 44 45 46 47 48 50 51 52 54 55 56 56 56 56 55 54 52 50 51 50 51 52 52 52

GFSWCAN_500_spd_123.txt.gz
Wind_Speed
37 34 29 26 28 29 31 32 33 29 33 37 37 37 41 34 36 31 31 27 24 26 25 23 24 24 22 20 16 16 16 15 15 16 18 18 17 16 15 14 16 17 13 11 8 9 13 13 16 16 17 17 18 17
36 35 32 28 27 29 31 34 34 36 35 36 34 34 31 27 31 30 28 25 23 23 25 24 23 23 21 20 18 17 16 14 14 15 16 18 19 17 16 16 16 18 17 8 6 7 9 10 12 12 14 18 20 19
44 38 36 29 30 31 32 36 38 38 37 37 37 34 30 26 31 30 27 23 25 25 25 23 22 24 22 22 20 17 16 14 14 14 16 18 19 19 19 19 19 20 22 22 18 15 10 10 13 15 18 18 16 15
42 40 38 34 32 31 31 29 33 35 35 36 37 35 30 28 31 32 30 26 27 26 24 23 23 24 23 21 19 19 16 15 15 15 17 18 19 19 19 19 21 21 22 24 24 23 22 22 23 22 20 18 19 20
49 43 39 37 30 28 31 31 31 35 35 35 35 31 28 27 30 34 32 29 27 25 22 22 24 24 22 20 20 18 17 16 16 17 18 19 20 19 19 18 20 23 24 24 23 22 20 19 17 17 19 21 21 22
48 47 42 40 37 33 28 30 29 31 32 32 33 34 35 34 32 33 32 30 28 26 24 22 23 23 21 19 20 19 18 17 17 18 19 20 20 20 20 18 20 21 23 23 22 22 21 20 19 19 20 23 24 25
41 44 46 46 33 34 34 35 31 28 30 31 31 30 29 33 35 32 29 25 29 29 26 24 23 22 19 18 18 17 17 17 19 20 20 20 21 20 19 18 20 20 22 22 21 19 19 20 19 18 18 21 21 19
40 42 45 48 43 35 39 40 36 31 28 30 31 29 28 29 32 31 29 28 28 28 27 25 21 22 19 17 17 17 16 18 19 19 20 20 19 18 17 18 19 18 20 21 19 18 18 18 19 19 18 17 19 15
40 39 39 48 46 47 40 40 39 34 29 28 29 30 30 30 29 29 29 29 28 27 23 20 19 18 16 16 16 16 16 18 18 17 17 16 16 14 15 15 14 16 17 19 19 19 20 20 21 22 21 19 19 20
49 47 44 47 49 51 51 46 40 36 30 29 30 30 30 30 30 30 29 27 26 24 21 20 18 16 17 16 16 16 16 15 15 14 14 13 10 8 7 8 8 9 9 11 12 14 18 22 23 24 24 26 27 27
48 54 53 46 50 49 49 46 43 39 34 32 30 30 31 31 30 30 29 28 25 20 19 19 17 16 16 16 16 16 14 14 14 14 12 13 10 7 8 6 5 6 5 5 6 8 10 11 14 17 21 24 27 30
41 53 51 55 49 44 42 41 34 36 35 32 31 31 31 31 30 31 30 28 23 18 17 16 17 18 16 18 16 15 15 14 13 14 13 13 12 7 4 2 3 5 5 9 12 15 17 19 20 22 24 26 27 28
34 44 53 51 44 38 44 41 37 36 36 34 33 32 31 31 31 31 28 22 16 15 18 18 18 18 18 17 15 17 18 14 12 12 10 13 10 7 5 6 8 7 10 15 18 21 23 24 25 25 26 27 28 30
29 36 41 42 38 39 37 38 37 35 34 34 34 32 32 32 31 28 26 23 22 22 22 21 21 21 20 18 17 17 17 15 12 12 14 13 11 12 11 12 12 13 16 20 20 20 20 21 23 25 26 29 32 34
28 36 40 39 38 38 39 36 34 34 33 32 32 32 31 30 28 27 26 24 23 23 20 20 20 20 20 19 20 18 15 13 13 12 10 9 10 12 12 12 14 17 17 16 16 18 21 22 24 25 26 30 34 34
26 31 35 37 38 40 37 34 34 33 32 31 30 29 29 29 28 27 27 24 22 21 20 20 20 19 19 17 15 14 11 12 15 10 9 10 10 10 11 14 14 13 13 15 16 16 18 20 23 26 28 29 32 36
26 28 30 32 34 34 34 34 33 32 32 31 30 29 28 28 27 24 22 21 20 20 21 20 21 17 15 13 12 13 14 16 12 10 11 7 9 11 13 11 11 13 13 13 17 21 24 27 29 29 30 31 31 35
28 28 28 28 29 30 31 32 32 32 31 30 32 31 28 25 25 26 27 26 21 21 22 21 21 19 15 12 13 16 13 13 13 15 17 13 13 12 11 12 12 10 14 18 22 24 26 28 30 32 32 33 32 33
29 28 27 27 27 28 28 28 29 30 31 35 38 32 30 26 29 32 31 29 27 26 22 17 17 16 14 17 16 9 10 10 11 11 13 13 11 10 11 10 10 14 18 20 22 25 27 29 30 31 33 33 33 34
30 29 27 27 26 26 26 26 27 28 34 41 34 22 25 27 29 32 30 37 25 25 20 18 16 19 17 13 11 11 11 11 11 10 11 10 10 10 7 9 13 15 17 19 21 22 24 27 29 30 32 33 34 34
29 28 27 25 23 21 19 22 28 32 42 38 27 29 27 23 26 26 26 27 24 18 18 19 20 17 13 13 12 11 10 10 10 9 9 8 7 5 8 11 13 14 14 16 18 21 23 25 27 29 30 31 32 32
28 26 24 21 21 20 21 24 31 39 38 30 24 21 21 30 25 20 21 21 20 20 18 19 16 11 12 13 12 11 10 10 9 8 7 5 4 7 9 11 11 14 17 19 22 25 26 28 28 29 30 31 32 32
26 24 22 20 19 24 27 33 37 36 31 27 22 18 18 19 20 19 20 19 18 18 17 13 11 12 12 12 11 10 10 9 9 8 5 5 7 10 11 13 15 18 21 22 25 27 28 29 31 32 33 35 36 36
25 22 19 21 29 34 36 34 32 30 28 25 23 21 21 21 19 18 19 19 19 16 13 12 12 12 11 10 11 10 10 10 9 7 6 8 11 13 14 17 19 21 23 25 27 30 32 33 34 35 36 38 39 39
27 26 28 29 37 35 26 23 21 21 20 21 21 20 19 19 17 18 19 20 17 14 13 12 12 11 11 11 12 12 11 10 9 8 10 12 14 16 19 21 23 26 27 29 31 33 35 37 39 39 40 41 42 42
26 26 24 24 26 25 21 19 18 17 17 15 16 17 20 18 19 18 18 16 14 13 12 11 11 11 11 12 11 11 10 9 10 13 15 17 18 21 24 27 29 32 34 35 36 37 39 41 42 43 43 43 44 45
23 22 19 17 15 14 15 15 16 16 17 17 18 20 20 19 18 15 16 15 11 9 12 12 12 13 13 12 12 12 12 14 16 18 20 22 24 27 29 30 32 34 37 39 41 42 42 43 44 45 45 45 46 45
14 15 16 17 14 14 17 18 16 16 18 18 18 17 16 14 12 17 17 14 12 13 12 12 13 13 13 14 15 16 18 19 21 22 24 26 29 32 32 34 35 38 40 43 45 46 45 46 46 46 46 46 47 46
10 12 15 19 21 21 21 20 18 18 19 18 17 15 14 16 19 16 15 15 14 13 13 13 14 15 16 17 19 21 23 24 25 27 30 32 34 36 38 39 40 42 44 47 50 51 50 50 50 49 48 49 48 48
14 14 15 18 20 20 20 20 20 19 18 17 16 15 15 16 14 14 14 14 13 13 14 16 17 19 21 22 23 25 27 28 30 32 35 38 40 41 42 45 46 47 49 51 54 54 54 54 55 54 52 50 49 50
11 12 12 13 14 15 16 17 17 16 15 15 15 15 16 16 15 15 15 15 16 17 18 20 21 23 25 27 29 30 31 33 35 37 39 42 44 45 47 48 50 51 53 54 56 57 58 59 59 57 57 54 52 52
10 10 11 11 12 13 13 14 14 13 13 13 14 15 16 16 17 16 17 19 20 21 23 25 27 29 32 34 36 38 39 40 41 42 44 46 48 49 50 50 52 53 54 56 57 59 60 62 61 59 58 56 53 54
7 7 7 8 8 8 8 9 9 10 11 12 13 14 15 17 18 20 22 24 26 28 30 32 34 36 37 39 41 42 44 45 46 47 48 49 50 51 52 53 54 55 57 57 57 58 59 59 58 57 56 54 53 54

GFSWCAN_500_spd_126.txt.gz
Wind_Speed
41 33 29 27 25 29 32 32 34 34 32 34 33 36 35 36 41 38 37 34 28 24 24 27 26 26 23 21 20 18 17 16 15 14 14 16 18 19 19 18 17 18 17 15 13 13 11 12 14 17 16 15 16 17
33 29 26 26 24 28 31 32 35 33 33 33 35 41 38 38 38 36 35 31 26 24 24 26 22 22 23 22 21 18 16 15 13 12 13 14 16 17 18 18 19 19 18 17 15 11 12 13 12 13 14 16 15 13
35 29 30 26 24 26 30 34 36 33 29 29 31 36 35 39 40 36 34 29 27 23 24 24 24 23 23 22 20 17 17 15 13 12 14 14 16 17 18 19 20 20 20 21 20 20 19 19 20 20 21 21 20 19
32 33 31 26 22 25 30 33 35 34 30 31 31 33 33 34 36 31 29 29 26 26 23 21 23 23 22 20 20 19 18 16 15 15 15 16 18 18 18 19 21 21 21 22 24 24 22 19 17 17 19 19 21 22
40 35 34 30 27 25 27 33 36 35 35 34 32 31 29 27 25 26 29 29 26 26 22 25 24 22 19 19 19 19 18 16 16 16 16 17 18 19 20 21 22 24 22 22 23 23 23 21 20 19 18 17 17 20
36 34 34 35 30 27 25 26 30 32 32 38 37 34 31 28 27 28 31 28 26 23 24 23 22 21 19 19 19 18 17 17 18 17 17 18 20 21 21 21 24 23 23 23 23 23 22 22 21 21 21 20 20 20
48 38 32 34 33 28 26 25 24 28 33 34 32 31 30 29 29 27 29 29 29 25 25 24 22 19 18 19 19 18 17 17 17 17 18 19 21 22 22 22 24 22 22 23 23 22 21 20 19 19 20 20 21 20
54 47 41 34 32 29 25 25 25 24 27 29 31 31 32 32 30 28 29 30 30 29 28 26 21 18 18 19 18 17 16 16 16 17 19 20 22 22 21 21 20 20 20 20 21 20 18 18 19 19 20 21 22 22
47 48 42 39 34 32 31 28 26 23 22 26 27 26 27 29 29 31 31 31 29 28 26 22 20 21 20 18 16 15 16 16 17 17 19 20 19 19 18 17 16 14 11 10 11 12 14 16 19 21 23 23 25 27
37 44 47 43 40 36 33 32 30 27 25 22 22 25 26 24 23 25 31 30 27 24 21 21 22 19 17 16 16 16 15 15 15 15 16 17 13 12 12 12 9 6 6 7 8 9 10 10 10 12 15 19 24 28
31 35 42 50 43 35 33 34 31 29 27 23 21 22 23 24 24 23 24 25 24 22 23 21 20 19 17 15 15 15 14 14 15 15 14 14 11 8 10 10 7 6 3 3 5 8 11 14 16 18 20 23 25 27
32 30 31 39 49 40 39 37 33 28 27 25 22 20 22 23 24 24 24 24 24 24 22 21 20 18 17 17 15 14 14 13 13 14 13 12 13 7 8 5 4 6 6 7 11 15 18 20 21 22 24 25 27 28
39 36 38 43 48 45 42 37 35 36 31 29 25 20 21 23 24 24 22 21 22 23 21 19 17 16 17 15 15 14 13 13 14 13 10 13 11 9 7 6 8 9 10 13 17 20 20 20 21 23 25 26 27 29
37 45 46 48 46 44 40 35 29 31 36 32 27 24 23 24 24 22 24 24 25 21 20 19 18 17 18 17 15 14 14 14 13 11 12 13 11 10 10 10 11 12 14 18 18 17 18 20 21 21 21 22 25 27
33 38 41 54 51 47 39 37 34 30 29 32 30 29 26 24 24 23 20 20 20 21 21 20 19 19 20 19 17 15 15 15 12 13 13 10 9 10 10 11 11 14 15 14 15 17 17 17 19 22 24 26 29 30
30 34 39 45 42 32 37 42 34 32 32 34 33 29 28 27 25 23 22 23 22 20 19 20 20 19 17 17 16 17 16 11 15 11 10 8 8 9 9 10 13 13 13 14 16 14 16 19 23 25 26 28 29 30
29 32 36 37 37 35 36 31 30 34 36 34 32 32 30 29 27 24 24 22 21 20 19 19 18 18 15 16 15 13 12 17 12 12 12 10 7 7 9 12 12 12 13 13 12 15 18 21 23 24 25 27 28 30
29 34 37 37 42 41 39 34 31 32 34 33 33 32 31 30 28 26 24 22 21 20 19 18 19 19 17 14 15 17 16 14 14 14 14 14 9 9 13 11 12 12 11 10 14 16 18 19 20 22 24 25 26 28
27 31 35 41 39 36 34 32 30 30 31 31 31 29 29 28 27 26 25 23 23 22 22 23 22 20 16 15 20 17 13 15 16 16 16 16 16 14 12 12 12 9 8 11 14 15 16 19 21 23 24 25 26 28
26 28 30 32 32 31 30 28 28 29 28 29 30 31 29 29 28 29 26 27 28 25 20 16 12 13 17 20 19 13 14 14 12 13 13 13 14 12 12 12 9 7 9 11 14 17 21 23 25 26 27 28 29 30
25 25 26 26 25 24 22 23 24 26 28 32 34 32 31 29 29 31 32 32 30 19 21 19 15 18 20 19 15 14 14 13 13 11 11 11 10 12 12 9 8 9 11 14 18 21 23 24 25 26 28 30 31 31
21 20 19 19 19 18 18 20 23 26 29 36 32 30 29 24 23 32 31 29 30 16 16 19 21 22 17 15 15 15 15 14 12 12 11 11 12 11 9 9 10 12 15 18 20 22 24 26 28 30 32 34 35 36
21 20 19 20 20 19 20 23 25 27 38 29 25 23 20 21 24 28 22 20 26 22 20 23 23 18 16 17 17 17 16 14 13 12 13 14 12 11 10 11 13 16 19 21 23 25 27 29 32 34 36 38 39 40
22 19 18 18 17 18 20 22 26 38 30 23 18 19 21 23 19 18 20 22 23 24 25 21 18 17 17 18 18 17 15 15 15 15 14 13 11 11 12 14 17 19 22 25 28 30 32 34 35 37 40 42 43 45
19 17 15 17 18 20 21 27 31 28 23 17 17 17 18 19 19 17 18 22 25 24 21 18 17 17 18 17 16 16 17 17 15 13 13 13 12 14 17 19 21 24 27 30 32 34 37 39 40 42 44 46 48 49
17 18 20 20 23 28 32 27 27 26 21 19 19 17 18 18 17 17 21 24 23 20 18 17 16 16 15 15 16 16 16 14 13 13 14 14 16 18 21 23 26 29 32 33 35 37 40 42 45 47 48 49 51 52
24 23 22 22 23 24 23 22 19 18 18 18 18 20 19 18 18 19 22 21 19 17 16 15 16 16 17 18 17 15 14 15 16 16 17 19 21 23 25 29 32 35 36 38 39 41 43 45 48 50 52 52 53 53
21 21 20 21 20 18 17 17 16 15 15 15 17 18 19 18 19 21 22 20 18 17 17 17 18 19 18 16 16 16 16 17 19 21 23 25 28 30 33 35 38 40 41 43 45 46 48 50 51 54 55 56 56 56
17 16 17 17 17 17 17 16 16 15 15 17 18 18 19 21 22 23 22 19 16 16 17 18 17 16 15 16 17 18 19 22 24 26 28 30 32 35 37 39 41 44 46 48 49 50 51 53 55 56 58 59 59 60
16 18 19 20 20 19 18 17 16 16 15 16 17 17 17 18 19 20 18 17 17 17 16 16 16 17 18 19 21 22 24 26 28 30 32 34 36 37 39 42 44 46 48 49 50 52 54 56 57 58 60 61 63 62
14 15 16 17 17 18 18 17 16 16 17 17 17 16 16 18 18 17 17 18 18 18 18 18 19 21 22 24 25 26 28 30 32 34 37 39 41 43 44 46 48 50 51 53 54 55 56 58 59 60 61 61 62 61
12 12 12 12 13 14 15 17 18 18 17 16 16 16 17 18 18 18 18 19 19 20 20 21 22 24 26 28 30 33 35 37 39 41 43 44 45 47 48 49 51 52 53 54 55 56 57 58 58 58 59 59 59 58
10 11 11 12 11 12 13 14 15 15 16 16 16 16 17 17 17 18 20 21 21 23 24 26 27 30 32 35 37 38 40 41 43 45 47 48 48 49 50 51 52 52 53 53 54 54 55 55 56 57 56 57 56 56